     2              OBSERVATION DATA    GPS                 RINEX VERSION / TYPE
teqc 1997Sep28 Duncan Agnew 19980804 18:57:16UTC            PGM / RUN BY / DATE
                                                            COMMENT
Original Marker Name: 119 FMK 1974                          COMMENT
Campaign Name: Anza Transect Fall 92-Spring 93              COMMENT
4-Character Station Name: BAD1                              COMMENT
6-Character Antenna Code: TRMSST                            COMMENT
Vertical Measurement Point: BGP                             COMMENT
Vertical Offset to Rinex Ref. Point: 0.0597                 COMMENT
Radial Measurement Point: NGP                               COMMENT
Radial Offset to Rinex Ref. Point: 0.2334                   COMMENT
Antenna Height from Field Measurement: 1.2100 m             COMMENT
Original XYZ: -2382903.0467 -4758197.8240 3506623.9089      COMMENT
New XYZ position is based on association with SCEC monument COMMENT
E1D0K4H0+0011. Position of that monument is believed to be  COMMENT
valid to within 1 m horizontally; vertical accuracy         COMMENT
should be no worse than 3-times this value.                 COMMENT
                                                            COMMENT
Revised Rinex header created by UCSD GPS archive for        COMMENT
GSAC on 26-May-1999 (1999:146) 20:52:10 GMT                 COMMENT
For assistance contact dagnew@ucsd.edu or hjohnson@ucsd.edu COMMENT
                                                            COMMENT
119 FMK 1974                                                MARKER NAME
Akulian SCRIPPS INSTITUTION OF OCEANOGRAPHY                 OBSERVER / AGENCY
422 TRIMBLE 4000 SST NP 4.64 / SP 4.20                      REC # / TYPE / VERS
62875 TR 4000SST L1/L2 GEO                                  ANT # / TYPE
 -2382897.0000 -4758186.0000  3506621.0000                  APPROX POSITION XYZ
        1.1276        0.0000        0.0000                  ANTENNA: DELTA H/E/N
     1     1     0                                          WAVELENGTH FACT L1/2
     3    C1    L1    L2                                    # / TYPES OF OBSERV
     0                                                      INTERVAL
  1993     5    21    16    55   45.000000                  TIME OF FIRST OBS
  1993     5    21    22     4   30.000000                  TIME OF LAST OBS
     0                                                      # OF SATELLITES
                                                            END OF HEADER
 93  5 21 16 55 45.0000000  0  7G27G19G18G 2G16G28G29
  21218411.7344         -0.93557
  20810249.7664         -0.62656
  21360949.625          -0.37917
  22540960.5704         -0.18956
  23903477.5634         -0.37052
  24482029.984          -0.13913
  24426851.4694         -0.06954
 93  5 21 16 56  0.0000000  0  7G27G19G18G 2G16G28G29
  21207736.2114     -56100.31747
  20804906.6254     -28083.89846
  21361880.883        4885.708 7
  22528769.148      -64056.876 6
  23896658.9144     -35838.31141
  24483097.016        5604.402 4
  24430957.3674      21594.14144
 93  5 21 16 56 15.0000000  0  6G27G19G18G 2G28G29
  21197067.5004    -112165.99347        -0.06873
  20799568.2274     -56122.14346        -0.09873
  21362826.805        9869.027 7        -0.06233
  22516593.422     -128046.767 6        -0.02832
  24484185.273       11300.552 4        -0.09031
  24435078.6644      43222.50245
 93  5 21 16 56 30.0000000  0  6G27G19G18G 2G28G29
  21186404.9224    -168197.01747    -43660.60564
  20794243.5554     -84108.73646    -21807.83363
  21363798.422       14947.682 7      3957.31323
  22504428.555     -191968.733 6    -49809.33322
  24485282.0474      17089.46544      4510.70461
  24439191.633       64884.699 5
 93  5 21 16 56 45.0000000  0  6G27G19G18G 2G28G29
  21175748.5944    -224190.10147    -87291.56864
  20788929.9454    -112039.83846    -43572.33563
  21364780.695       20123.197 7      7990.15823
  22492278.945     -255820.534 6    -99563.97022
  24486406.109       22973.598 5      9095.72221
  24443320.2114      86582.67244
 93  5 21 16 57  0.0000000  0  7G27G19G18G 2G16G28G29
  21165101.367     -280143.025 7   -130891.23124
  20783622.8284    -139911.68546    -65290.66563
  21365781.813       25399.133 7     12101.25923
  22480146.055     -319598.309 6   -149260.91922
  23869624.2274         -0.92252
  24487541.8984      28957.94945     13758.82561
  24447463.133      108318.618 5        -0.30331
 93  5 21 16 57 15.0000000  0  7G27G19G18G 2G16G28G29
  21154461.4924    -336056.64747   -174460.28764
  20778333.1644    -167722.76446    -86961.63763
  21366806.359       30775.617 7     16290.70723
  22468020.5314    -383301.38046   -198899.66462
  23862921.7974     -35196.16941
  24488699.7584      35042.05845     18499.64661
  24451604.8594     130090.34745     16964.59861
 93  5 21 16 57 30.0000000  0  6G27G19G18G 2G28G29
  21143827.9844    -391927.28347   -217995.84264
  20773051.3834    -195469.78946   -108582.70163
  21367850.328       36254.776 7     20560.16423
  22455910.734     -446929.022 6   -248479.63722
  24489876.3524      41228.27745     23320.07061
  24455749.5784     151900.74544     33959.63261
 93  5 21 16 57 45.0000000  0  6G27G19G18G 2G28G29
  21133204.3284    -447754.29447   -261497.39764
  20767784.0474    -223155.55146   -130156.02963
  21368914.125       41838.419 7     24911.03422
  22443819.000     -510481.371 6   -298000.94422
  24491074.867       47519.885 5     28222.60821
  24459905.1884     173749.12344     50984.24161
 93  5 21 16 58  0.0000000  0  6G27G19G18G 2G28G29
  21122591.3754    -503533.52647   -304961.72364
  20762526.2664    -250778.69246   -151680.55963
  21369994.094       47529.839 7     29345.88223
  22431740.961     -573954.365 6   -347460.39622
  24492293.125       53917.996 5     33208.12021
  24464069.9694     195635.87944     68038.78961
 93  5 21 16 58 15.0000000  0  6G27G19G18G 2G28G29
  21111985.445     -559266.994 7   -348390.39124
  20757283.8134    -278339.10746   -173156.20363
  21371099.984       53326.544 7     33862.77623
  22419678.992     -637350.755 6   -396860.16222
  24493530.938       60419.118 5     38273.91421
  24468236.898      217557.416 4     85120.44021
 93  5 21 16 58 30.0000000  0  6G27G19G18G 2G28G29
  21101389.8364    -614955.29047   -391783.86463
  20752050.9224    -305833.20046   -194580.16662
  21372224.344       59229.594 7     38462.53923
  22407628.070     -700671.813 6   -446201.23122
  24494788.578       67023.165 5     43419.90521
  24472425.641      239510.563 4    102226.70821
 93  5 21 16 58 45.0000000  0  6G27G19G18G 2G28G29
  21090800.7114    -670597.97847   -435141.80363
  20746832.3204    -333263.28546   -215954.26362
  21373365.172       65242.968 7     43148.26423
  22395591.625     -763919.742 6   -495485.30722
  24496061.4384      73728.77545     48645.04361
  24476609.719      261495.349 4    119357.61821
 93  5 21 16 59  0.0000000  0  6G27G19G18G 2G28G29
  21080219.602     -726193.992 7   -478463.36124
  20741622.8134    -360630.06646   -237279.03562
  21374532.641       71369.621 7     47922.25923
  22383567.313     -827093.576 6   -544711.66122
  24497360.2584      80537.47445     53950.50261
  24480805.7894     283515.25145    136515.90961
 93  5 21 16 59 15.0000000  0  6G27G19G18G 2G28G29
  21069650.8054    -781747.81947   -521752.05164
  20736427.6174    -387937.06546   -258557.22462
  21375720.906       77605.221 7     52781.15023
  22371561.0864    -890199.09046   -593884.78662
  24498673.094       87442.681 5     59331.17021
  24484995.164      305567.488 4    153699.38421
 93  5 21 16 59 30.0000000  0  6G27G19G18G 2G28G29
  21059086.3754    -837258.93547   -565007.45563
  20731241.6564    -415184.45446   -279788.96362
  21376927.484       83948.253 7     57723.75623
  22359563.891     -953238.175 6   -643006.12622
  24500004.5164      94440.17045     64783.74861
  24489196.4774     327652.47744    170908.40261
 93  5 21 16 59 45.0000000  0  6G27G19G18G 2G28G29
  21048534.0704    -892726.66947   -608229.06663
  20726069.8524    -442372.52746   -300974.48162
  21378153.711       90399.092 7     62750.36223
  22347582.555    -1016211.159 6   -692075.97222
  24501354.234      101529.543 5     70307.94021
  24493405.2034     349773.51744    188145.46561
 93  5 21 17  0  0.0000000  0  6G27G19G18G 2G28G29
  21037981.6884    -948150.80747   -651416.69763
  20720907.3204    -469502.55346   -322114.75463
  21379402.805       96957.102 7     67860.47423
  22335611.0474   -1079115.88046   -741092.62862
  24502715.1414     108710.17044     75903.22061
  24497625.547      371931.104 5    205411.04821
 93  5 21 17  0 15.0000000  0  6G27G19G18G 2G28G29
  21027443.2034   -1003534.14447   -694572.54063
  20715755.9064    -496574.06346   -343209.45563
  21380670.148      103618.274 7     73050.98422
  22323655.117    -1141957.885 6   -790060.40422
  24504103.4614     115977.93945     81566.40661
  24501849.016      394123.107 4    222703.42421
 93  5 21 17  0 30.0000000  0  6G27G19G18G 2G28G29
  21016913.7814   -1058879.16647   -737698.53263
  20710613.852     -523589.780 6   -364260.67223
  21381956.117      110379.595 7     78319.52523
  22311708.070    -1204740.520 6   -838981.92122
  24505498.6484     123331.33044     87296.31461
  24506082.0944     416344.27245    240018.53461
 93  5 21 17  0 44.9990000  0  6G27G19G18G 2G28G29
  21006389.6754   -1114178.82947   -780789.17663
  20705484.714     -550549.488 6   -385268.24523
  21383262.5584     117242.76847     83667.42763
  22299768.5894   -1267457.28546   -887852.12162
  24506914.1054     130771.64644     93093.96861
  24510312.2304     438594.27545    257356.07961
 93  5 21 17  0 59.9990000  0  6G27G19G18G 2G28G29
  20995874.1054   -1169438.64547   -823848.77163
  20700362.6514    -577457.27346   -406235.36063
  21384584.362      124206.026 7     89093.31723
  22287846.456    -1330114.619 6   -936675.99922
  24508350.573      138302.046 4     98961.77821
  24514547.3004     460876.71644    274718.92861
 93  5 21 17  1 14.9990000  0  7G27G19G18G 2G16G28G29
  20985366.9564   -1224652.86047   -866872.83163
  20695255.1594    -604308.39346   -427158.31963
  21385929.995      131267.009 7     94595.36323
  22275937.612    -1392705.100 6   -985447.77322
  23759323.8944         -0.04152
  24509804.0584     145922.71244    104899.97061
  24518800.917      483190.485 5    292106.18521
 93  5 21 17  1 29.9990000  0  7G27G19G18G 2G16G28G29
  20974870.628    -1279818.146 7   -909858.74923
  20690155.3394    -631102.54346   -448036.87363
  21387293.542      138425.754 7    100173.58822
  22264041.7374   -1455224.14046  -1034163.91562
  23753063.8704     -32899.87142
  24511270.823      153635.399 3    110909.83521
  24523054.362      505537.435 5    309519.29121
 93  5 21 17  1 44.9990000  0  7G27G19G18G 2G16G28G29
  20964382.0114   -1334930.10947   -952803.12164
  20685066.4014    -657837.05946   -468868.96563
  21388674.440      145687.818 7    105832.31922
  22252160.136    -1517666.355 6  -1082820.16822
  23746826.612      -65661.466 2
  24512751.1124     161446.41743    116996.32861
  24527305.7224     527921.44844    326961.29961
 93  5 21 17  1 59.9990000  0  7G27G19G18G 2G16G28G29
  20953904.6754   -1389992.59047   -995708.94363
  20679990.292     -684517.286 6   -489658.75623
  21390076.105      153049.835 7    111568.93422
  22240290.011    -1580033.455 6  -1131417.88522
  23740601.2144     -98290.80241        -0.39571
  24514256.714      169352.928 2    123157.25921
  24531569.565      550335.479 4    344426.67621
 93  5 21 17  2 14.9990000  0  5G27G19G18G 2G29
  20943436.9094   -1445003.70947  -1038574.75363
  20674921.8624    -711142.63646   -510405.79363
  21391497.276      160511.057 7    117382.84223
  22228432.800    -1642324.285 6  -1179956.17322
  24535840.542      572777.083 4    361913.53121
 93  5 21 17  2 29.9990000  0  5G27G19G18G 2G29
  20932977.1124   -1499962.87047  -1081400.06663
  20669868.7534    -737712.06546   -531109.24663
  21392934.870      168074.859 7    123276.69422
  22216600.214    -1704536.118 6  -1228432.90522
  24540116.878      595247.733 4    379423.03021
 93  5 21 17  2 44.9990000  0  5G27G19G18G 2G29
  20922531.0194   -1554870.31647  -1124185.07963
  20664822.5584    -764227.14646   -551770.35863
  21394393.214      175740.052 7    129249.55022
  22204774.792    -1766664.886 6  -1276844.92022
  24544398.5504     617751.07444    396957.99761
 93  5 21 17  2 59.9990000  0  5G27G19G18G 2G29
  20912091.0344   -1609723.88547  -1166928.10964
  20659785.9094    -790686.23446   -572387.83763
  21395873.347      183507.250 7    135301.89223
  22192969.878    -1828707.745 6  -1325189.99022
  24548692.3784     640292.06843    414522.32561
 93  5 21 17  3 14.9990000  0  5G27G19G18G 2G29
  20901663.5974   -1664520.63747  -1209626.87664
  20654765.9874    -817084.99746   -592958.30363
  21397369.097      191378.557 7    141435.35622
  22181179.3234   -1890663.35746  -1373467.07762
  24552982.3084     662872.89743    432117.66561
 93  5 21 17  3 29.9990000  0  5G27G19G18G 2G29
  20891245.7224   -1719263.99847  -1252284.03964
  20649749.1514    -843429.43746   -613486.44563
  21398888.8394     199351.64347    147648.12862
  22169405.058    -1952538.814 6  -1421681.70622
  24557293.2374     685488.67743    449740.23461
 93  5 21 17  3 44.9990000  0  5G27G19G18G 2G29
  20880838.4954   -1773956.76647  -1294901.77964
  20644747.4874    -869719.37246   -633972.10863
  21400422.222      207426.395 7    153940.11822
  22157645.440    -2014337.128 6  -1469836.21222
  24561599.9254     708136.08043    467387.47261
 93  5 21 17  3 59.9990000  0  5G27G19G18G 2G29
  20870439.1364   -1828602.28847  -1337482.69764
  20639750.862     -895956.051 6   -654416.28223
  21401977.464      215600.119 7    160309.22922
  22145899.878    -2076062.895 6  -1517934.19722
  24565917.0114     730808.84043    485054.43461
 93  5 21 17  4 14.9990000  0  5G27G19G18G 2G29
  20860051.089    -1883200.329 7  -1380026.60824
  20634773.3704    -922140.57846   -674819.81963
  21403551.300      223867.632 7    166751.41922
  22134163.597    -2137717.715 6  -1565976.90122
  24570234.0264     753505.55244    502740.06361
 93  5 21 17  4 29.9990000  0  5G27G19G18G 2G29
  20849667.8554   -1937747.69747  -1422531.04664
  20629798.4174    -948268.02946   -695178.87163
  21405142.714      232231.068 7    173268.35922
  22122448.597    -2199300.777 6  -1613963.68222
  24574563.4954     776232.82043    520449.50361
 93  5 21 17  4 44.9990000  0  6G27G19G18G 2G16G29
  20839298.1514   -1992246.04847  -1464997.29464
  20624839.4724    -974339.74146   -715494.48963
  21406752.870      240686.361 7    179856.87422
  22110742.839    -2260816.336 6  -1661897.87022
  23673967.237      -31193.616 4
  24578894.8944     798985.84543    538179.03161
 93  5 21 17  4 59.9990000  0  6G27G19G18G 2G16G29
  20828936.253    -2046694.511 7  -1507424.65424
  20619889.3314   -1000356.66046   -735767.41963
  21408379.167      249231.431 7    186515.34122
  22099048.034    -2322268.094 6  -1709782.33522
  23668060.4094     -62257.78044
  24583225.9804     821760.14543    555925.11361
 93  5 21 17  5 14.9990000  0  6G27G19G18G 2G16G29
  20818586.7764   -2101091.65747  -1549812.03164
  20614948.4254   -1026316.62846   -755995.96663
  21410023.050      257867.995 7    193245.11022
  22087362.058    -2383658.596 6  -1757619.07522
  23662176.1444     -93190.37245        -0.49371
  24587555.8784     844552.56243    573685.35561
 93  5 21 17  5 29.9990000  0  6G27G19G18G 2G16G29
  20808245.1674   -2155438.50247  -1592160.21464
  20610017.7694   -1052220.01746   -776180.43363
  21411682.394      266596.725 7    200046.69722
  22075693.9174   -2444990.04946  -1805409.81162
  23656311.909     -123989.833 5    -24000.12821
  24591899.761      867361.342 3    591458.28221
 93  5 21 17  5 44.9990000  0  6G27G19G18G 2G16G29
  20797911.9484   -2209737.75547  -1634471.31364
  20605100.8004   -1078067.66346   -796321.45563
  21413361.612      275418.370 7    206920.68222
  22064033.4804   -2506259.65946  -1853152.35162
  23650475.0504    -154656.29745    -47896.10161
  24596243.5894     890184.17243    609242.19861
 93  5 21 17  5 59.9990000  0  6G27G19G18G 2G16G29
  20787590.1514   -2263986.11747  -1676742.76064
  20600191.5584   -1103854.65546   -816415.21963
  21415059.058      284333.833 7    213867.76922
  22052390.565    -2567462.561 6  -1900842.91322
  23644667.987     -185187.025 5    -71686.29421
  24600588.573      913022.756 3    627038.35721
 93  5 21 17  6 14.9990000  0  6G27G19G18G 2G16G29
  20777273.5894   -2318186.98947  -1718977.20164
  20595295.0894   -1129587.15046   -836466.51963
  21416771.901      293338.017 7    220883.99722
  22040755.659    -2628602.655 6  -1948484.52222
  23638883.5584    -215586.44745    -95374.16961
  24604945.2224     935875.06443    644845.25461
 93  5 21 17  6 29.9990000  0  6G27G19G18G 2G16G29
  20766970.0264   -2372338.64547  -1761173.29264
  20590410.394    -1155262.161 6   -856473.03123
  21418502.7064     302437.23247    227974.26962
  22029131.628    -2689679.518 6  -1996076.85822
  23633119.8784    -245854.92844   -118959.99261
  24609293.183      958745.452 3    662666.20821
 93  5 21 17  6 44.9990000  0  6G27G19G18G 2G16G29
  20756674.4174   -2426442.82047  -1803332.38264
  20585536.1834   -1180877.05646   -876432.69463
  21420255.042      311634.557 7    235140.98822
  22017520.6904   -2750691.64246  -2043618.76062
  23627393.1754    -275994.05945   -142445.05061
  24613654.9014     981634.67743    680501.88361
 93  5 21 17  6 59.9990000  0  6G27G19G18G 2G16G29
  20746389.8394   -2480498.60547  -1845453.77064
  20580670.7374   -1206430.17646   -896344.22063
  21422022.808      320933.370 7    242386.78922
  22005926.003    -2811637.547 6  -2091109.06022
  23621676.9954    -306008.35045   -165832.83261
  24618010.0734    1004543.32342    698352.64561
 93  5 21 17  7 14.9990000  0  6G27G19G18G 2G16G29
  20736111.925    -2534508.804 7  -1887539.62524
  20575823.0734   -1231922.31246   -916208.22363
  21423814.136      330335.551 7    249713.14222
  21994339.2224   -2872517.48546  -2138547.96862
  23615991.831     -335899.366 4   -189124.54221
  24622371.4404    1027475.82942    716221.99761
 93  5 21 17  7 29.9990000  0  6G27G19G18G 2G16G29
  20725840.8394   -2588474.16347  -1929590.54064
  20570983.5814   -1257352.35846   -936023.83962
  21425622.3554     339841.91747    257120.67062
  21982766.597    -2933331.090 6  -2185935.18422
  23610321.6674    -365667.83144   -212320.75061
  24626739.3944    1050433.19242    734110.73461
 93  5 21 17  7 44.9990000  0  6G27G19G18G 2G16G29
  20715580.5034   -2642396.50647  -1971607.95464
  20566155.2144   -1282721.02846   -955791.64062
  21427452.0264     349452.42947    264609.35462
  21971203.667    -2994076.610 6  -2233269.34222
  23604677.3784    -395315.03845   -235422.45561
  24631110.448     1073415.053 2    752018.53121
 93  5 21 17  7 59.9990000  0  6G27G19G18G 2G16G29
  20705325.0344   -2696275.06547  -2013591.24564
  20561339.6284   -1308025.39146   -975509.33862
  21429299.4174     359164.79347    272177.39562
  21959660.605    -3054751.576 6  -2280548.52122
  23599060.0654    -424840.08345   -258429.00461
  24635495.573     1096423.341 2    769946.97021
 93  5 21 17  8 14.9990000  0  6G27G19G18G 2G16G29
  20695084.2844   -2750105.28347  -2055536.86664
  20556539.7144   -1333260.60946   -995173.14662
  21431164.925      368982.023 7    279827.16022
  21948127.683    -3115356.338 6  -2327772.99422
  23593465.339     -454238.697 4   -281337.05721
  24639879.4094    1119464.88342    787901.28761
 93  5 21 17  8 29.9990000  0  6G27G19G18G 2G16G29
  20684848.1834   -2803894.15747  -2097450.26664
  20551750.6364   -1358433.08346  -1014788.06462
  21433054.683      378898.657 7    287554.39022
  21936607.792    -3175895.221 6  -2374946.12722
  23587892.6054    -483514.41844   -304149.31061
  24644255.3314    1142535.18742    805878.01861
 93  5 21 17  8 44.9990000  0  6G27G19G18G 2G16G29
  20674620.5504   -2857644.02347  -2139333.28564
  20546972.1054   -1383542.74846  -1034354.04462
  21434959.8624     388910.27847    295355.62962
  21925097.417    -3236367.031 6  -2422066.99922
  23582348.4334    -512667.64744   -326866.12161
  24648664.065     1165631.191 2    823874.79521
 93  5 21 17  8 59.9990000  0  6G27G19G18G 2G16G29
  20664401.4014   -2911352.68847  -2181184.18764
  20542204.9564   -1408589.55746  -1053871.04862
  21436881.5114     399013.71247    303228.40162
  21913605.4484   -3296767.85146  -2469132.56962
  23576826.9804    -541694.59744   -349484.52761
  24653063.355     1188751.659 2    841890.56721
 93  5 21 17  9 14.9990000  0  6G27G19G18G 2G16G29
  20654186.0504   -2965020.46947  -2223003.23564
  20537452.394    -1433578.241 6  -1073342.76923
  21438821.3004     409205.27547    311169.85362
  21902129.081    -3357097.966 6  -2516143.03422
  23571323.089     -570592.422 4   -372002.31721
  24657467.9954    1211893.26743    859922.84861
 93  5 21 17  9 29.9990000  0  6G27G19G18G 2G16G29
  20643981.4874   -3018645.16047  -2264788.70664
  20532705.0654   -1458508.54446  -1092768.97963
  21440778.7614     419482.12947    319177.76662
  21890659.565    -3417354.437 6  -2563096.10122
  23565849.401     -599357.286 4   -394416.52821
  24661868.683     1235052.953 3    877969.20421
 93  5 21 17  9 44.9990000  0  6G27G19G18G 2G16G29
  20633786.5584   -3072225.18647  -2306539.37164
  20527971.7534   -1483380.65846  -1112149.85163
  21442746.9874     429842.33047    327250.61762
  21879204.159    -3477537.159 6  -2609991.71322
  23560405.8784    -627990.62445   -416728.20761
  24666281.2694    1258228.54442    896028.01361
 93  5 21 17  9 59.9990000  0  6G27G19G18G 2G16G29
  20623601.9804   -3125758.66047  -2348253.76664
  20523248.8944   -1508196.63246  -1131486.98063
  21444735.315      440281.717 7    335385.17922
  21867769.9954   -3537647.46946  -2656830.91062
  23554981.9334    -656493.59645   -438938.33061
  24670702.073     1281419.613 3    914098.81221
 93  5 21 17 10 14.9990000  0  6G27G19G18G 2G16G29
  20613422.1124   -3179244.68347  -2389931.18364
  20518538.5814   -1532957.92446  -1150781.49563
  21446737.4094     450799.83447    343581.09062
  21856343.581    -3597686.274 6  -2703614.37122
  23549579.776     -684868.918 5   -461048.99121
  24675104.722     1304627.479 3    932182.69321
 93  5 21 17 10 29.9990000  0  6G27G19G18G 2G16G29
  20603254.4174   -3232681.21447  -2431570.03964
  20513834.519    -1557666.527 6  -1170034.95923
  21448755.3004     461397.22047    351838.76162
  21844930.409    -3657651.810 6  -2750340.74822
  23544200.151     -713114.896 5   -483058.86121
  24679531.511     1327851.758 3    950279.39321
 93  5 21 17 10 44.9990000  0  6G27G19G18G 2G16G29
  20593093.9094   -3286070.11947  -2473171.78364
  20509143.4954   -1582327.32346  -1189251.17263
  21450785.4404     472070.81347    360155.81562
  21833532.878    -3717544.047 6  -2797010.01622
  23538856.0584    -741234.92945   -504970.58261
  24683959.9644    1351087.78343    968385.28061
 93  5 21 17 10 59.9990000  0  6G27G19G18G 2G16G29
  20582942.7924   -3339412.14047  -2514736.98664
  20504456.3864   -1606942.46446  -1208431.80863
  21452827.542      482820.179 7    368531.91722
  21822148.964    -3777370.670 6  -2843628.13722
  23533527.4804    -769233.52045   -526787.67261
  24688380.7694    1374331.09643    986496.75861
 93  5 21 17 11 14.9990000  0  6G27G19G18G 2G16G29
  20572801.9564   -3392704.36947  -2556263.39264
  20499783.8864   -1631512.69146  -1227577.44663
  21454891.401      493650.353 7    376970.99322
  21810778.159    -3837132.930 6  -2890196.11722
  23528220.917     -797111.272 5   -548510.59521
  24692804.433     1397584.667 4   1004616.29221
 93  5 21 17 11 29.9990000  0  6G27G19G18G 2G16G29
  20562668.1754   -3445945.82547  -2597750.23664
  20495114.0894   -1656036.83946  -1246687.17063
  21456965.5504     504563.43947    385474.67162
  21799418.519    -3896831.038 6  -2936714.10922
  23522941.2144    -824872.19345   -570142.53261
  24697231.448     1420850.976 3   1022745.77921
 93  5 21 17 11 44.9990000  0  6G27G19G18G 2G16G29
  20552545.9804   -3499140.57547  -2639200.69364
  20490457.7454   -1680516.33546  -1265762.10863
  21459059.800      515558.875 7    394042.51922
  21788066.690    -3956471.126 6  -2983186.89022
  23517677.3154    -852521.89445   -591687.75161
  24701663.5894    1444130.02643   1040885.11461
 93  5 21 17 11 59.9990000  0  6G27G19G18G 2G16G29
  20542430.2534   -3552285.03147  -2680611.94664
  20485806.6594   -1704948.72846  -1284800.34363
  21461170.5264     526641.78547    402678.52362
  21776731.3004   -4016049.73346  -3029611.76862
  23512442.6834    -880056.94445   -613143.63761
  24706095.6364    1467426.22743   1059037.83261
 93  5 21 17 12 14.9990000  0  6G27G19G18G 2G16G29
  20532329.1904   -3605384.02447  -2721987.77964
  20481168.5114   -1729335.30746  -1303802.87963
  21463293.644      537810.472 7    411381.36722
  21765405.394    -4075565.567 6  -3075987.72422
  23507226.550     -907475.731 5   -634508.94221
  24710530.9484    1490738.59543   1077203.17661
 93  5 21 17 12 29.9990000  0  6G27G19G18G 2G16G29
  20522234.0264   -3658441.26047  -2763331.07464
  20476532.8864   -1753675.00446  -1322768.88263
  21465436.230      549062.706 7    420149.31522
  21754093.472    -4135020.437 6  -3122316.17222
  23502023.5114    -934777.99745   -655783.46461
  24714968.565     1514065.543 2   1095379.87321
 93  5 21 17 12 44.9990000  0  6G27G19G18G 2G16G29
  20512146.2064   -3711452.69147  -2804638.67864
  20471912.7304   -1777963.80446  -1341695.21663
  21467594.3554     560402.00847    428985.10462
  21742792.480    -4194412.291 6  -3168595.52322
  23496853.3004    -961958.07045   -676962.74761
  24719405.753     1537406.965 2   1113567.83221
 93  5 21 17 12 59.9990000  0  6G27G19G18G 2G16G29
  20502064.6514   -3764419.99147  -2845911.89164
  20467301.5264   -1802200.63846  -1360581.06863
  21469767.3554     571830.89546    437890.70462
  21731500.8314   -4253743.11446  -3214827.32762
  23491704.1674    -989018.13745   -698048.52961
  24723851.4564    1560762.27142   1131766.65061
 93  5 21 17 13 14.9980000  0  6G27G19G18G 2G16G29
  20491995.0764   -3817337.65847  -2887146.43864
  20462703.1234   -1826381.56446  -1379423.34863
  21471961.5374     583348.34047    446865.31362
  21720224.115    -4313007.627 6  -3261007.45222
  23486576.9044   -1015955.88545   -719038.98161
  24728287.037     1584132.157 2   1149976.77721
 93  5 21 17 13 29.9980000  0  6G27G19G18G 2G16G29
  20481932.1154   -3870214.82047  -2928349.41964
  20458109.2404   -1850509.81146  -1398224.58363
  21474168.084      594951.761 7    455906.90722
  21708957.662    -4372210.100 6  -3307139.24022
  23481473.709    -1042774.371 5   -739936.52221
  24732750.1004    1607520.36842   1168201.21961
 93  5 21 17 13 44.9980000  0  6G27G19G18G 2G16G29
  20471880.6234   -3923050.24847  -2969519.87664
  20453529.303    -1874582.267 6  -1416982.35523
  21476392.412      606638.338 7    465013.30222
  21697700.201    -4431346.594 6  -3353219.60422
  23476393.615    -1069469.511 5   -760737.95221
  24737206.318     1630922.982 3   1186436.88021
 93  5 21 17 13 59.9980000  0  6G27G19G18G 2G16G29
  20461835.756    -3975842.748 7  -3010656.87724
  20448957.1704   -1898597.92446  -1435695.85763
  21478630.779      618406.327 7    474183.13922
  21686463.537    -4490416.631 6  -3399248.19322
  23471333.584    -1096038.557 5   -781441.12421
  24741662.170     1654337.625 3   1204681.86021
 93  5 21 17 14 14.9980000  0  6G27G19G18G 2G16G29
  20451798.7484   -4028587.36347  -3051756.56764
  20444400.5144   -1922549.50346  -1454359.42963
  21480887.490      630258.743 7    483418.76122
  21675234.561    -4549412.967 6  -3445219.34322
  23466305.3894   -1122477.89145   -802043.18661
  24746126.1864    1677768.15343   1222939.26461
 93  5 21 17 14 29.9980000  0  6G27G19G18G 2G16G29
  20441769.0064   -4081288.56947  -3092822.42964
  20439852.2644   -1946439.95446  -1472975.36463
  21483157.373      642190.530 7    492716.23722
  21664020.584    -4608341.099 6  -3491137.35322
  23461301.943    -1148794.368 5   -822549.57421
  24750590.678     1701210.862 4   1241206.08721
 93  5 21 17 14 44.9980000  0  6G27G19G18G 2G16G29
  20431750.4204   -4133943.55047  -3133852.27964
  20435319.4674   -1970269.50746  -1491543.85663
  21485443.873      654204.906 7    502078.06722
  21652820.1864   -4667203.98946  -3537004.53062
  23456315.5534   -1174989.49545   -842961.39461
  24755043.2874    1724661.67943   1259479.26361
 93  5 21 17 14 59.9980000  0  5G27G19G18G 2G16
  20421739.7094   -4186551.74347  -3174845.67064
  20430796.8974   -1994039.29746  -1510065.77263
  21487745.584      666305.299 7    511506.91622
  21641631.647    -4725998.235 6  -3582818.21322
  23451349.1234   -1201065.46745   -863280.32961
 93  5 21 17 15 14.9980000  0  5G27G19G18G 2G16
  20411735.576    -4239113.636 7  -3215802.97524
  20426284.4124   -2017747.75846  -1528539.89363
  21490063.0614     678490.27646    521001.67962
  21630454.9674   -4784723.10346  -3628577.84362
  23446408.9284   -1227024.24745   -883507.94961
 93  5 21 17 15 29.9980000  0  5G27G19G18G 2G16
  20401743.5844   -4291630.39847  -3256725.12264
  20421784.5614   -2041395.07446  -1546966.37763
  21492399.3264     690755.55447    530559.00562
  21619294.732    -4843378.408 6  -3674283.26022
  23441494.873    -1252866.431 5   -903644.73521
 93  5 21 17 15 44.9980000  0  5G27G19G18G 2G16
  20391757.6784   -4344100.72147  -3297611.07464
  20417299.9594   -2064978.70046  -1565343.22863
  21494749.615      703106.744 7    540183.29022
  21608146.897    -4901962.357 6  -3719933.07622
  23436598.6934   -1278589.46045   -923688.65261
 93  5 21 17 15 59.9980000  0  5G27G19G18G 2G16
  20381782.5144   -4396523.25047  -3338459.79064
  20412818.272    -2088499.553 6  -1583671.17923
  21497119.209      715542.335 7    549873.33322
  21597011.1624   -4960478.75246  -3765530.26062
  23431725.615    -1304195.885 5   -943641.71721
 93  5 21 17 16 14.9980000  0  5G27G19G18G 2G16
  20371814.1154   -4448898.00047  -3379271.27964
  20408355.123    -2111959.160 6  -1601951.40023
  21499498.514      728060.810 7    559627.96622
  21585887.287    -5018930.367 6  -3811076.96022
  23426878.4984   -1329689.58245   -963506.94761
 93  5 21 17 16 29.9980000  0  5G27G19G18G 2G16
  20361857.7094   -4501227.33247  -3420047.37464
  20403898.2174   -2135361.07446  -1620186.66663
  21501898.053      740663.024 7    569447.85022
  21574775.357    -5077319.825 6  -3856575.22422
  23422047.311    -1355070.611 5   -983284.37721
 93  5 21 17 16 44.9980000  0  5G27G19G18G 2G16
  20351909.2794   -4553506.07847  -3460784.05164
  20399460.7954   -2158705.51146  -1638377.13963
  21504313.2724     753351.51447    579334.96062
  21563679.647    -5135645.709 6  -3902023.94822
  23417236.4824   -1380332.62945  -1002969.06161
 93  5 21 17 16 59.9980000  0  5G27G19G18G 2G16
  20341969.4284   -4605733.85447  -3501481.01564
  20395029.3734   -2181995.11446  -1656524.88563
  21506739.1544     766123.17446    589286.87162
  21552591.5684   -5193907.19946  -3947422.49962
  23412453.061    -1405476.474 5  -1022561.68021
 93  5 21 17 17 14.9980000  0  5G27G19G18G 2G16
  20332039.8504   -4657909.49547  -3542137.35164
  20390607.7254   -2205228.22046  -1674628.61163
  21509185.584      778975.340 6    599301.52822
  21541517.7254   -5252104.27246  -3992770.86362
  23407692.084    -1430501.330 5  -1042061.60121
 93  5 21 17 17 29.9980000  0  5G27G19G18G 2G16
  20322120.0764   -4710032.27547  -3582752.49464
  20386197.7094   -2228407.44246  -1692690.34563
  21511647.2254     791905.74246    609377.13962
  21530456.584    -5310239.916 7  -4038071.35322
  23402951.9984   -1455407.56245  -1061469.05961
 93  5 21 17 17 44.9980000  0  5G27G19G18G 2G16
  20312215.0844   -4762100.71347  -3623325.29664
  20381797.2484   -2251534.59046  -1710711.50163
  21514118.857      804914.204 6    619513.58122
  21519405.014    -5368315.409 6  -4083324.95823
  23398242.3814   -1480193.57745  -1080782.83661
 93  5 21 17 17 59.9980000  0  5G27G19G18G 2G16
  20302317.1154   -4814111.14047  -3663852.90664
  20377405.2094   -2274607.61246  -1728690.48963
  21516611.951      818002.230 6    629712.02622
  21508362.467    -5426329.126 6  -4128530.43822
  23393542.725    -1504855.745 5  -1100000.12521
 93  5 21 17 18 14.9980000  0  5G27G19G18G 2G16
  20292428.5224   -4866066.23447  -3704337.39564
  20373024.8734   -2297628.54146  -1746628.88363
  21519118.787      831165.461 6    639969.06122
  21497335.2564   -5484282.07446  -4173688.57262
  23388873.8504   -1529396.30245  -1119122.66261
 93  5 21 17 18 29.9980000  0  5G27G19G18G 2G16
  20282553.8894   -4917967.59647  -3744780.00464
  20368653.5534   -2320598.88746  -1764527.85863
  21521637.7874     844405.76246    650286.15462
  21486319.100    -5542170.761 6  -4218796.61922
  23384220.272    -1553812.139 4  -1138148.01121
 93  5 21 17 18 44.9980000  0  5G27G19G18G 2G16
  20272688.6704   -4969815.66847  -3785181.09364
  20364294.2404   -2343518.81646  -1782387.54763
  21524172.3814     857720.53446    660661.27062
  21475314.8184   -5599993.98646  -4263853.67662
  23379608.045    -1578102.874 5  -1157075.86521
 93  5 21 17 18 59.9980000  0  5G27G19G18G 2G16
  20262829.9824   -5021614.78347  -3825544.03464
  20359940.6154   -2366390.18146  -1800209.39063
  21526716.537      871104.638 6    671090.42122
  21464323.7484   -5657754.90347  -4308862.17762
  23375002.5844   -1602275.62045  -1175911.77561
 93  5 21 17 19 14.9980000  0  5G27G19G18G 2G16
  20252982.3894   -5073364.68447  -3865868.62364
  20355599.131    -2389207.612 6  -1817989.21223
  21529279.482      884560.644 6    681575.59022
  21453347.576    -5715452.380 7  -4353821.23022
  23370424.4044   -1626329.89545  -1194655.35761
 93  5 21 17 19 29.9980000  0  5G27G19G18G 2G16
  20243141.0534   -5125067.69647  -3906156.68064
  20351265.1934   -2411971.39846  -1835727.23063
  21531854.4364     898088.29746    692116.58262
  21442380.303    -5773089.374 7  -4398733.15422
  23365872.0454   -1650267.18345  -1213307.80661
 93  5 21 17 19 44.9980000  0  5G27G19G18G 2G16
  20233313.8734   -5176722.09647  -3946406.86264
  20346947.7644   -2434677.27446  -1853420.12363
  21534439.826      911691.104 6    702716.14922
  21431423.240    -5830661.495 6  -4443594.53222
  23361338.9824   -1674084.22245  -1231866.53161
 93  5 21 17 19 59.9980000  0  5G27G19G18G 2G16
  20223495.4984   -5228329.53647  -3986620.44764
  20342636.1074   -2457324.11246  -1871067.01963
  21537043.756      925366.363 6    713372.17722
  21420477.592    -5888167.832 6  -4488404.64922
  23356832.412    -1697782.077 5  -1250332.39621
 93  5 21 17 20 14.9980000  0  5G27G19G18G 2G16
  20213681.2014   -5279890.08047  -4026797.49364
  20338337.5454   -2479909.41946  -1888665.96563
  21539662.9984     939115.07147    724085.42062
  21409548.139    -5945605.313 7  -4533161.11423
  23352344.6864   -1721362.17445  -1268706.50161
 93  5 21 17 20 29.9980000  0  5G27G19G18G 2G16
  20203879.1624   -5331403.23447  -4066937.60464
  20334050.2794   -2502433.81246  -1906217.44763
  21542290.529      952937.891 6    734856.42622
  21398632.4364   -6002973.96847  -4577863.95962
  23347881.3894   -1744825.06745  -1286989.27161
 93  5 21 17 20 44.9980000  0  5G27G19G18G 2G16
  20194084.9204   -5382866.94447  -4107039.19764
  20329775.3344   -2524897.39746  -1923721.53663
  21544935.5534     966834.93046    745685.25462
  21387728.311    -6060277.045 7  -4622515.68522
  23343436.826    -1768173.480 5  -1305182.86221
 93  5 21 17 20 59.9980000  0  5G27G19G18G 2G16
  20184299.1154   -5434283.43047  -4147103.98364
  20325514.8654   -2547302.08846  -1941179.73763
  21547595.522      980803.041 6    756569.47522
  21376839.311    -6117516.783 7  -4667118.05923
  23339012.9044   -1791414.31845  -1323292.64361
 93  5 21 17 21 14.9980000  0  5G27G19G18G 2G16
  20174526.3734   -5485649.04547  -4187129.13264
  20321262.1154   -2569645.64746  -1958590.30763
  21550264.982      994847.120 6    767512.89122
  21365954.561    -6174689.584 7  -4711668.28023
  23334614.0454   -1814544.21445  -1341315.93661
 93  5 21 17 21 29.9980000  0  5G27G19G18G 2G16
  20164762.4364   -5536964.17347  -4227114.93864
  20317019.3894   -2591930.36446  -1975955.03263
  21552953.4984    1008965.78246    778514.41662
  21355086.100    -6231796.006 7  -4756166.77722
  23330228.451    -1837564.377 5  -1359253.73221
 93  5 21 17 21 44.9980000  0  5G27G19G18G 2G16
  20155006.6074   -5588225.69547  -4267058.97464
  20312791.537    -2614156.731 6  -1993274.28523
  21555652.326     1023160.792 6    789575.43722
  21344233.1004   -6288831.55446  -4800610.05462
  23325872.9044   -1860471.59845  -1377103.54261
 93  5 21 17 21 59.9980000  0  5G27G19G18G 2G16
  20145261.1234   -5639434.51047  -4306961.94664
  20308572.4674   -2636326.89646  -2010549.74363
  21558369.279     1037430.477 6    800694.65722
  21333396.834    -6345797.516 7  -4844999.10723
  23321536.326    -1883266.752 5  -1394866.02021
 93  5 21 17 22 14.9980000  0  5G27G19G18G 2G16
  20135529.7254   -5690591.05447  -4346824.18464
  20304367.8344   -2658442.38746  -2027782.60063
  21561098.889     1051776.247 6    811873.14922
  21322566.967    -6402695.320 7  -4889335.03922
  23317211.0224   -1905951.02045  -1412542.09661
 93  5 21 17 22 29.9980000  0  5G27G19G18G 2G16
  20125803.6234   -5741696.78847  -4386646.83764
  20300165.0224   -2680503.16846  -2044972.82163
  21563845.5374    1066199.72046    823112.18962
  21311752.709    -6459526.414 7  -4933618.99423
  23312920.5374   -1928525.05245  -1430132.27861
 93  5 21 17 22 44.9980000  0  5G27G19G18G 2G16
  20116086.0374   -5792749.37847  -4426428.07764
  20295978.2564   -2702508.63146  -2062119.93963
  21566604.123     1080702.187 6    834412.78722
  21300954.381    -6516291.998 7  -4977851.90423
  23308647.6864   -1950989.43145  -1447637.03961
 93  5 21 17 22 59.9980000  0  5G27G19G18G 2G16
  20106382.2954   -5843748.20447  -4466167.41864
  20291800.5144   -2724457.06146  -2079222.62463
  21569379.404     1095284.229 6    845775.38822
  21290159.326    -6572988.731 7  -5022031.15722
  23304392.7954   -1973343.85945  -1465056.06461
 93  5 21 17 23 14.9980000  0  5G27G19G18G 2G16
  20096688.600    -5894694.170 7  -4505865.56224
  20287634.9124   -2746346.85946  -2096279.60963
  21572168.022     1109944.806 6    857199.19622
  21279385.045    -6629615.828 7  -5066156.15022
  23300157.084    -1995584.958 5  -1482386.82321
 93  5 21 17 23 29.9980000  0  5G27G19G18G 2G16
  20087003.4124   -5945587.90247  -4545523.00964
  20283480.8654   -2768178.39446  -2113291.19263
  21574972.397     1124681.302 6    868682.14521
  21268623.803    -6686179.194 7  -5110231.48723
  23295949.7954   -2017710.86445  -1499627.76561
 93  5 21 17 23 44.9980000  0  5G27G19G18G 2G16
  20077327.5454   -5996431.27447  -4585141.21364
  20279340.9124   -2789952.06146  -2130257.68163
  21577791.9434    1139491.68746    880222.67562
  21257871.857    -6742681.525 7  -5154259.26623
  23291764.1624   -2039721.29545  -1516778.73461
 93  5 21 17 23 59.9980000  0  5G27G19G18G 2G16
  20067663.6544   -6047224.39247  -4624720.26064
  20275208.0844   -2811665.90146  -2147177.54862
  21580624.943     1154375.376 6    891820.32821
  21247126.803    -6799123.435 7  -5198239.94922
  23287590.342    -2061615.642 4  -1533839.27921
 93  5 21 17 24 14.9980000  0  5G27G19G18G 2G16
  20058004.0064   -6097967.41047  -4664260.27164
  20271087.2874   -2833319.11246  -2164050.19162
  21583471.537     1169329.978 6    903473.24421
  21236401.303    -6855504.659 7  -5242173.35923
  23283448.1004   -2083394.54145  -1550809.86961
 93  5 21 17 24 29.9980000  0  5G27G19G18G 2G16
  20048360.1624   -6148660.00147  -4703760.99264
  20266973.2324   -2854910.14646
  21586331.2174    1184354.18246    915180.37961
  21225682.107    -6911823.644 6  -5286058.27023
  23279333.2954   -2105056.61545
 93  5 21 17 24 44.9980000  0  5G27G19G18G 2G16
  20038723.9284   -6199301.68747  -4743222.03664
  20262881.006    -2876443.408 6
  21589201.186     1199444.924 6    926939.36021
  21214975.4594   -6968082.40547  -5329896.25663
  23275232.4674   -2126603.18445
 93  5 21 17 24 59.9980000  0  5G27G19G18G 2G16
  20029094.5844   -6249887.18147  -4782639.30164
  20258791.326    -2897917.099 6
  21592083.318     1214605.484 6    938752.75421
  21204285.154    -7024275.447 7  -5373683.02023
  23271150.6314   -2148026.16745
 93  5 21 17 25 14.9980000  0  5G27G19G18G 2G16
  20019480.982    -6300419.854 7  -4822015.39324
  20254719.8184   -2919332.45446  -2231073.62063
  21594983.647     1229834.684 6    950619.64422
  21193602.920    -7080404.110 7  -5417419.63223
  23267104.4044   -2169325.40845
 93  5 21 17 25 29.9970000  0  5G27G19G18G 2G16
  20009874.4154   -6350896.36947  -4861347.73864
  20250656.6264   -2940689.61646  -2247715.57563
  21597896.5644    1245132.11446    962539.69561
  21182934.587    -7136467.519 7  -5461105.38623
  23263066.7674   -2190501.59845
 93  5 21 17 25 44.9970000  0  5G27G19G18G 2G16
  20000279.6814   -6401324.40447  -4900642.30564
  20246602.2824   -2961995.11946  -2264317.26963
  21600820.0404    1260498.13446    974513.17962
  21172279.259    -7192470.837 7  -5504744.32422
  23259058.853    -2211563.046 5        -0.04831
 93  5 21 17 25 59.9970000  0  5G27G19G18G 2G16
  19990694.2824   -6451701.84147  -4939897.44564
  20242558.3454   -2983249.60246  -2280879.21063
  21603755.923     1275930.136 6    986538.08921
  21161632.9394   -7248407.89547  -5548331.62862
  23255074.1574   -2232512.30545    -16324.15861
 93  5 21 17 26 14.9970000  0  5G27G19G18G 2G16
  19981115.9784   -6502021.52947  -4979107.58564
  20238522.4394   -3004447.79846  -2297397.28263
  21606704.407     1291432.629 6    998617.93221
  21151001.103    -7304272.695 7  -5591862.62322
  23251112.6184   -2253348.06545    -32559.82361
 93  5 21 17 26 29.9970000  0  5G27G19G18G 2G16
  19971552.5014   -6552284.68347  -5018273.67264
  20234498.2514   -3025590.46546  -2313872.10063
  21609666.5564    1307005.95846   1010752.95461
  21140385.626    -7360067.423 7  -5635339.02122
  23247173.3924   -2274070.65345    -48707.34261
 93  5 21 17 26 44.9970000  0  5G27G19G18G 2G16
  19962001.3454   -6602485.25947  -5057391.00064
  20230488.2514   -3046671.93846  -2330299.22763
  21612646.7744    1322655.91246   1022947.69261
  21129779.173    -7415789.168 7  -5678758.54423
  23243244.142    -2294679.816 5    -64766.43821
 93  5 21 17 26 59.9970000  0  5G27G19G18G 2G16
  19952457.884    -6652621.224 7  -5096457.97524
  20226487.064    -3067686.950 6  -2346674.57023
  21615638.5794    1338385.69546   1035204.64061
  21119193.892    -7471435.165 7  -5722119.04623
  23239342.204    -2315174.398 5    -80736.25721
 93  5 21 17 27 14.9970000  0  5G27G19G18G 2G16
  19942930.501    -6702700.673 7  -5135480.90524
  20222498.1814   -3088638.88846  -2363000.75463
  21618647.524     1354188.371 6   1047518.38421
  21108614.220    -7527012.780 7  -5765426.26223
  23235463.978    -2335564.232 5    -96624.46321
 93  5 21 17 27 29.9970000  0  5G27G19G18G 2G16
  19933409.6814   -6752719.24347  -5174456.40764
  20218529.8064   -3109521.10346  -2379272.61863
  21621668.4394    1370066.97546   1059891.29461
  21098056.259    -7582519.504 7  -5808678.23723
  23231602.978    -2355849.584 5   -112431.24621
 93  5 21 17 27 44.9970000  0  5G27G19G18G 2G16
  19923905.3294   -6802680.81647  -5213387.49864
  20214568.8144   -3130337.06346  -2395492.85463
  21624703.985     1386015.295 6   1072318.52821
  21087501.1264   -7637955.77147  -5851875.31963
  23227763.181    -2376032.850 5   -128158.48221
 93  5 21 17 27 59.9970000  0  5G27G19G18G 2G16
  19914407.5564   -6852581.08347  -5252270.82164
  20210620.2744   -3151081.59746  -2411657.43163
  21627752.8144    1402034.60846   1084801.07761
  21076968.8604   -7693319.47347  -5895015.85563
  23223944.6264   -2396107.96645   -143801.44261
 93  5 21 17 28 14.9970000  0  5G27G19G18G 2G16
  19904924.0714   -6902419.32947  -5291105.82064
  20206685.5244   -3171755.19346  -2427766.73363
  21630813.657     1418123.746 6   1097338.04821
  21066446.384    -7748615.291 7  -5938103.49323
  23220145.4544   -2416072.12145   -159357.95561
 93  5 21 17 28 29.9970000  0  5G27G19G18G 2G16
  19895452.4464   -6952196.10447  -5329892.91064
  20202762.860    -3192358.831 6  -2443821.52623
  21633892.048     1434284.477 6   1109930.78921
  21055936.814    -7803846.498 7  -5981140.78323
  23216369.243    -2435924.165 5   -174827.07921
 93  5 21 17 28 44.9970000  0  5G27G19G18G 2G16
  19885991.1184   -7001913.53447  -5368633.75464
  20198855.5644   -3212896.34046  -2459824.79063
  21636978.7824    1450515.09046   1122577.98161
  21045439.3214   -7859014.96147  -6024129.18763
  23212612.2744   -2455664.27945   -190208.99561
 93  5 21 17 28 59.9970000  0  5G27G19G18G 2G16
  19876540.048    -7051574.271 7  -5407330.41924
  20194958.0404   -3233371.18446  -2475779.21963
  21640074.923     1466813.113 6   1135277.70621
  21034952.3064   -7914121.34747  -6067069.22363
  23208877.751    -2475293.005 5   -205504.12021
 93  5 21 17 29 14.9970000  0  5G27G19G18G 2G16
  19867101.0404   -7101179.48747  -5445983.82464
  20191074.7674   -3253787.51246  -2491688.05163
  21643192.517     1483177.014 6   1148028.76421
  21024479.2984   -7969166.83147  -6109961.79563
  23205162.8454   -2494806.32245   -220709.31461
 93  5 21 17 29 29.9970000  0  5G27G19G18G 2G16
  19857673.9154   -7150725.11047  -5484590.79464
  20187200.2904   -3274146.63746  -2507552.32063
  21646318.5644    1499606.15146   1160830.66162
  21014011.689    -8024149.734 7  -6152805.60423
  23201475.4464   -2514202.33745   -235823.07861
 93  5 21 17 29 44.9970000  0  5G27G19G18G 2G16
  19848255.5404   -7200214.78247  -5523154.17264
  20183336.8924   -3294454.93846  -2523376.97663
  21649453.767     1516094.616 6   1173678.77622
  21003564.204    -8079072.171 7  -6195602.29623
  23197800.0094   -2533482.96145   -250846.99461
 93  5 21 17 29 59.9970000  0  5G27G19G18G 2G16
  19838850.017    -7249644.670 7  -5561670.95724
  20179479.0874   -3314712.79646  -2539162.32063
  21652607.399     1532643.878 6   1186574.27921
  20993120.3764   -8133935.17647  -6238352.67863
  23194155.704    -2552646.840 5   -265779.93321
 93  5 21 17 30 14.9970000  0  5G27G19G18G 2G16
  19829453.6424   -7299015.86047  -5600142.00164
  20175636.7674   -3334922.30746  -2554909.99563
  21655767.071     1549253.463 6   1199516.77121
  20982694.8924   -8188743.97347  -6281060.82563
  23190526.5014   -2571699.53945   -280626.19061
 93  5 21 17 30 29.9970000  0  5G27G19G18G 2G16
  19820069.8994   -7348327.70347  -5638566.80464
  20171797.7594   -3355080.98346  -2570618.06163
  21658939.6964    1565928.88846   1212510.57461
  20972275.3764   -8243493.48947  -6323722.77862
  23186924.814    -2590643.240 5   -295387.55921
 93  5 21 17 30 44.9970000  0  5G27G19G18G 2G16
  19810696.1184   -7397583.72047  -5676948.10864
  20167974.4074   -3375189.14146  -2586286.77363
  21662126.0564    1582666.52646   1225552.85561
  20961869.829    -8298184.422 7  -6366339.07123
  23183341.603    -2609483.682 5   -310068.43321
 93  5 21 17 30 59.9970000  0  5G27G19G18G 2G16
  19801336.6424   -7446782.05047  -5715284.46664
  20164156.1264   -3395242.24146  -2601912.56063
  21665324.7904    1599465.39746   1238642.84961
  20951472.7044   -8352811.69047  -6408905.76463
  23179777.4154   -2628219.88145   -324668.09561
 93  5 21 17 31 14.9970000  0  5G27G19G18G 2G16
  19791984.0174   -7495921.99147  -5753575.31764
  20160354.2904   -3415238.41146  -2617493.99563
  21668527.8214    1616324.25946   1251779.58761
  20941089.6264   -8407375.37247  -6451422.90663
  23176230.5484   -2646852.57745   -339187.12161
 93  5 21 17 31 29.9970000  0  5G27G19G18G 2G16
  19782646.6034   -7544999.98747  -5791817.90664
  20156557.4154   -3435173.16846  -2633027.58663
  21671749.5954    1633245.43346   1264964.88461
  20930718.4544   -8461871.65047  -6493887.53463
  23172706.4154   -2665384.06145   -353627.24961
 93  5 21 17 31 44.9970000  0  5G27G19G18G 2G16
  19773315.7904   -7594013.29047  -5830010.08464
  20152777.8454   -3455039.71646  -2648508.01963
  21674983.853     1650234.737 6   1278203.26221
  20920365.282    -8516297.179 7  -6536297.03123
  23169197.939    -2683813.764 5   -367988.07121
 93  5 21 17 31 59.9970000  0  5G27G19G18G 2G16
  19764004.7984   -7642966.98047  -5868155.81764
  20149007.7674   -3474837.67046  -2663935.00463
  21678229.8294    1667291.80946   1291494.44561
  20910016.478    -8570654.994 7  -6578653.75523
  23165706.9854   -2702143.27645   -382270.80361
 93  5 21 17 32 14.9970000  0  5G27G19G18G 2G16
  19754698.6654   -7691859.61347  -5906253.96364
  20145256.5794   -3494559.84046  -2679302.92963
  21681484.564     1684420.297 6   1304841.27621
  20899688.9544   -8624940.41647  -6620954.07963
  23162241.1264   -2720369.94145   -396473.40161
 93  5 21 17 32 29.9970000  0  5G27G19G18G 2G16
  19745405.4934   -7740694.74347  -5944307.30264
  20141518.0094   -3514209.09946  -2694614.04763
  21684758.4314    1701618.86646   1318242.72161
  20889373.5094   -8679149.56347  -6663194.96863
  23158791.329    -2738494.729 5   -410596.64721
 93  5 21 17 32 44.9970000  0  5G27G19G18G 2G16
  19736120.7204   -7789472.01447  -5982315.56164
  20137794.9544   -3533784.96246  -2709867.97763
  21688045.6654    1718885.23346   1331696.99661
  20879071.4624   -8733280.31547  -6705374.76763
  23155360.6104   -2756513.10245   -424636.97061
 93  5 21 17 32 59.9970000  0  5G27G19G18G 2G16
  19726854.8144   -7838192.05447  -6020279.22164
  20134079.9624   -3553290.23446  -2725066.89363
  21691342.7204    1736213.94446   1345199.85461
  20868783.798    -8787335.599 7  -6747495.75123
  23151954.7744   -2774423.35545   -438593.03961
 93  5 21 17 33 14.9970000  0  5G27G19G18G 2G16
  19717592.4704   -7886853.23147  -6058197.01564
  20130382.5014   -3572726.90646  -2740212.35563
  21694655.0014    1753606.69746   1358752.61361
  20858514.2984   -8841315.18147  -6789557.75763
  23148568.1494   -2792223.33145   -452463.17461
 93  5 21 17 33 29.9970000  0  5G27G19G18G 2G16
  19708345.1034   -7935456.90847  -6096070.00564
  20126697.1494   -3592099.11146  -2755307.58063
  21697975.4784    1771063.90446   1372355.58861
  20848252.7514   -8895223.10947  -6831563.92563
  23145198.665    -2809915.551 5   -466249.34521
 93  5 21 17 33 44.9970000  0  5G27G19G18G 2G16
  19699106.2594   -7983997.92747  -6133894.17564
  20123024.118    -3611402.708 6  -2770349.35223
  21701313.735     1788590.181 6   1386012.39421
  20838013.9544   -8949055.86147  -6873511.51863
  23141855.5714   -2827495.48745   -479948.02161
 93  5 21 17 33 59.9970000  0  5G27G19G18G 2G16
  19689878.9464   -8032480.99447  -6171673.17964
  20119359.9934   -3630645.10646  -2785343.43863
  21704660.329     1806177.998 6   1399717.14621
  20827780.6184   -9002820.58547  -6915406.10263
  23138529.7984   -2844964.34245   -493560.15261
 93  5 21 17 34 14.9970000  0  5G27G19G18G 2G16
  19680666.9394   -8080900.59347  -6209402.72964
  20115710.2984   -3649825.28446  -2800289.03263
  21708018.790     1823828.515 6   1413470.75021
  20817563.509    -9056514.337 7  -6957245.37223
  23135228.3844   -2862319.40745   -507083.59061
 93  5 21 17 34 29.9970000  0  5G27G19G18G 2G16
  19671464.3844   -8129255.76347  -6247082.07564
  20112071.4154   -3668948.11046  -2815189.93963
  21711383.6964    1841539.98546   1427271.85861
  20807357.7434   -9110139.59947  -6999031.28463
  23131940.5094   -2879565.50844   -520522.13561
 93  5 21 17 34 44.9970000  0  5G27G19G18G 2G16
  19662276.1344   -8177544.26347  -6284709.47964
  20108446.8844   -3688013.33446  -2830045.95863
  21714767.8374    1859313.01546   1441120.93861
  20797164.954    -9163700.428 7  -7040766.97923
  23128684.1574   -2896701.89545   -533875.18061
 93  5 21 17 34 59.9970000  0  5G27G19G18G 2G16
  19653098.8144   -8225763.78047  -6322283.12364
  20104829.2904   -3707014.96646  -2844852.43063
  21718164.829     1877149.275 6   1455019.28621
  20786987.1034   -9217200.21347  -7082455.11363
  23125448.0794   -2913729.52845   -547143.48161
 93  5 21 17 35 14.9970000  0  5G27G19G18G 2G16
  19643939.3764   -8273912.00047  -6359801.20664
  20101226.9934   -3725950.72146  -2859607.57263
  21721570.345     1895053.194 6   1468970.34421
  20776813.1734   -9270637.72747  -7124094.72763
  23122221.1344   -2930648.77545   -560327.34461
 93  5 21 17 35 29.9970000  0  5G27G19G18G 2G16
  19634788.1494   -8321990.63547  -6397265.07464
  20097632.5174   -3744818.20446  -2874309.50463
  21724991.962     1913024.964 6   1482974.29521
  20766659.1894   -9324013.87747  -7165686.52463
  23119026.4854   -2947460.61345   -573427.46161
 93  5 21 17 35 44.9970000  0  5G27G19G18G 2G16
  19625653.3534   -8370000.25347  -6434675.16764
  20094057.8994   -3763616.68746  -2888957.67863
  21728426.2904    1931062.71746   1497029.64861
  20756510.7204   -9377327.88147  -7207229.90263
  23115849.8144   -2964165.48645   -586444.26661
 93  5 21 17 35 59.9970000  0  5G27G19G18G 2G16
  19616530.4624   -8417942.40147  -6472032.67664
  20090492.5484   -3782344.45946  -2903550.74763
  21731872.9154    1949162.82446   1511133.59261
  20746382.2204   -9430579.02447  -7248724.28863
  23112687.368    -2980761.187 5   -599376.02921
 93  5 21 17 36 14.9970000  0  5G27G19G18G 2G16
  19607418.9314   -8465819.86847  -6509339.78964
  20086942.8844   -3801001.92846  -2918089.04263
  21735326.2514    1967322.53746   1525283.97961
  20736256.9464   -9483766.48447  -7290169.06063
  23109552.306    -2997248.490 5   -612223.30121
 93  5 21 17 36 29.9970000  0  5G27G19G18G 2G16
  19598323.2284   -8513628.80247  -6546593.49764
  20083404.4934   -3819585.38846  -2932569.66563
  21738791.548     1985546.998 6   1539484.81421
  20726149.204    -9536884.038 7  -7331559.34623
  23106431.5014   -3013627.36245   -624986.07161
 93  5 21 17 36 44.9970000  0  5G27G19G18G 2G16
  19589235.8994   -8561376.04447  -6583799.13564
  20079885.0564   -3838100.68746  -2946997.17463
  21742271.6034    2003829.67746   1553731.01561
  20716053.8994   -9589936.22647  -7372898.70463
  23103337.610    -3029902.811 5   -637668.26621
 93  5 21 17 36 59.9970000  0  5G27G19G18G 2G16
  19580162.6814   -8609060.16947  -6620955.58664
  20076371.345    -3856543.780 6  -2961368.43523
  21745761.485     2022172.244 6   1568023.88521
  20705971.0244   -9642919.79047  -7414184.59063
  23100260.446    -3046069.165 5   -650265.42421
 93  5 21 17 37 14.9970000  0  5G27G19G18G 2G16
  19571096.892    -8656683.169 7  -6658064.40424
  20072879.5794   -3874920.66846  -2975688.08563
  21749263.8214    2040572.70946   1582361.86961
  20695902.4854   -9695833.58247  -7455416.11063
  23097203.3604   -3062127.94644   -662778.77961
 93  5 21 17 37 29.9970000  0  5G27G19G18G 2G16
  19562048.9704   -8704245.79447  -6695126.18664
  20069389.7984   -3893236.63746  -2989960.28263
  21752774.6104    2059027.81146   1596742.43761
  20685845.9154   -9748677.16447  -7496592.91663
  23094168.845    -3078080.449 4   -675209.31321
 93  5 21 17 37 44.9970000  0  5G27G19G18G 2G16
  19553008.0094   -8751742.00947  -6732136.21764
  20065919.3214   -3911489.48146  -3004183.28363
  21756294.751     2077541.374 6   1611168.55121
  20675807.1034   -9801444.78047  -7537710.53763
  23091153.962    -3093924.598 4   -687555.46521
 93  5 21 17 37 59.9960000  0  5G27G19G18G 2G16
  19543984.645    -8799168.793 7  -6769092.14124
  20062458.1684   -3929681.89546  -3018359.19463
  21759831.0204    2096110.71846   1625638.13061
  20665780.035    -9854137.566 7  -7578769.83923
  23088159.6374   -3109663.16844   -699819.30661
 93  5 21 17 38 14.9960000  0  5G27G19G18G 2G16
  19534973.1844   -8846531.28247  -6805997.97164
  20059005.5904   -3947816.70946  -3032490.22763
  21763379.8324    2114741.39746   1640155.50461
  20655765.5514   -9906762.52747  -7619776.29863
  23085182.106    -3125299.340 5   -712003.34521
 93  5 21 17 38 29.9960000  0  5G27G19G18G 2G16
  19525971.5044   -8893821.74347  -6842847.67164
  20055567.699    -3965889.811 6  -3046573.16823
  21766935.762     2133438.024 6   1654724.26121
  20645766.395    -9959314.285 7  -7660725.70623
  23082227.856    -3140833.162 5   -724107.65121
 93  5 21 17 38 44.9960000  0  5G27G19G18G 2G16
  19516988.7464   -8941040.25147  -6879641.31264
  20052138.856    -3983901.086 6  -3060607.94023
  21770506.0664    2152200.65346   1669344.44761
  20635776.0984  -10011795.83947  -7701620.41263
  23079297.059    -3156265.028 5   -736132.51821
 93  5 21 17 38 59.9960000  0  5G27G19G18G 2G16
  19508015.7314   -8988184.31647  -6916376.94064
  20048724.0904   -4001845.06146  -3074590.26163
  21774088.6454    2171031.28546   1684017.63261
  20625806.6214  -10064204.89447  -7742458.63463
  23076379.121    -3171589.703 5   -748073.86321
 93  5 21 17 39 14.9960000  0  5G27G19G18G 2G16
  19499060.8714   -9035252.20247  -6953053.20764
  20045324.2934   -4019719.75946  -3088518.60663
  21777683.051     2189930.262 6   1698744.06321
  20615842.1214  -10116540.19647  -7783239.37863
  23073481.6374   -3186808.30845   -759932.54761
 93  5 21 17 39 29.9960000  0  5G27G19G18G 2G16
  19490117.2934   -9082239.15747  -6989666.41564
  20041935.074    -4037522.330 6  -3102390.74223
  21781294.676     2208899.924 6   1713525.58821
  20605902.574   -10168797.004 7  -7823958.95923
  23070601.762    -3201919.273 5   -771707.34221
 93  5 21 17 39 44.9960000  0  5G27G19G18G 2G16
  19481191.8164   -9129146.31947  -7026217.44664
  20038562.434    -4055251.847 6  -3116205.96823
  21784918.504     2227939.840 6   1728361.83121
  20595973.176   -10220976.186 7  -7864618.04623
  23067749.043    -3216924.428 5   -783399.67221
 93  5 21 17 39 59.9960000  0  5G27G19G18G 2G16
  19472283.7384   -9175974.72047  -7062707.10664
  20035200.895    -4072908.174 6  -3129964.15223
  21788557.3324    2247049.89046   1743252.74961
  20586055.5514  -10273080.93047  -7905219.13663
  23064916.387    -3231823.173 5   -795009.10721
 93  5 21 17 40 14.9960000  0  5G27G19G18G 2G16
  19463383.8244   -9222726.71647  -7099137.22264
  20031854.9264   -4090489.39446  -3143663.80563
  21792208.598     2266228.157 6   1758196.80721
  20576155.777   -10325110.811 7  -7945761.88823
  23062101.5904   -3246613.74045   -806534.23461
 93  5 21 17 40 29.9960000  0  5G27G19G18G 2G16
  19454502.7934   -9269403.38247  -7135508.64164
  20028523.5124   -4107992.45246  -3157302.56063
  21795868.934     2285473.217 6   1773192.91221
  20566269.6684  -10377062.75247  -7986243.91363
  23059306.145    -3261295.492 5   -817974.59921
 93  5 21 17 40 44.9960000  0  5G27G19G18G 2G16
  19445632.1134   -9316003.33247  -7171820.28764
  20025209.1604   -4125415.28146  -3170878.80163
  21799539.340     2304785.687 6   1788241.54121
  20556399.754   -10428935.689 7  -8026664.37223
  23056529.254    -3275865.668 5   -829328.02521
 93  5 21 17 40 59.9960000  0  5G27G19G18G 2G16
  19436783.6684   -9362529.04547  -7208074.08864
  20021908.809    -4142761.737 6  -3184395.53623
  21803227.238     2324161.664 6   1803339.66421
  20546541.6604  -10480730.91747  -8067024.28063
  23053778.2854   -3290323.73545   -840594.07561
 93  5 21 17 41 14.9960000  0  5G27G19G18G 2G16
  19427942.6604   -9408979.55747  -7244269.28264
  20018621.957    -4160031.204 6  -3197852.28223
  21806926.5904    2343600.76446   1818486.98361
  20536701.2704  -10532448.60947  -8107323.77163
  23051048.8564   -3304670.02745   -851773.01361
 93  5 21 17 41 29.9960000  0  5G27G19G18G 2G16
  19419115.1134   -9455355.72547  -7280406.55264
  20015347.973    -4177223.949 6  -3211249.24223
  21810640.9654    2363104.93746   1833684.99861
  20526873.770   -10584091.180 7  -8147564.72523
  23048346.3014   -3318904.60645   -862864.90961
 93  5 21 17 41 44.9960000  0  5G27G19G18G 2G16
  19410305.6294   -9501659.12847  -7316487.12364
  20012094.9884   -4194339.37846  -3224585.93863
  21814360.2854    2382675.79346   1848934.98461
  20517059.3404  -10635660.27847  -8187748.42563
  23045658.871    -3333024.190 5   -873867.20921
 93  5 21 17 41 59.9960000  0  5G27G19G18G 2G16
  19401505.5594   -9547890.81947  -7352511.81264
  20008850.754    -4211376.323 6  -3237861.49223
  21818099.7314    2402313.47446   1864237.03861
  20507260.9024  -10687160.80447  -8227878.70363
  23042985.5904   -3347030.27045   -884781.06961
 93  5 21 17 42 14.9960000  0  5G27G19G18G 2G16
  19392724.1134   -9594051.83047  -7388481.42264
  20005626.535    -4228333.001 6  -3251074.49823
  21821849.8794    2422015.36246   1879589.11861
  20497471.363   -10738593.673 7  -8267956.24723
  23040347.5044   -3360923.27345   -895606.79661
 93  5 21 17 42 29.9960000  0  5G27G19G18G 2G16
  19383950.7234   -9640142.71547  -7424396.39564
  20002414.5274   -4245208.16646  -3264223.99263
  21825612.723     2441779.753 6   1894989.89621
  20487700.699   -10789958.442 7  -8307980.73123
  23037729.129    -3374706.178 5   -906346.74121
 93  5 21 17 42 44.9960000  0  5G27G19G18G 2G16
  19375196.7234   -9686159.88347  -7460253.91964
  19999220.059    -4262003.983 6  -3277311.65423
  21829384.527     2461608.526 6   1910440.83821
  20477935.207   -10841256.037 7  -8347952.86923
  23035120.332    -3388379.401 5   -917001.22521
 93  5 21 17 42 59.9960000  0  5G27G19G18G 2G16
  19366453.6134   -9732098.46747  -7496050.21864
  19996036.129    -4278720.011 6  -3290337.14123
  21833170.293     2481503.913 6   1925943.69021
  20468189.2464  -10892482.91747  -8387869.91163
  23032545.3954   -3401938.72345   -927566.95461
 93  5 21 17 43 14.9960000  0  5G27G19G18G 2G16
  19357726.4024   -9777959.73247  -7531786.26764
  19992872.8484   -4295354.48446  -3303299.07963
  21836968.4654    2501463.47446   1941496.55561
  20458455.5124  -10943639.00447  -8427731.79163
  23029983.2314   -3415384.46745   -938044.16161
 93  5 21 17 43 29.9960000  0  5G27G19G18G 2G16
  19349014.8564   -9823746.26747  -7567464.08364
  19989721.9024   -4311910.77246  -3316200.08963
  21840775.668     2521484.463 6   1957097.27421
  20448733.1844  -10994728.18347  -8467541.53063
  23027447.3244   -3428721.56745   -948436.74761
 93  5 21 17 43 44.9960000  0  5G27G19G18G 2G16
  19340315.3244   -9869456.42147  -7603082.37764
  19986586.793    -4328391.293 6  -3329042.07423
  21844595.9494    2541566.43046   1972745.53061
  20439023.418   -11045750.184 7  -8507298.91623
  23024924.137    -3441950.070 4   -958744.74821
 93  5 21 17 43 59.9960000  0  5G27G19G18G 2G16
  19331632.7624   -9915088.25647  -7638639.64164
  19983461.9104   -4344797.69446  -3341826.29063
  21848433.3484    2561705.60446   1988438.35661
  20429325.4024  -11096704.52547  -8547003.59763
  23022431.8794   -3455074.36145   -968971.47861
 93  5 21 17 44 14.9960000  0  5G27G19G18G 2G16
  19322963.1524   -9960638.71547  -7674133.50164
  19980355.965    -4361128.455 6  -3354551.56823
  21852277.590     2581901.584 6   2004175.43721
  20419646.3404  -11147586.90447  -8586652.19663
  23019956.7624   -3468094.83645   -979117.31861
 93  5 21 17 44 29.9960000  0  5G27G19G18G 2G16
  19314312.2074  -10006106.54347  -7709562.97664
  19977260.449    -4377384.074 6  -3367218.29423
  21856128.902     2602152.265 6   2019955.14921
  20409973.0824  -11198393.85847  -8626242.01863
  23017496.465    -3481012.574 5   -989183.14121
 93  5 21 17 44 44.9960000  0  5G27G19G18G 2G16
  19305674.6294  -10051491.10347  -7744927.57164
  19974184.887    -4393568.501 6  -3379829.55023
  21859991.926     2622457.338 6   2035777.23321
  20400323.7934  -11249126.21647  -8665773.72363
  23015053.785    -3493827.655 5   -999168.93321
 93  5 21 17 44 59.9960000  0  5G27G19G18G 2G16
  19297055.1294  -10096794.86047  -7780229.19664
  19971113.481    -4409685.576 6  -3392388.33023
  21863868.285     2642813.308 6   2051638.98121
  20390678.6454  -11299785.58247  -8705248.55163
  23012636.4654   -3506539.80545  -1009074.54661
 93  5 21 17 45 14.9960000  0  5G27G19G18G 2G16
  19288446.1914  -10142019.71047  -7815469.33164
  19968063.3324   -4425731.55646  -3404891.69863
  21867750.309     2663220.021 6   2067540.26121
  20381057.8874  -11350369.95847  -8744664.94063
  23010238.762    -3519149.299 5  -1018900.14721
 93  5 21 17 45 29.9960000  0  5G27G19G18G 2G16
  19279857.0044  -10187164.68647  -7850647.23064
  19965021.457    -4441706.475 6  -3417339.70423
  21871640.020     2683677.578 6   2083481.17221
  20371441.1994  -11400882.42547  -8784025.29563
  23007857.9264   -3531659.28445  -1028648.20461
 93  5 21 17 45 44.9960000  0  5G27G19G18G 2G16
  19271282.457   -10232226.500 7  -7885760.32224
  19961995.723    -4457610.916 6  -3429732.78423
  21875544.731     2704186.688 6   2099462.25021
  20361846.1994  -11451322.77047  -8823329.45363
  23005492.012    -3544072.610 5  -1038320.92921
 93  5 21 17 45 59.9960000  0  5G27G19G18G 2G16
  19262724.1844  -10277212.47047  -7920814.31564
  19958984.223    -4473448.779 6  -3442073.99023
  21879458.012     2724741.076 6   2115478.61421
  20352258.7234  -11501692.93747  -8862578.92263
  23003145.301    -3556394.822 5  -1047922.67421
 93  5 21 17 46 14.9960000  0  5G27G19G18G 2G16
  19254173.5744  -10322123.12247  -7955809.62964
  19955982.4494   -4489217.38946  -3454361.23063
  21883375.6764    2745340.73946   2131530.25361
  20342688.9104  -11551989.02347  -8901770.67063
  23000826.824    -3568624.593 5  -1057452.37921
 93  5 21 17 46 29.9960000  0  5G27G19G18G 2G16
  19245644.9344  -10366961.49447  -7990748.62164
  19952991.699    -4504918.683 6  -3466596.01823
  21887303.738     2765983.522 6   2147615.49221
  20333132.5434  -11602211.78947  -8940905.28363
  22998515.2774   -3580760.26245  -1066908.78761
 93  5 21 17 46 44.9960000  0  5G27G19G18G 2G16
  19237123.1604  -10411730.39847  -8025633.48564
  19950019.746    -4520555.787 6  -3478780.78523
  21891240.770     2786668.081 6   2163733.29421
  20323588.1214  -11652365.16547  -8979985.83063
  22996221.0594   -3592802.97645  -1076292.72061
 93  5 21 17 46 59.9960000  0  5G27G19G18G 2G16
  19228618.4344  -10456434.73247  -8060468.02764
  19947052.590    -4536132.682 6  -3490918.64323
  21895186.270     2807390.935 6   2179880.92521
  20314055.2854  -11702452.21547  -9019014.68763
  22993948.0204   -3604755.38145  -1085606.29761
 93  5 21 17 47 14.9960000  0  5G27G19G18G 2G16
  19220121.9964  -10501075.42547  -8095252.97864
  19944101.7704   -4551645.94446  -3503006.90863
  21899137.6374    2828152.96946   2196059.06961
  20304539.5274  -11752473.71147  -9057992.46463
  22991694.668    -3616617.829 5  -1094849.76921
 93  5 21 17 47 29.9960000  0  5G27G19G18G 2G16
  19211639.0744  -10545650.09247  -8129986.47964
  19941162.035    -4567092.826 6  -3515043.45323
  21903095.707     2848956.371 6   2212269.46521
  20295031.0274  -11802429.91747  -9096919.36763
  22989448.4574   -3628391.97545  -1104024.45761
 93  5 21 17 47 44.9960000  0  5G27G19G18G 2G16
  19203169.1214  -10590160.89847  -8164670.22164
  19938232.934    -4582477.291 6  -3527031.36223
  21907058.9814    2869800.15846   2228511.34061
  20285536.1684  -11852324.10547  -9135797.94963
  22987227.957    -3640079.881 5  -1113131.92321
 93  5 21 17 47 59.9960000  0  5G27G19G18G 2G16
  19194712.8874  -10634609.72847  -8199305.66864
  19935319.465    -4597797.550 6  -3538969.24023
  21911033.9264    2890686.18846   2244786.13661
  20276052.356   -11902151.542 7  -9174624.51023
  22985009.3874   -3651677.50844  -1122169.10961
 93  5 21 17 48 14.9960000  0  5G27G19G18G 2G16
  19186265.6914  -10678998.43847  -8233894.26864
  19932413.2464   -4613056.89546  -3550859.65363
  21915018.3874    2911610.84046   2261091.01361
  20266585.3404  -11951915.34047  -9213401.48963
  22982828.8094   -3663184.18244  -1131135.35461
 93  5 21 17 48 29.9960000  0  5G27G19G18G 2G16
  19177829.3954  -10723324.58547  -8268434.11664
  19929522.6764   -4628255.08446  -3562702.40063
  21919008.5664    2932573.37146   2277425.42261
  20257127.1454  -12001620.87647  -9252133.07863
  22980661.7624   -3674601.95844  -1140032.38961
 93  5 21 17 48 44.9960000  0  5G27G19G18G 2G16
  19169408.8484  -10767581.40547  -8302919.94364
  19926643.973    -4643386.946 6  -3574493.47623
  21923004.941     2953581.013 6   2293794.96321
  20247682.160   -12051265.399 7  -9290817.10923
  22978506.1214   -3685928.76444  -1148858.50061
 93  5 21 17 48 59.9960000  0  5G27G19G18G 2G16
  19160998.2774  -10811770.50447  -8337353.00064
  19923777.5824   -4658452.10846  -3586232.57263
  21927013.801     2974634.015 6   2310199.84621
  20238244.301   -12100850.891 7  -9329455.14123
  22976360.0124   -3697170.57344  -1157618.37661
 93  5 21 17 49 14.9960000  0  5G27G19G18G 2G16
  19152602.4964  -10855889.58047  -8371731.49664
  19920926.559    -4673447.525 6  -3597917.33023
  21931027.738     2995735.512 6   2326642.51321
  20228819.8094  -12150376.28447  -9368046.34263
  22974236.035    -3708327.620 5  -1166312.19621
 93  5 21 17 49 29.9960000  0  5G27G19G18G 2G16
  19144221.3634  -10899936.20047  -8406053.54164
  19918080.910    -4688372.188 6  -3609546.95523
  21935051.481     3016887.534 6   2343124.56821
  20219405.0744  -12199840.94947  -9406590.22863
  22972127.277    -3719400.818 4  -1174940.67321
 93  5 21 17 49 44.9960000  0  5G27G19G18G 2G16
  19135852.9264  -10943909.63647  -8440318.54464
  19915253.5984   -4703229.87746  -3621124.38263
  21939088.6294    3038088.54346   2359644.77961
  20210006.7074  -12249243.34547  -9445085.59463
  22970044.6764   -3730393.01445  -1183506.04461
 93  5 21 17 49 59.9960000  0  5G27G19G18G 2G16
  19127501.3954  -10987808.60647  -8474525.52964
  19912437.2314   -4718018.68246  -3632648.12863
  21943126.621     3059337.255 6   2376202.16821
  20200617.3634  -12298580.94647  -9483530.47163
  22967966.9574   -3741303.07645  -1192007.44061
 93  5 21 17 50 14.9950000  0  5G27G19G18G 2G16
  19119159.9834  -11031625.78747  -8508668.77364
  19909641.2964   -4732735.23446  -3644115.58063
  21947180.8044    3080634.71146   2392797.53961
  20191243.8514  -12347847.53847  -9521920.01663
  22965908.0304   -3752126.29944  -1200441.14861
 93  5 21 17 50 29.9950000  0  5G27G19G18G 2G16
  19110840.2184  -11075370.34747  -8542755.44064
  19906854.7654   -4747385.72346  -3655531.55563
  21951244.374     3101979.406 6   2409429.71921
  20181874.7024  -12397057.86647  -9560265.71763
  22963863.8904   -3762870.62444  -1208813.35961
 93  5 21 17 50 44.9950000  0  5G27G19G18G 2G16
  19102526.0934  -11119038.47647  -8576782.55364
  19904078.5154   -4761963.55746  -3666890.91463
  21955313.2494    3123376.55846   2426102.79061
  20172527.468   -12446203.142 7  -9598560.72823
  22961832.280    -3773534.430 3  -1217122.86421
 93  5 21 17 50 59.9950000  0  5G27G19G18G 2G16
  19094234.3274  -11162632.76947  -8610752.12464
  19901317.788    -4776471.392 6  -3678195.73523
  21959398.655     3144824.865 6   2442815.70221
  20163184.0464  -12495284.24247  -9636805.73263
  22959815.726    -3784117.166 3  -1225369.14921
 93  5 21 17 51 14.9950000  0  5G27G19G18G 2G16
  19085950.2264  -11206153.14747  -8644664.10764
  19898571.8274   -4790910.46446  -3689446.96663
  21963489.4444    3166322.76446   2459567.26561
  20153859.249   -12544301.225 7  -9675000.76923
  22957819.4914   -3794615.12644  -1233549.44461
 93  5 21 17 51 29.9950000  0  5G27G19G18G 2G16
  19077683.3354  -11249595.12047  -8678514.98864
  19895837.4214   -4805279.92246  -3700643.94963
  21967588.343     3187870.819 6   2476357.90421
  20144540.5544  -12593251.86847  -9713144.12063
  22955833.741    -3805022.017 4  -1241658.75421
 93  5 21 17 51 44.9950000  0  5G27G19G18G 2G16
  19069432.6554  -11292961.90047  -8712307.27964
  19893115.585    -4819584.600 6  -3711790.46923
  21971700.366     3209461.867 6   2493182.04021
  20135239.023   -12642140.243 7  -9751238.94723
  22953872.4134   -3815341.14543  -1249699.64061
 93  5 21 17 51 59.9950000  0  5G27G19G18G 2G16
  19061192.4054  -11336250.21947  -8746038.42764
  19890404.866    -4833820.777 6  -3722883.60323
  21975816.554     3231098.756 6   2510041.90921
  20125948.5934  -12690965.98747  -9789284.97063
  22951927.5934   -3825567.76243  -1257668.44561
 93  5 21 17 52 14.9950000  0  5G27G19G18G 2G16
  19052973.4994  -11379460.94647  -8779709.12064
  19887711.0234   -4847987.91446  -3733922.94263
  21979943.952     3252781.153 6   2526937.23821
  20116665.6554  -12739732.09747  -9827284.53763
  22949996.9054   -3835700.93743  -1265564.45661
 93  5 21 17 52 29.9950000  0  5G27G19G18G 2G16
  19044763.1794  -11422592.36547  -8813318.01764
  19885030.2884   -4862084.08646  -3744906.97563
  21984073.1164    3274509.91746   2543868.68561
  20107400.1244  -12788439.40447  -9865238.27063
  22948090.460    -3845739.527 3  -1273386.74821
 93  5 21 17 52 44.9950000  0  5G27G19G18G 2G16
  19036571.7184  -11465647.90447  -8846867.78564
  19882359.1554   -4876110.18446  -3755836.41263
  21988217.6324    3296280.30045   2560832.55761
  20098142.007   -12837089.913 7  -9903147.74223
  22946198.398    -3855687.148 4  -1281138.14621
 93  5 21 17 52 59.9950000  0  5G27G19G18G 2G16
  19028393.3434  -11508627.17747  -8880358.12664
  19879701.4604   -4890068.40646  -3766712.95763
  21992367.944     3318089.140 5   2577826.40421
  20088892.7184  -12885683.35547  -9941012.75063
  22944321.7104   -3865543.54144  -1288818.52761
 93  5 21 17 53 14.9950000  0  5G27G19G18G 2G16
  19020226.6404  -11551523.86647  -8913784.11064
  19877061.4764   -4903953.87746  -3777532.81163
  21996528.577     3339939.444 5   2594852.57421
  20079660.6944  -12934211.12147  -9978826.58763
  22942466.5304   -3875300.23944  -1296421.14661
 93  5 21 17 53 29.9950000  0  6G27G19G18G 2G16G15
  19012080.1484  -11594339.24647  -8947146.74364
  19874430.991    -4917765.997 6  -3788295.51023
  22000687.413     3361828.953 5   2611909.26821
  20070437.6874  -12982673.02047 -10016589.09863
  22940630.226    -3884961.892 4  -1303949.74421
  23773098.1634         -0.59652
 93  5 21 17 53 44.9950000  0  6G27G19G18G 2G16G15
  19003950.3984  -11637075.66747  -8980447.85364
  19871819.4524   -4931506.80146  -3799002.64063
  22004861.6244    3383754.42945   2628994.01261
  20061225.3664  -13031071.26847 -10054302.01163
  22938800.8664   -3894533.14144  -1311407.87061
  23760849.2804     -64361.91742
 93  5 21 17 53 59.9950000  0  6G27G19G18G 2G16G15
  18995829.3984  -11679735.38747  -9013689.18464
  19869211.8824   -4945175.62146  -3809653.66963
  22009043.2884    3405716.36145   2646107.15061
  20052031.4134  -13079405.11947 -10091964.74263
  22937000.155    -3904016.957 3  -1318797.89321
  23748614.2964    -128689.56742
 93  5 21 17 54 14.9950000  0  5G27G19G18G 2G16
  18987727.2494  -11722319.11347  -9046871.30264
  19866627.4214   -4958769.23246  -3820246.10163
  22013232.273     3427714.649 5   2663248.61721
  20042848.0854  -13127672.72047 -10129575.85563
  22935220.929    -3913414.356 4  -1326120.56421
 93  5 21 17 54 29.9950000  0  5G27G19G18G 2G16
  18979641.1404  -11764829.53747  -9079996.30564
  19864053.6944   -4972288.76346  -3830780.81063
  22017417.6244    3449747.66645   2680417.15061
  20033673.8274  -13175871.40347 -10167133.26463
  22933443.171    -3922723.127 4  -1333374.15721
 93  5 21 17 54 44.9950000  0  5G27G19G18G 2G16
  18971561.8194  -11807268.52947  -9113065.64964
  19861498.1484   -4985738.21446  -3841260.90863
  22021622.2184    3471812.80845   2697610.70061
  20024517.398   -13224002.797 7 -10204638.22823
  22931687.7264   -3931948.14344  -1340562.51961
 93  5 21 17 54 59.9950000  0  5G27G19G18G 2G16
  18963499.8744  -11849635.81747  -9146079.12464
  19858950.9214   -4999119.17746  -3851687.63763
  22025824.741     3493913.404 5   2714831.89621
  20015372.2264  -13272066.40747 -10242090.38563
  22929947.608    -3941090.344 3  -1347686.32821
 93  5 21 17 55 14.9950000  0  5G27G19G18G 2G16
  18955451.9054  -11891931.95747  -9179037.16364
  19856416.4834   -5012432.54446  -3862061.69563
  22030037.2104    3516049.09145   2732080.41061
  20006233.6084  -13320063.58747 -10279490.77763
  22928223.9214   -3950150.93744  -1354746.54461
 93  5 21 17 55 29.9950000  0  5G27G19G18G 2G16
  18947417.1944  -11934151.09047  -9211935.18864
  19853898.2734   -5025674.56046  -3872380.15863
  22034259.312     3538224.487 5   2749359.88721
  19997112.6014  -13367992.57547 -10316838.03464
  22926510.499    -3959128.225 4  -1361741.86421
 93  5 21 17 55 44.9950000  0  6G27G19G18G 2G16G15
  18939397.2414  -11976293.98547  -9244773.80664
  19851387.319    -5038849.426 6  -3882646.30023
  22038483.679     3560434.679 5   2766666.46921
  19988006.6084  -13415862.96647 -10354139.63863
  22924816.9994   -3968028.71344  -1368677.35361
  23663122.9444         -0.49951
 93  5 21 17 55 59.9950000  0  5G27G19G18G 2G16
  18931393.1944  -12018360.03647  -9277552.54364
  19848896.2494   -5051956.01846  -3892859.22663
  22042719.788     3582680.810 6   2784001.05921
  19978907.5464  -13463674.35347 -10391395.26063
  22923140.835    -3976850.084 4  -1375551.15921
 93  5 21 17 56 14.9950000  0  5G27G19G18G 2G16
  18923404.0774  -12060348.38347  -9310270.73464
  19846416.2964   -5064992.07046  -3903017.20063
  22046961.9054    3604965.11445   2801365.39961
  19969818.952   -13511426.447 7 -10428604.67123
  22921480.108    -3985591.408 4  -1382362.65221
 93  5 21 17 56 29.9950000  0  5G27G19G18G 2G16
  18915426.6404  -12102259.03247  -9342928.38264
  19843946.718    -5077961.529 6  -3913123.28423
  22051208.5694    3627287.41646   2818759.33061
  19960743.5234  -13559121.48347 -10465769.62563
  22919831.7574   -3994252.09844  -1389111.27161
 93  5 21 17 56 44.9950000  0  5G27G19G18G 2G16
  18907466.0624  -12144091.84647  -9375525.37764
  19841489.335    -5090869.709 6  -3923181.61723
  22055462.8664    3649646.31345   2836181.79161
  19951679.1794  -13606762.90547 -10502892.80163
  22918197.9524   -4002833.23943  -1395797.87561
 93  5 21 17 56 59.9950000  0  5G27G19G18G 2G16
  18899520.2964  -12185847.13547  -9408061.97064
  19839043.663    -5103716.277 6  -3933191.93123
  22059729.1714    3672039.91546   2853631.29361
  19942622.6634  -13654353.68447 -10539976.52663
  22916577.163    -4011339.266 3  -1402425.98621
 93  5 21 17 57 14.9950000  0  5G27G19G18G 2G16
  18891593.3824  -12227521.91047  -9440535.81664
  19836614.5464   -5116496.17846  -3943150.30763
  22063992.155     3694467.534 5   2871107.30221
  19933573.7804  -13701888.62447 -10577016.73863
  22914978.132    -4019764.788 4  -1408991.36721
 93  5 21 17 57 29.9950000  0  6G27G19G18G 2G16G15
  18883677.5624  -12269111.00747  -9472942.90964
  19834194.8824   -5129203.93746  -3953052.47163
  22068267.858     3716930.982 5   2888611.21221
  19924539.1484  -13749362.99947 -10614009.74563
  22913388.2184   -4028105.96044  -1415491.04961
  23577990.5544         -0.54952
 93  5 21 17 57 44.9950000  0  6G27G19G18G 2G16G15
  18875777.9764  -12310619.67647  -9505287.32264
  19831788.726    -5141842.100 6  -3962900.39623
  22072543.4764    3739426.20845   2906139.89561
  19915519.0384  -13796778.88547 -10650957.18363
  22911819.2964   -4036367.69644  -1421928.74461
  23565859.5304     -63743.84542
 93  5 21 17 57 59.9950000  0  6G27G19G18G 2G16G15
  18867892.5624  -12352050.08147  -9537570.76364
  19829398.030    -5154408.216 6  -3972692.19123
  22076830.5074    3761953.72645   2923693.76261
  19906509.6634  -13844133.59547 -10687856.94963
  22910261.9764   -4044547.86544  -1428302.91161
  23553736.241     -127446.279 2
 93  5 21 17 58 14.9950000  0  6G27G19G18G 2G16G15
  18860025.5694  -12393402.13647  -9569793.14064
  19827025.015    -5166899.101 6  -3982425.36523
  22081126.929     3784517.342 5   2941275.73021
  19897510.3584  -13891420.60547 -10724703.96363
  22908719.179    -4052643.352 4  -1434611.15121
  23541616.366     -191105.901 1
 93  5 21 17 58 29.9950000  0  5G27G19G18G 2G16
  18852171.9444  -12434671.65947  -9601951.21564
  19824663.5154   -5179313.57446  -3992098.98563
  22085432.616     3807118.927 5   2958887.29721
  19888524.0074  -13938636.89847 -10761495.87763
  22907195.0774   -4060652.61744  -1440852.13261
 93  5 21 17 58 44.9950000  0  5G27G19G18G 2G16
  18844334.1944  -12475860.76747  -9634046.62064
  19822313.0384   -5191654.19246  -4001715.06563
  22089738.866     3829753.502 5   2976524.56521
  19879551.5154  -13985784.23247 -10798234.05163
  22905688.983    -4068579.176 4  -1447028.70821
 93  5 21 17 58 59.9950000  0  5G27G19G18G 2G16
  18836513.6484  -12516964.73047  -9666075.68064
  19819978.9374   -5203911.22546  -4011266.00163
  22094053.5074    3852425.21945   2994190.77661
  19870592.1484  -14032854.91547 -10834912.49963
  22904195.140    -4076421.771 4  -1453139.85421
 93  5 21 17 59 14.9950000  0  5G27G19G18G 2G16
  18828706.2024  -12557983.45947  -9698038.32964
  19817662.5774   -5216085.22846  -4020752.24363
  22098371.460     3875132.925 5   3011885.01721
  19861650.8434  -14079846.81847 -10871529.55663
  22902715.7734   -4084182.15044  -1459186.88761
 93  5 21 17 59 29.9950000  0  5G27G19G18G 2G16
  18820917.6014  -12598917.99047  -9729935.36464
  19815361.108    -5228180.395 6  -4030177.05923
  22102693.062     3897873.624 5   3029604.96721
  19852723.3124  -14126763.01447 -10908087.62963
  22901259.280    -4091866.369 4  -1465174.63821
 93  5 21 17 59 44.9950000  0  5G27G19G18G 2G16
  18813141.6484  -12639768.45847  -9761766.89264
  19813075.265    -5240196.971 6  -4039540.63623
  22107031.4684    3920648.79745   3047351.81061
  19843812.0694  -14173604.12047 -10944587.19664
  22899806.085    -4099474.995 3  -1471103.50721
 93  5 21 17 59 59.9950000  0  5G27G19G18G 2G16
  18805384.2264  -12680534.82547  -9793532.89264
  19810799.8584   -5252137.17646  -4048844.69863
  22111372.194     3943458.466 5   3065125.49921
  19834911.3194  -14220372.63547 -10981030.18863
  22898370.4684   -4107009.26643  -1476974.38861
 93  5 21 18  0 14.9950000  0  5G27G19G18G 2G16
  18797643.4134  -12721215.89747  -9825232.43564
  19808543.7884   -5264004.65146  -4058092.08663
  22115724.5384    3966302.04245   3082925.64561
  19826027.421   -14267070.109 7 -11017417.82023
  22896959.2574   -4114468.60243  -1482786.86361
 93  5 21 18  0 29.9950000  0  5G27G19G18G 2G16
  18789918.0544  -12761808.37747  -9856862.94464
  19806300.6714   -5275799.97546  -4067283.25763
  22120075.8584    3989182.01345   3100754.09961
  19817155.8274  -14313696.73847 -11053750.24463
  22895554.3514   -4121852.51442  -1488540.56861
 93  5 21 18  0 44.9950000  0  5G27G19G18G 2G16
  18782208.1634  -12802316.35147  -9888427.59864
  19804071.148    -5287529.596 6  -4076423.23923
  22124434.546     4012094.668 5   3118608.03321
  19808292.3664  -14360259.62447 -11090033.01263
  22894150.5854   -4129164.38143  -1494238.19861
 93  5 21 18  0 59.9950000  0  5G27G19G18G 2G16
  18774517.4834  -12842739.59247  -9919926.21664
  19801846.757    -5299192.483 6  -4085511.22123
  22128803.077     4035041.178 5   3136488.35321
  19799445.6084  -14406757.58347 -11126265.18563
  22892778.6944   -4136402.40743  -1499878.24861
 93  5 21 18  1 14.9950000  0  5G27G19G18G 2G16
  18766844.0384  -12883074.69547  -9951356.16964
  19799641.241    -5310789.258 6  -4094547.67723
  22133168.593     4058024.270 5   3154397.19121
  19790608.3124  -14453193.86347 -11162449.28963
  22891424.9604   -4143565.04143  -1505459.56561
 93  5 21 18  1 29.9950000  0  5G27G19G18G 2G16
  18759186.2804  -12923322.99447  -9982718.47964
  19797444.273    -5322324.382 6  -4103536.09823
  22137556.9294    4081039.67245   3172331.20261
  19781781.4054  -14499575.79847 -11198591.04663
  22890065.8044   -4150653.49042  -1510983.05961
 93  5 21 18  1 44.9950000  0  6G27G19G18G 2G16G15
  18751541.2884  -12963487.55547 -10014015.54464
  19795264.2184   -5333796.94946  -4112475.76463
  22141936.905     4104086.567 5   3190289.71721
  19772964.5464  -14545908.09547 -11234694.13663
  22888725.140    -4157667.121 1
  23372910.515          -0.64513
 93  5 21 18  1 59.9950000  0  5G27G19G18G 2G15
  18743913.7104  -13003568.57947 -10045247.50664
  19793089.757    -5345204.866 6  -4121365.06123
  22146332.5074    4127170.85045   3208277.40761
  19764158.7884  -14592189.25947 -11270757.37863
  23360930.585      -62975.743 3
 93  5 21 18  2 14.9950000  0  5G27G19G18G 2G15
  18736301.1554  -13043567.26747 -10076415.31564
  19790936.694    -5356548.034 6  -4130203.91323
  22150734.5934    4150292.96745   3226294.58361
  19755361.0624  -14638416.78647 -11306778.82563
  23348954.483     -125901.363 3
 93  5 21 18  2 29.9950000  0  5G27G19G18G 2G15
  18728704.8434  -13083487.07747 -10107521.66264
  19788785.429    -5367824.749 6  -4138990.98123
  22155139.7104    4173450.74245   3244339.52461
  19746574.4684  -14684591.28347 -11342758.94563
  23336992.023     -188778.908 3
 93  5 21 18  2 44.9940000  0  5G27G19G18G 2G15
  18721123.5104  -13123323.83347 -10138563.29064
  19786657.291    -5379027.570 6  -4147720.46923
  22159553.400     4196643.157 5   3262411.45121
  19737799.2914  -14730706.64247 -11378692.98363
  23325035.3694    -251602.09243        -0.26271
 93  5 21 18  2 59.9940000  0  5G27G19G18G 2G15
  18713556.0654  -13163085.56447 -10169546.45664
  19784540.627    -5390154.980 6  -4156391.18823
  22163974.4004    4219868.10945   3280508.75761
  19729033.9244  -14776767.18947 -11414584.32063
  23313092.557     -314380.269 4    -48918.23721
 93  5 21 18  3 14.9940000  0  5G27G19G18G 2G15
  18706004.8854  -13202767.52747 -10200467.46764
  19782438.096    -5401203.006 6  -4165000.05323
  22168398.9084    4243122.64345   3298629.09861
  19720279.4794  -14822769.35347 -11450430.14963
  23301149.432     -377107.615 3    -97796.56021
 93  5 21 18  3 29.9940000  0  6G27G19G18G 2G16G15
  18698471.3544  -13242369.01147 -10231325.76264
  19780352.205    -5412171.563 6  -4173547.00023
  22172828.744     4266403.641 5   3316770.05621
  19711535.7524  -14868712.69147 -11486230.14963
  22879818.744          -0.59513
  23289221.705     -439784.334 3   -146635.44221
 93  5 21 18  3 44.9940000  0  6G27G19G18G 2G16G15
  18690951.4864  -13281892.38347 -10262123.19964
  19778279.072    -5423056.395 6  -4182028.70023
  22177267.518     4289712.083 5   3334932.40421
  19702805.8934  -14914591.49747 -11521979.86763
  22878603.315       -6388.929 3
  23277306.6114    -502408.37444   -195433.26661
 93  5 21 18  3 59.9940000  0  6G27G19G18G 2G16G15
  18683444.1584  -13321341.10547 -10292862.46464
  19776220.635    -5433858.541 6  -4190445.96923
  22181706.002     4313046.771 5   3353115.19521
  19694087.783   -14960403.772 7 -11557677.72723
  22877404.8464     -12704.49342        -0.46771
  23265399.1194    -564981.98443   -244191.82761
 93  5 21 18  4 14.9940000  0  6G27G19G18G 2G16G15
  18675952.5104  -13360709.08447 -10323538.81264
  19774184.580    -5444574.329 6  -4198795.95623
  22186149.8224    4336410.81645   3371320.87261
  19685383.8934  -15006144.10347 -11593319.53763
  22876207.799      -18948.118 2     -4865.69221
  23253507.4244    -627500.94743   -292907.79361
 93  5 21 18  4 29.9940000  0  6G27G19G18G 2G16G15
  18668475.8854  -13399995.38547 -10354151.50864
  19772162.236    -5455206.210 6  -4207080.55023
  22190600.8854    4359796.59145   3389543.46861
  19676693.3224  -15051816.72347 -11628908.59963
  22875036.791      -25127.338 2     -9680.66921
  23241614.3854    -689968.05443   -341583.38761
 93  5 21 18  4 44.9940000  0  6G27G19G18G 2G16G15
  18661016.8774  -13439195.40247 -10384696.98064
  19770154.619    -5465752.490 6  -4215298.44723
  22195057.330     4383204.668 5   3407783.44021
  19668014.002   -15097423.556 7 -11664446.37923
  22873874.7604     -31242.72441    -14445.91661
  23229738.5184    -752381.95744   -390217.49961
 93  5 21 18  4 59.9940000  0  5G27G19G18G 2G15
  18653574.7134  -13478306.26547 -10415172.97764
  19768163.713    -5476217.355 6  -4223452.89723
  22199517.432     4406635.426 5   3426041.08421
  19659347.9554  -15142962.84247 -11699931.53263
  23217877.1434    -814741.43244   -438809.22961
 93  5 21 18  5 14.9940000  0  6G27G19G18G 2G16G15
  18646149.6974  -13517325.64347 -10445577.68564
  19766187.4794   -5486606.19046  -4231548.10563
  22203976.9324    4430088.71945   3444316.29461
  19650693.3464  -15188438.43847 -11735367.05263
  22871592.2134         -0.06652
  23206013.3154    -877047.02444   -487358.90561
 93  5 21 18  5 29.9940000  0  6G27G19G18G 2G16G15
  18638743.8224  -13556253.19847 -10475910.84264
  19764221.057    -5496923.410 6  -4239587.51823
  22208446.330     4453567.080 5   3462611.03521
  19642051.8544  -15233850.43447 -11770753.01163
  22870463.2054      -5905.34442
  23194168.361     -939298.822 3   -535866.71221
 93  5 21 18  5 44.9940000  0  6G27G19G18G 2G16G15
  18631350.0884  -13595090.79147 -10506173.90764
  19762274.2994   -5507167.93046  -4247570.27463
  22212920.3074    4477070.68445   3480925.45961
  19633424.6044  -15279196.11147 -11806087.30063
  22869347.6744     -11739.24642
  23182334.3224   -1001495.88445   -584331.89461
 93  5 21 18  5 59.9940000  0  6G27G19G18G 2G16G15
  18623975.4634  -13633835.78647 -10536364.81164
  19760337.565    -5517338.013 6  -4255495.02323
  22217397.9404    4500604.58445   3499263.46361
  19624809.3614  -15324471.23047 -11841366.60363
  22868247.5254     -17499.36942
  23170506.807    -1063635.456 5   -632752.28121
 93  5 21 18  6 14.9940000  0  6G27G19G18G 2G16G15
  18616623.6354  -13672487.50147 -10566483.03264
  19758415.9944   -5527439.39646  -4263366.24563
  22221879.471     4524165.958 5   3517622.90221
  19616202.8694  -15369679.15847 -11876593.55464
  22867171.8544     -23186.80042
  23158695.307    -1125719.004 5   -681128.96421
 93  5 21 18  6 29.9940000  0  6G27G19G18G 2G16G15
  18609287.8854  -13711046.50347 -10596529.00864
  19756502.729    -5537475.952 6  -4271186.94323
  22226357.9634    4547748.61944   3535998.92561
  19607613.9084  -15414823.99047 -11911771.34664
  22866098.7754     -28801.43541
  23146890.330    -1187747.550 5   -729462.81121
 93  5 21 18  6 44.9940000  0  6G27G19G18G 2G16G15
  18601963.8774  -13749511.90547 -10626502.05264
  19754608.588    -5547445.813 6  -4278955.68923
  22230855.877     4571354.602 5   3554393.11321
  19599037.6744  -15459901.69747 -11946896.82864
  22865044.4324     -34336.17541
  23135099.408    -1249717.562 5   -777751.01021
 93  5 21 18  6 59.9940000  0  6G27G19G18G 2G16G15
  18594661.1114  -13787889.99347 -10656407.06264
  19752721.5254   -5557353.43546  -4286675.91963
  22235362.2134    4594981.11945   3572803.30661
  19590472.7994  -15504915.53047 -11981972.54163
  22864012.5024     -39793.86942
  23123312.0884   -1311631.98745   -825995.95361
 93  5 21 18  7 14.9940000  0  6G27G19G18G 2G16G15
  18587377.2524  -13826182.39547 -10686245.29564
  19750852.205    -5567199.125 6  -4294347.90423
  22239861.7364    4618628.70645   3591229.90861
  19581916.6744  -15549866.94047 -12016999.60963
  22862983.1434     -45176.73541
  23111548.1584   -1373491.58745   -874198.14561
 93  5 21 18  7 29.9940000  0  5G27G19G18G 2G15
  18580104.5024  -13864390.36747 -10716017.73964
  19748988.283    -5576977.862 6  -4301967.71423
  22244359.8694    4642297.06745   3609672.70361
  19573376.799   -15594755.391 7 -12051977.61123
  23099783.0804   -1435294.52245   -922356.25861
 93  5 21 18  7 44.9940000  0  5G27G19G18G 2G15
  18572847.2294  -13902517.93147 -10745727.53064
  19747140.1114   -5586685.76946  -4309532.32163
  22248868.2684    4665984.65945   3628130.47161
  19564845.9944  -15639580.40947 -12086906.19163
  23088033.697    -1497040.821 5   -970470.15721
 93  5 21 18  7 59.9940000  0  5G27G19G18G 2G15
  18565610.3224  -13940562.64447 -10775372.76664
  19745304.604    -5596319.488 6  -4317039.13123
  22253377.135     4689693.020 5   3646604.42121
  19556324.8304  -15684344.77547 -12121787.51763
  23076294.2444   -1558728.88945  -1018538.72061
 93  5 21 18  8 14.9940000  0  5G27G19G18G 2G15
  18558386.0574  -13978518.91347 -10804949.08364
  19743489.377    -5605876.651 6  -4324486.28523
  22257898.8464    4713426.66845   3665098.08561
  19547823.4714  -15729049.89547 -12156622.67264
  23064568.3224   -1620354.98045  -1066558.94861
 93  5 21 18  8 29.9940000  0  5G27G19G18G 2G15
  18551181.0574  -14016388.68347 -10834457.99964
  19741685.463    -5615359.008 6  -4331875.15623
  22262421.315     4737182.432 5   3683608.98521
  19539320.2364  -15773702.46347 -12191416.87064
  23052854.533    -1681921.528 5  -1114532.80221
 93  5 21 18  8 44.9940000  0  5G27G19G18G 2G15
  18543992.6664  -14054170.62947 -10863898.47764
  19739895.705    -5624765.374 6  -4339204.80423
  22266942.455     4760963.484 5   3702139.56321
  19530836.1274  -15818301.32447 -12226169.23164
  23041149.721    -1743427.320 5  -1162459.33921
 93  5 21 18  8 59.9940000  0  5G27G19G18G 2G15
  18536817.2364  -14091865.82647 -10893271.36664
  19738119.3544   -5634092.30046  -4346472.55463
  22271472.2134    4784774.02145   3720693.13361
  19522357.8854  -15862846.33947 -12260879.63564
  23029457.8384   -1804871.46745  -1210337.81861
 93  5 21 18  9 14.9940000  0  5G27G19G18G 2G15
  18529662.5024  -14129471.91047 -10922574.81064
  19736360.604    -5643336.892 6  -4353676.14223
  22276008.596     4808615.689 5   3739270.97421
  19513892.8694  -15907335.42147 -12295546.45664
  23017773.6114   -1866253.17044  -1258167.65761
 93  5 21 18  9 29.9940000  0  5G27G19G18G 2G15
  18522520.5574  -14166991.91147 -10951811.17764
  19734616.322    -5652501.283 6  -4360817.24023
  22280555.885     4832482.406 5   3757868.31021
  19505437.3304  -15951770.71447 -12330171.34964
  23006106.549    -1927576.373 4  -1305951.88321
 93  5 21 18  9 44.9940000  0  5G27G19G18G 2G15
  18515400.4944  -14204424.96947 -10980979.79064
  19732886.416    -5661582.810 6  -4367893.77823
  22285097.5024    4856376.28945   3776486.84961
  19496991.0804  -15996148.03647 -12364751.07564
  22994452.9864   -1988839.48344  -1353689.32261
 93  5 21 18  9 59.9940000  0  5G27G19G18G 2G15
  18508293.1504  -14241764.67447 -11010075.66564
  19731172.861    -5670582.623 6  -4374906.63223
  22289646.2294    4880301.69245   3795129.91561
  19488559.9324  -16040466.21247 -12399284.71464
  22982797.5414   -2050040.13644  -1401378.04661
 93  5 21 18 10 14.9940000  0  5G27G19G18G 2G15
  18501205.1974  -14279012.53347 -11039099.97564
  19729478.4864   -5679506.78246  -4381860.52463
  22294208.9474    4904255.20445   3813794.90661
  19480136.1434  -16084725.96347 -12433772.82363
  22971165.5574   -2111180.37944  -1449019.75661
 93  5 21 18 10 29.9940000  0  5G27G19G18G 2G15
  18494136.7134  -14316169.10747 -11068053.14964
  19727791.6354   -5688358.03746  -4388757.61963
  22298773.6974    4928232.84145   3832478.71061
  19471726.3304  -16128924.60347 -12468213.32064
  22959544.713    -2172261.146 4  -1496615.08721
 93  5 21 18 10 44.9940000  0  5G27G19G18G 2G15
  18487079.8464  -14353232.22247 -11096933.50264
  19726125.8614   -5697132.91846  -4395595.20163
  22303337.2754    4952234.59445   3851181.25961
  19463330.2294  -16173054.42647 -12502600.19464
  22947934.7834   -2233278.89645  -1544161.30961
 93  5 21 18 10 59.9940000  0  5G27G19G18G 2G15
  18480047.8074  -14390204.85547 -11125743.34264
  19724475.1044   -5705829.03246  -4402371.40163
  22307914.9634    4976258.58445   3869901.16561
  19454943.8384  -16217113.07247 -12536931.59764
  22936334.0724   -2294233.71844  -1591658.50861
 93  5 21 18 11 14.9940000  0  5G27G19G18G 2G15
  18473029.2294  -14427085.37147 -11154481.41264
  19722830.900    -5714445.971 6  -4409085.91723
  22312490.479     5000303.169 5   3888637.08521
  19446573.6664  -16261100.72847 -12571207.69464
  22924743.9164   -2355126.10344  -1639107.04361
 93  5 21 18 11 29.9940000  0  5G27G19G18G 2G15
  18466028.0254  -14463869.86547 -11183144.65263
  19721200.268    -5722985.723 6  -4415740.29123
  22317065.6904    5024366.54745   3907387.67361
  19438216.5184  -16305016.10047 -12605427.45864
  22913171.4474   -2415954.57144  -1686505.76361
 93  5 21 18 11 44.9940000  0  5G27G19G18G 2G15
  18459046.7684  -14500559.74847 -11211734.17864
  19719595.3614   -5731450.08046  -4422335.89463
  22321653.0884    5048448.49745   3926152.73561
  19429870.4554  -16348863.18747 -12639594.01864
  22901614.0494   -2476718.14944  -1733853.97861
 93  5 21 18 11 59.9940000  0  5G27G19G18G 2G15
  18452079.8694  -14537157.59747 -11240251.98864
  19717993.455    -5739844.347 6  -4428876.90223
  22326239.799     5072546.324 5   3944930.18221
  19421543.1114  -16392648.29347 -12673712.28164
  22890056.0884   -2537418.12944  -1781152.59761
 93  5 21 18 12 14.9940000  0  5G27G19G18G 2G15
  18445135.9324  -14573658.26647 -11268694.05764
  19716414.5574   -5748166.68446  -4435361.85063
  22330827.666     5096661.053 5   3963720.78321
  19413221.6904  -16436370.21247 -12707781.30864
  22878519.3934   -2598050.54944  -1828398.60361
 93  5 21 18 12 29.9940000  0  5G27G19G18G 2G15
  18438210.6504  -14610062.77347 -11297061.20264
  19714840.9164   -5756413.73046  -4441788.13063
  22335419.3074    5120790.96645   3982523.20361
  19404910.3154  -16480027.07447 -12741799.63964
  22866999.4794   -2658615.21344  -1875591.80361
 93  5 21 18 12 44.9940000  0  5G27G19G18G 2G15
  18431298.8224  -14646374.42847 -11325355.99764
  19713288.275    -5764587.522 6  -4448157.33223
  22340008.971     5144934.346 5   4001336.12921
  19396618.4944  -16523624.85447 -12775771.92664
  22855485.908    -2719114.957 4  -1922734.38821
 93  5 21 18 12 59.9940000  0  5G27G19G18G 2G15
  18424405.7604  -14682591.65747 -11353577.20264
  19711746.9794   -5772684.25546  -4454466.49463
  22344615.041     5169094.785 5   4020162.34021
  19388331.7444  -16567164.08147 -12809698.58864
  22843984.072    -2779547.687 4  -1969824.78421
 93  5 21 18 13 14.9940000  0  5G27G19G18G 2G15
  18417532.4794  -14718713.64447 -11381724.21563
  19710223.2834   -5780706.73446  -4460717.78863
  22349205.033     5193272.800 5   4039002.25521
  19380057.8464  -16610649.33147 -12843583.20264
  22832493.7294   -2839913.86644  -2016863.30661
 93  5 21 18 13 29.9940000  0  5G27G19G18G 2G15
  18410678.940   -14754735.918 7 -11409793.52524
  19708705.768    -5788654.517 6  -4466910.87523
  22353812.3854    5217472.26445   4057858.87061
  19371790.2364  -16654078.80247 -12877424.34264
  22821020.2054   -2900209.42944  -2063846.83761
 93  5 21 18 13 44.9940000  0  5G27G19G18G 2G15
  18403841.4084  -14790666.52747 -11437791.40364
  19707209.986    -5796530.127 6  -4473047.73523
  22358424.9324    5241689.55345   4076729.38261
  19363537.2214  -16697455.98347 -12911224.74564
  22809561.182    -2960437.451 5  -2110777.74321
 93  5 21 18 13 59.9940000  0  5G27G19G18G 2G15
  18397019.7214  -14826508.24847 -11465720.00664
  19705721.963    -5804334.634 6  -4479129.18423
  22363029.940     5265923.214 4   4095612.65521
  19355292.2364  -16740781.71947 -12944985.05664
  22798114.049    -3020600.166 5  -2157657.68721
 93  5 21 18 14 14.9940000  0  5G27G19G18G 2G15
  18390216.7214  -14862256.12447 -11493575.49964
  19704254.7054   -5812062.92646  -4485151.23663
  22367647.486     5290178.497 4   4114512.76521
  19347062.7754  -16784047.98047 -12978699.02264
  22786673.096    -3080693.509 5  -2204483.64221
 93  5 21 18 14 29.9940000  0  5G27G19G18G 2G15
  18383431.2054  -14897910.93147 -11521358.47364
  19702794.791    -5819712.022 6  -4491111.58423
  22372263.205     5314457.230 4   4133431.16121
  19338839.8154  -16827249.75247 -13012362.73664
  22775251.682    -3140717.156 5  -2251255.28221
 93  5 21 18 14 44.9940000  0  5G27G19G18G 2G15
  18376663.8074  -14933475.92547 -11549071.45364
  19701360.6434   -5827281.43546  -4497009.83763
  22376887.994     5338757.158 4   4152366.07821
  19330631.2994  -16870388.46047 -13045977.31664
  22763846.440    -3200671.375 5  -2297972.81021
 93  5 21 18 14 59.9940000  0  5G27G19G18G 2G15
  18369912.4404  -14968949.57247 -11576713.25564
  19699928.8464   -5834769.70246  -4502844.86263
  22381518.666     5363078.253 5   4171317.49121
  19322434.7754  -16913462.93347 -13079541.84064
  22752448.924    -3260553.066 5  -2344633.81921
 93  5 21 18 15 14.9930000  0  5G27G19G18G 2G15
  18363180.2084  -15004332.86047 -11604284.64264
  19698524.5524   -5842180.57946  -4508619.57663
  22386150.130     5387413.562 5   4190279.98721
  19314249.7394  -16956472.11647 -13113055.49164
  22741070.8174   -3320362.07045  -2391238.21461
 93  5 21 18 15 29.9930000  0  5G27G19G18G 2G15
  18356463.7084  -15039630.99747 -11631789.68564
  19697124.427    -5849514.758 6  -4514334.53823
  22390784.7784    5411766.84845   4209256.45861
  19306076.1854  -16999420.11647 -13146521.45864
  22729698.857    -3380104.757 5  -2437790.90821
 93  5 21 18 15 44.9930000  0  5G27G19G18G 2G15
  18349764.5054  -15074845.58647 -11659229.62264
  19695747.513    -5856772.746 6  -4519990.12923
  22395426.864     5436132.425 5   4228242.50421
  19297917.1224  -17042304.32547 -13179937.73464
  22718342.005    -3439779.578 5  -2484290.72921
 93  5 21 18 15 59.9930000  0  5G27G19G18G 2G15
  18343080.6384  -15109965.62947 -11686595.89764
  19694380.099    -5863943.887 6  -4525578.04223
  22400064.3884    5460516.71145   4247243.12161
  19289768.6464  -17085116.65047 -13213297.98264
  22707001.0524   -3499377.72745  -2530730.81561
 93  5 21 18 16 14.9930000  0  5G27G19G18G 2G15
  18336412.9114  -15144992.84447 -11713889.83564
  19693032.5994   -5871034.61346  -4531103.29663
  22404706.6464    5484914.47544   4266254.25861
  19281636.3494  -17127863.32547 -13246607.06464
  22695679.114    -3558903.532 5  -2577114.48721
 93  5 21 18 16 29.9930000  0  5G27G19G18G 2G15
  18329766.9824  -15179923.88447 -11741108.82764
  19691695.9504   -5878042.56546  -4536564.05763
  22409348.8174    5509328.33844   4285277.92961
  19273514.0754  -17170544.53947 -13279865.15764
  22684359.4894   -3618354.16645  -2623439.65761
 93  5 21 18 16 44.9930000  0  5G27G19G18G 2G15
  18323134.9974  -15214763.88447 -11768256.88464
  19690377.911    -5884974.949 6  -4541965.92523
  22413996.2554    5533750.11644   4304307.80161
  19265401.5364  -17213169.60747 -13313079.49264
  22673058.3414   -3677735.11845  -2669710.49161
 93  5 21 18 16 59.9930000  0  5G27G19G18G 2G15
  18316525.2714  -15249508.55247 -11795330.65564
  19689074.185    -5891830.154 6  -4547307.65023
  22418650.052     5558182.795 4   4323346.14321
  19257301.3964  -17255737.32347 -13346249.13964
  22661777.302    -3737042.921 5  -2715924.32221
 93  5 21 18 17 14.9930000  0  5G27G19G18G 2G15
  18309932.1774  -15284155.26747 -11822328.09964
  19687786.567    -5898610.192 6  -4552590.82523
  22423303.349     5582631.011 5   4342396.57421
  19249211.6464  -17298246.33347 -13379373.03164
  22650503.0674   -3796276.45045  -2762080.27261
 93  5 21 18 17 29.9930000  0  5G27G19G18G 2G15
  18303356.6224  -15318705.64747 -11849250.47064
  19686507.005    -5905317.292 6  -4557817.15523
  22427957.919     5607093.449 5   4361458.12421
  19241131.2944  -17340700.48347 -13412454.18864
  22639244.4894   -3855438.28245  -2808180.37361
 93  5 21 18 17 44.9930000  0  5G27G19G18G 2G15
  18296802.6694  -15353159.63647 -11876097.73964
  19685245.8804   -5911951.56046  -4562986.72663
  22432625.677     5631569.999 5   4380530.65021
  19233064.3254  -17383100.44747 -13445493.11564
  22628000.0444   -3914527.30245  -2854223.73161
 93  5 21 18 17 59.9930000  0  5G27G19G18G 2G15
  18290266.0994  -15387514.30747 -11902867.61564
  19683996.692    -5918511.703 6  -4568098.54023
  22437276.036     5656060.491 5   4399614.01421
  19225004.1694  -17425446.54347 -13478490.06764
  22616772.6074   -3973542.31245  -2900209.43161
 93  5 21 18 18 14.9930000  0  5G27G19G18G 2G15
  18283745.9034  -15421768.13047 -11929558.90364
  19682765.302    -5924998.951 6  -4573153.55823
  22441943.6224    5680567.12045   4418710.00561
  19216958.5284  -17467739.31447 -13511445.46764
  22605558.200    -4032481.829 5  -2946136.27821
 93  5 21 18 18 29.9930000  0  5G27G19G18G 2G15
  18277245.0834  -15455921.41247 -11956171.85664
  19681540.950    -5931414.761 6  -4578152.90323
  22446606.8414    5705090.64945   4437819.10561
  19208921.3804  -17509975.67747 -13544356.91864
  22594348.200    -4091344.720 5  -2992003.43021
 93  5 21 18 18 44.9930000  0  5G27G19G18G 2G15
  18270766.4744  -15489979.47447 -11982710.61064
  19680334.817    -5937760.991 6  -4583098.04323
  22451276.6304    5729625.11245   4456936.75761
  19200892.8724  -17552156.53247 -13577225.11864
  22583166.6694   -4150133.45645  -3037812.82661
 93  5 21 18 18 59.9930000  0  5G27G19G18G 2G15
  18264301.7714  -15523947.34647 -12009179.08364
  19679140.122    -5944037.667 6  -4587988.97723
  22455942.958     5754166.318 5   4476059.66021
  19192878.1224  -17594281.00647 -13610049.38064
  22571994.4194   -4208848.58945  -3083564.82461
 93  5 21 18 19 14.9930000  0  5G27G19G18G 2G15
  18257854.4584  -15557820.98747 -12035574.12764
  19677956.8024   -5950241.83246  -4592823.40563
  22460623.6614    5778717.42645   4495190.28061
  19184875.1144  -17636345.89047 -13642827.20864
  22560837.552    -4267486.647 5  -3129256.77821
 93  5 21 18 19 29.9930000  0  5G27G19G18G 2G15
  18251428.9274  -15591597.50947 -12061893.49564
  19676793.263    -5956372.177 6  -4597600.31423
  22465292.552     5803276.427 5   4514327.03721
  19176881.1694  -17678349.89747 -13675557.59764
  22549690.724    -4326046.700 5  -3174887.91421
 93  5 21 18 19 44.9930000  0  5G27G19G18G 2G15
  18245019.4274  -15625280.30947 -12088139.83864
  19675640.302    -5962431.287 6  -4602321.71923
  22469966.669     5827836.479 5   4533464.60821
  19168896.7394  -17720294.45547 -13708241.66464
  22538561.8024   -4384530.95845  -3220460.03161
 93  5 21 18 19 59.9930000  0  5G27G19G18G 2G15
  18238625.2164  -15658868.80547 -12114312.70264
  19674502.028    -5968417.602 6  -4606986.40723
  22474640.122     5852398.472 5   4552603.70221
  19160930.1534  -17762176.06147 -13740876.68464
  22527446.810    -4442938.429 5  -3265972.27221
 93  5 21 18 20 14.9930000  0  5G27G19G18G 2G15
  18232255.6694  -15692360.42547 -12140410.06264
  19673375.700    -5974329.045 6  -4611592.74323
  22479316.5994    5876963.29244   4571744.99761
  19152970.3414  -17803990.13647 -13773459.08264
  22516348.372    -4501267.591 5  -3311423.52021
 93  5 21 18 20 29.9930000  0  5G27G19G18G 2G15
  18225898.5364  -15725753.30847 -12166430.49264
  19672261.575    -5980164.326 6  -4616139.73523
  22483984.302     5901531.341 4   4590888.79221
  19145028.5524  -17845733.94947 -13805986.72564
  22505258.911    -4559518.458 5  -3356813.75721
 93  5 21 18 20 44.9930000  0  5G27G19G18G 2G15
  18219565.2394  -15759047.46647 -12192373.99563
  19671169.232    -5985920.505 6  -4620625.08923
  22488661.7474    5926103.10343   4610035.51661
  19137097.8104  -17887407.18247 -13838459.36964
  22494191.0914   -4617691.03245  -3402142.97761
 93  5 21 18 20 59.9930000  0  5G27G19G18G 2G15
  18213248.1534  -15792239.34547 -12218237.80563
  19670087.9424   -5991596.65546  -4625048.09063
  22493341.5524    5950682.68043   4629188.30961
  19129181.1614  -17929011.17747 -13870878.06664
  22483140.1854   -4675783.99445  -3447410.17061
 93  5 21 18 21 14.9930000  0  6G27G19G18G 2G15G26
  18206952.9664  -15825323.60647 -12244017.75164
  19669027.896    -5997190.648 6  -4629407.06823
  22498020.7944    5975274.70843   4648350.79061
  19121277.4824  -17970546.12347 -13903242.96064
  22472101.2004   -4733796.51545  -3492614.65861
  22370014.4504         -0.18352
 93  5 21 18 21 29.9930000  0  6G27G19G18G 2G15G26
  18200676.8254  -15858300.85747 -12269714.31163
  19667977.317    -6002705.726 6  -4633704.54923
  22502696.341     5999878.828 3   4667522.70721
  19113387.6534  -18012014.97047 -13935556.35364
  22461075.7004   -4791731.16745  -3537758.47661
  22355917.3024     -74098.37343
 93  5 21 18 21 44.9930000  0  6G27G19G18G 2G15G26
  18194421.7944  -15891172.94247 -12295328.92464
  19666941.122    -6008137.109 6  -4637936.81423
  22507385.364     6024497.478 3   4686705.93921
  19105507.9744  -18053414.99948 -13967816.10964
  22450065.0604   -4849585.60745  -3582839.76761
  22341829.8494    -148125.56643
 93  5 21 18 21 59.9930000  0  6G27G19G18G 2G15G26
  18188184.5134  -15923942.03847 -12320863.29063
  19665923.982    -6013482.836 6  -4642102.33823
  22512070.5674    6049132.99444   4705902.29661
  19097642.7244  -18094747.83048 -14000023.50664
  22439066.489    -4907359.403 4  -3627858.23621
  22327753.7944    -222081.40343
 93  5 21 18 22 14.9930000  0  6G27G19G18G 2G15G26
  18181970.9424  -15956608.57847 -12346317.73163
  19664928.567    -6018744.108 6  -4646202.05223
  22516766.466     6073786.058 4   4725112.32921
  19089788.4274  -18136015.61848 -14032180.22364
  22428085.935    -4965052.807 4  -3672814.09221
  22313697.708     -295968.628 3
 93  5 21 18 22 29.9930000  0  6G27G19G18G 2G15G26
  18175773.0284  -15989171.66047 -12371691.56763
  19663937.6774   -6023922.81146  -4650237.44263
  22521469.716     6098457.249 4   4744336.53521
  19081951.2164  -18177223.93348 -14064290.59264
  22417125.0914   -5022665.48644  -3717707.03561
  22299648.3334    -369789.97843        -0.34671
 93  5 21 18 22 44.9930000  0  6G27G19G18G 2G15G26
  18169595.7714  -16021637.75747 -12396989.82563
  19662967.138    -6029024.134 6  -4654212.51123
  22526167.567     6123140.529 4   4763570.09321
  19074115.9744  -18218380.53548 -14096360.67164
  22406176.669    -5080200.456 5  -3762539.41621
  22285610.599     -443550.535 3    -57476.08621
 93  5 21 18 22 59.9930000  0  6G27G19G18G 2G15G26
  18163435.0524  -16054007.96947 -12422213.37064
  19662009.755    -6034046.011 6  -4658125.68323
  22530858.091     6147838.031 4   4782814.77021
  19066292.4504  -18259483.68648 -14128389.10364
  22395242.9274   -5137652.72145  -3807307.35161
  22271585.427     -517243.689 3   -114899.26921
 93  5 21 18 23 14.9930000  0  6G27G19G18G 2G15G26
  18157291.3104  -16086287.52347 -12447366.26964
  19661070.825    -6038991.269 6  -4661979.15223
  22535561.0054    6172542.51844   4802064.88961
  19058482.0214  -18300537.27348 -14160378.90764
  22384329.669    -5195025.614 5  -3852013.40921
  22257578.1224    -590868.94443   -172269.58161
 93  5 21 18 23 29.9930000  0  6G27G19G18G 2G15G26
  18151166.9194  -16118479.61847 -12472451.01664
  19660146.505    -6043858.557 6  -4665771.86823
  22540269.747     6197250.093 4   4821317.40521
  19050680.5444  -18341540.53248 -14192329.49664
  22373433.9354   -5252318.47745  -3896657.12161
  22243579.8414    -664423.65843   -229584.86961
 93  5 21 18 23 44.9930000  0  6G27G19G18G 2G15G26
  18145059.8644  -16150582.18447 -12497466.00964
  19659236.1074   -6048646.01746  -4669502.38663
  22544963.927     6221962.905 3   4840574.00821
  19042886.3574  -18382490.64848 -14224238.68164
  22362538.036    -5309527.299 4  -3941235.36221
  22229591.466     -737904.883 3   -286842.92821
 93  5 21 18 23 59.9930000  0  6G27G19G18G 2G15G26
  18138966.8254  -16182592.98747 -12522409.49964
  19658335.630    -6053355.660 6  -4673172.26223
  22549666.888     6246678.513 3   4859832.78221
  19035103.8254  -18423389.38748 -14256107.82564
  22351665.1464   -5366653.54344  -3985749.26361
  22215632.825     -811312.050 3   -344043.29521
 93  5 21 18 24 14.9930000  0  6G27G19G18G 2G15G26
  18132891.2944  -16214509.32347 -12547279.37264
  19657456.638    -6057992.155 6  -4676785.13923
  22554375.638     6271393.422 3   4879090.99221
  19027329.2944  -18464238.97047 -14287938.66864
  22340813.9584   -5423699.02945  -4030200.21161
  22201675.3104    -884644.68744   -401185.56661
 93  5 21 18 24 29.9930000  0  6G27G19G18G 2G15G26
  18126837.7164  -16246323.45947 -12572069.60964
  19656583.7004   -6062550.60446  -4680337.20063
  22559077.7244    6296110.46443   4898350.88661
  19019569.4504  -18505034.98248 -14319727.77364
  22329969.864    -5480658.379 5  -4074584.04221
  22187737.060     -957897.194 4   -458265.39621
 93  5 21 18 24 44.9930000  0  6G27G19G18G 2G15G26
  18120803.8254  -16278038.79647 -12596782.85764
  19655732.950    -6067035.859 6  -4683832.21623
  22563779.5214    6320824.02643   4917608.05961
  19011813.6854  -18545780.36948 -14351477.41964
  22319154.3024   -5537535.86345  -4118904.12161
  22173812.0994   -1031071.00345   -515283.90361
 93  5 21 18 24 59.9930000  0  6G27G19G18G 2G15G26
  18114784.5914  -16309654.81747 -12621418.72964
  19654892.935    -6071446.458 6  -4687269.07223
  22568477.7474    6345536.02243   4936863.98761
  19004071.3254  -18586470.13048 -14383183.72764
  22308345.521    -5594330.462 5  -4163159.57521
  22159896.9504   -1104162.57244   -572238.33661
 93  5 21 18 25 14.9930000  0  6G27G19G18G 2G15G26
  18108792.2244  -16341167.11647 -12645973.76163
  19654071.888    -6075781.750 6  -4690647.23723
  22573179.8804    6370248.75443   4956120.52361
  18996338.0214  -18627104.68948 -14414847.02264
  22297549.8724   -5651042.75945  -4207350.90561
  22146006.896    -1177170.242 4   -629127.40421
 93  5 21 18 25 29.9930000  0  6G27G19G18G 2G15G26
  18102815.2324  -16372565.88647 -12670440.33463
  19653258.982    -6080038.433 6  -4693964.16423
  22577885.536     6394967.381 3   4975381.64721
  18988615.1854  -18667681.20447 -14446465.08964
  22286776.185    -5707668.877 5  -4251475.09521
  22132130.4974   -1250089.49945   -685947.54261
 93  5 21 18 25 44.9930000  0  6G27G19G18G 2G15G26
  18096864.1774  -16403850.76547 -12694818.17263
  19652468.3254   -6084220.96746  -4697223.30863
  22582588.489     6419694.092 2   4994649.07521
  18980906.1144  -18708201.72547 -14478039.51564
  22276014.958    -5764209.439 5  -4295532.61921
  22118274.8414   -1322922.39844   -742700.40461
 93  5 21 18 25 59.9930000  0  6G27G19G18G 2G15G26
  18090930.1924  -16435021.61047 -12719107.15163
  19651680.935    -6088330.596 6  -4700425.63723
  22587300.4744    6444427.71243   5013921.86261
  18973204.3804  -18748665.96547 -14509570.09764
  22265274.4894   -5820664.25045  -4339523.34361
  22104431.255    -1395669.006 4   -799386.03521
 93  5 21 18 26 14.9930000  0  6G27G19G18G 2G15G26
  18085021.1614  -16466080.79547 -12743309.11563
  19650916.997    -6092366.942 6  -4703570.86423
  22592006.067     6469164.933 3   5033197.49521
  18965517.3574  -18789073.83247 -14541056.74564
  22254549.911    -5877033.914 5  -4383447.67521
  22090604.7084   -1468329.14044   -856004.26661
 93  5 21 18 26 29.9930000  0  6G27G19G18G 2G15G26
  18079128.7084  -16497034.88947 -12767429.19463
  19650157.435    -6096333.193 6  -4706661.46622
  22596708.403     6493903.402 3   5052474.07321
  18957836.7784  -18829427.03547 -14572500.79364
  22243835.396    -5933319.907 5  -4427306.80621
  22076790.7634   -1540908.17244   -912559.32961
 93  5 21 18 26 44.9930000  0  6G27G19G18G 2G15G26
  18073256.9824  -16527884.53847 -12791467.88664
  19649420.5524   -6100227.33746  -4709695.88663
  22601418.067     6518645.616 3   5071753.56821
  18950170.7164  -18869722.91348 -14603900.18464
  22233142.021    -5989520.177 5  -4471099.17221
  22062994.716    -1613404.224 4   -969049.71221
 93  5 21 18 26 59.9930000  0  6G27G19G18G 2G15G26
  18067406.7864  -16558633.06947 -12815427.77464
  19648689.263    -6104046.446 6  -4712671.84123
  22606129.2714    6543391.92743   5091036.25861
  18942512.0524  -18909959.09947 -14635253.05264
  22222465.927    -6045633.769 5  -4514823.97821
  22049216.9894   -1685815.05445  -1025473.71161
 93  5 21 18 27 14.9930000  0  6G27G19G18G 2G15G26
  18061576.0054  -16589279.82847 -12839308.37463
  19647981.646    -6107784.611 6  -4715584.71323
  22610849.0994    6568141.26144   5110321.30161
  18934868.2244  -18950134.89948 -14666558.86864
  22211798.841    -6101657.566 5  -4558478.81721
  22035453.5444   -1758137.55344  -1081828.86161
 93  5 21 18 27 29.9930000  0  6G27G19G18G 2G15G26
  18055763.5754  -16619829.05847 -12863112.97264
  19647281.271    -6111444.254 6  -4718436.39823
  22615556.091     6592889.458 4   5129605.45621
  18927231.9274  -18990254.27247 -14697820.71764
  22201158.341    -6157594.858 5  -4602066.25621
  22021710.0054   -1830376.76244  -1138119.10961
 93  5 21 18 27 44.9920000  0  6G27G19G18G 2G15G26
  18049967.9774  -16650281.84647 -12886842.42264
  19646603.7034   -6115023.96346  -4721225.79563
  22620263.6564    6617635.67743   5148888.04661
  18919610.9694  -19030310.30948 -14729033.20664
  22190528.1174   -6213439.79745  -4645581.73461
  22007974.250    -1902529.609 4  -1194342.06921
 93  5 21 18 27 59.9920000  0  6G27G19G18G 2G15G26
  18044189.3994  -16680644.34547 -12910501.51364
  19645937.180    -6118522.328 6  -4723951.81823
  22624966.6094    6642379.78343   5168169.01861
  18912000.3994  -19070307.11248 -14760199.55564
  22179914.7974   -6269199.54245  -4689030.82861
  21994256.2034   -1974606.65544  -1250505.97761
 93  5 21 18 28 14.9920000  0  6G27G19G18G 2G15G26
  18038430.3524  -16710913.29447 -12934087.71263
  19645291.094    -6121938.301 6  -4726613.63223
  22629678.172     6667119.399 3   5187446.46421
  18904399.188   -19110242.416 8 -14791317.95824
  22169328.422    -6324870.673 5  -4732410.88121
  21980554.039    -2046604.089 3  -1306607.85521
 93  5 21 18 28 29.9920000  0  6G27G19G18G 2G15G26
  18032690.7114  -16741086.08147 -12957598.98564
  19644653.1334   -6125271.86646  -4729211.24163
  22634380.4064    6691857.28543   5206722.58761
  18896811.3594  -19150117.97948 -14822389.82464
  22158748.742    -6380452.155 5  -4775721.08521
  21966869.2744   -2118521.99743  -1362647.70961
 93  5 21 18 28 44.9920000  0  6G27G19G18G 2G15G26
  18026965.4534  -16771163.87147 -12981036.22564
  19644035.219    -6128525.878 6  -4731746.86122
  22639088.227     6716593.248 3   5225997.21721
  18889236.4534  -19189936.77648 -14853417.46264
  22148192.4304   -6435944.95845  -4818962.18961
  21953205.0394   -2190361.40443  -1418626.43261
 93  5 21 18 28 59.9920000  0  6G27G19G18G 2G15G26
  18021261.1334  -16801143.52747 -13004396.99963
  19643430.563    -6131695.907 6  -4734217.03323
  22643801.4924    6741329.96943   5245272.41661
  18881667.8134  -19229697.56047 -14884399.88564
  22137649.4694   -6491346.53845  -4862132.21161
  21939551.8674   -2262118.20044  -1474540.77561
 93  5 21 18 29 14.9920000  0  6G27G19G18G 2G15G26
  18015574.7744  -16831023.92947 -13027680.43863
  19642843.5704   -6134783.73146  -4736623.16163
  22648509.9614    6766067.36344   5264548.11861
  18874113.4454  -19269401.71247 -14915338.17964
  22127121.109    -6546657.049 5  -4905231.28721
  21925902.4774   -2333794.70943  -1530392.56761
 93  5 21 18 29 29.9920000  0  6G27G19G18G 2G15G26
  18009905.6644  -16860801.45947 -13050883.71363
  19642272.133    -6137793.189 6  -4738968.20922
  22653220.8054    6790807.09244   5283825.67261
  18866569.2584  -19309050.54247 -14946233.37164
  22116617.524    -6601876.342 5  -4948259.24821
  21912287.7664   -2405391.40843  -1586182.16061
 93  5 21 18 29 44.9920000  0  6G27G19G18G 2G15G26
  18004262.4304  -16890475.50147 -13074006.34663
  19641711.391    -6140727.467 6  -4741254.67623
  22657927.4224    6815548.80744   5303104.78561
  18859032.5084  -19348645.74247 -14977086.77164
  22106121.867    -6657005.625 5  -4991217.07321
  21898671.6954   -2476910.27843  -1641911.13461
 93  5 21 18 29 59.9920000  0  6G27G19G18G 2G15G26
  17998634.9224  -16920044.78147 -13097047.35263
  19641168.953    -6143587.181 6  -4743483.04222
  22662635.6334    6840290.44944   5322383.79861
  18851510.2114  -19388186.56647 -15007897.80164
  22095648.992    -6712043.848 5  -5034103.96821
  21885079.719    -2548349.575 4  -1697578.10421
 93  5 21 18 30 14.9920000  0  6G27G19G18G 2G15G26
  17993028.3594  -16949505.53947 -13120003.79763
  19640638.680    -6146368.617 6  -4745650.42622
  22667346.4224    6865035.59044   5341665.57861
  18843995.2664  -19427670.72047 -15038664.68164
  22085196.0474   -6766989.15445  -5076918.44561
  21871499.1024   -2619704.79444  -1753179.54761
 93  5 21 18 30 29.9920000  0  6G27G19G18G 2G15G26
  17987440.6724  -16978860.83147 -13142878.05264
  19640123.438    -6149073.878 6  -4747758.43222
  22672053.0784    6889782.99844   5360949.10061
  18836492.2584  -19467098.22747 -15069387.40864
  22074760.703    -6821843.452 5  -5119662.02521
  21857946.399    -2690976.417 4  -1808715.86521
 93  5 21 18 30 44.9920000  0  6G27G19G18G 2G15G26
  17981874.5634  -17008109.23847 -13165669.01863
  19639625.1644   -6151700.19646  -4749804.92562
  22676758.0634    6914532.49543   5380234.25461
  18828999.5314  -19506465.41347 -15100063.13364
  22064332.500    -6876604.436 5  -5162332.91521
  21844395.1174   -2762159.70445  -1864183.32261
 93  5 21 18 30 59.9920000  0  6G27G19G18G 2G15G26
  17976329.5244  -17037253.42947 -13188378.77864
  19639140.3444   -6154247.18946  -4751789.61762
  22681457.5634    6939281.15043   5399518.73761
  18821522.6644  -19545771.25247 -15130691.06864
  22053930.492    -6931273.053 5  -5204931.77721
  21830864.8674   -2833253.20344  -1919580.79061
 93  5 21 18 31 14.9920000  0  6G27G19G18G 2G15G26
  17970801.6954  -17066290.36247 -13211004.96564
  19638673.149    -6156712.989 6  -4753711.04822
  22686174.180     6964028.015 3   5418801.85421
  18814053.5704  -19585013.47147 -15161269.41964
  22043544.297    -6985848.018 5  -5247457.70121
  21817353.0084   -2904256.90244  -1974908.34061
 93  5 21 18 31 29.9920000  0  6G27G19G18G 2G15G26
  17965300.0244  -17095215.97747 -13233544.40964
  19638210.617    -6159094.256 6  -4755566.60122
  22690888.8134    6988774.56144   5438084.71661
  18806598.4694  -19624188.88747 -15191795.71264
  22033175.3594   -7040325.69445  -5289907.81861
  21803858.305    -2975166.871 5  -2030162.82221
 93  5 21 18 31 44.9920000  0  6G27G19G18G 2G15G26
  17959813.1024  -17124035.17247 -13256000.93264
  19637782.875    -6161396.585 6  -4757360.64022
  22695590.5634    7013516.32244   5457363.82561
  18799156.0164  -19663301.21647 -15222272.86264
  22022830.8054   -7094710.17645  -5332285.32261
  21790378.8994   -3045987.47145  -2085347.66861
 93  5 21 18 31 59.9920000  0  6G27G19G18G 2G15G26
  17954351.7424  -17152749.00147 -13278375.34164
  19637355.016    -6163620.121 6  -4759093.27922
  22700305.4454    7038252.50844   5476638.58861
  18791726.5864  -19702348.19447 -15252699.07164
  22012499.5244   -7149001.17045  -5374589.97861
  21776922.664    -3116718.509 5  -2140462.74921
 93  5 21 18 32 14.9920000  0  6G27G19G18G 2G15G26
  17948908.0474  -17181357.43647 -13300667.63564
  19636950.3754   -6165764.00446  -4760763.86862
  22705017.7114    7062983.79644   5495909.52761
  18784308.0474  -19741329.60847 -15283074.19964
  22002185.9384   -7203197.75245  -5416821.03661
  21763478.7584   -3187359.44745  -2195507.59861
 93  5 21 18 32 29.9920000  0  6G27G19G18G 2G15G26
  17943483.5704  -17209858.19847 -13322876.01864
  19636557.070    -6167829.381 6  -4762373.28322
  22709717.1804    7087710.86744   5515177.23561
  18776901.7584  -19780247.01747 -15313399.45764
  21991890.516    -7257297.510 5  -5458976.68221
  21750056.0634   -3257907.53845  -2250480.10161
 93  5 21 18 32 44.9920000  0  6G27G19G18G 2G15G26
  17938078.4064  -17238256.10347 -13345004.25564
  19636175.492    -6169822.920 6  -4763926.71022
  22714423.8054    7112427.50144   5534436.73361
  18769509.9454  -19819107.51647 -15343680.36664
  21981613.0314   -7311303.31045  -5501059.08161
  21736644.3834   -3328368.32545  -2305384.59961
 93  5 21 18 32 59.9920000  0  6G27G19G18G 2G15G26
  17932695.7194  -17266551.03147 -13367052.25263
  19635806.3284   -6171745.27146  -4765424.68062
  22719125.211     7137136.712 4   5553690.50421
  18762125.0474  -19857912.67148 -15373918.14264
  21971356.6174   -7365212.99145  -5543066.63761
  21723254.734    -3398742.617 5  -2360221.68121
 93  5 21 18 33 14.9920000  0  6G27G19G18G 2G15G26
  17927331.1804  -17294744.56447 -13389021.25063
  19635459.344    -6173597.239 6  -4766867.77922
  22723822.828     7161838.572 4   5572938.50921
  18754748.1024  -19896665.30848 -15404115.00364
  21961117.172    -7419026.873 5  -5584999.49521
  21709876.8914   -3469035.06945  -2414994.97261
 93  5 21 18 33 29.9920000  0  6G27G19G18G 2G15G26
  17921985.2424  -17322835.94947 -13410910.63464
  19635119.203    -6175379.444 6  -4768256.52222
  22728518.906     7186534.818 3   5592182.17321
  18747384.5004  -19935365.45347 -15434270.96764
  21950891.875    -7472745.161 5  -5626857.87421
  21696522.3284   -3539244.19045  -2469703.36161
 93  5 21 18 33 44.9920000  0  6G27G19G18G 2G15G26
  17916659.3204  -17350820.62547 -13432716.88264
  19634793.6334   -6177090.47046  -4769589.82262
  22733222.3054    7211229.69843   5611424.76661
  18740029.6094  -19974009.29647 -15464383.05164
  21940689.625    -7526363.841 5  -5668638.63121
  21683178.875    -3609364.252 5  -2524342.31621
 93  5 21 18 33 59.9920000  0  6G27G19G18G 2G15G26
  17911354.2504  -17378700.17647 -13454441.20564
  19634478.609    -6178732.650 6  -4770869.46422
  22737920.1884    7235920.57743   5630664.23161
  18732687.2274  -20012600.06848 -15494453.78464
  21930506.9064   -7579884.88345  -5710343.27761
  21669848.938    -3679397.088 5  -2578913.33521
 93  5 21 18 34 14.9920000  0  6G27G19G18G 2G15G26
  17906067.9144  -17406479.70347 -13476087.59464
  19634181.899    -6180303.628 6  -4772093.62422
  22742612.1254    7260602.65543   5649896.82461
  18725353.3444  -20051142.79048 -15524487.08064
  21920335.0944   -7633310.19545  -5751973.35261
  21656536.4064   -3749342.83345  -2633416.46561
 93  5 21 18 34 29.9920000  0  6G27G19G18G 2G15G26
  17900800.2744  -17434158.70947 -13497655.64764
  19633894.555    -6181801.476 6  -4773260.80422
  22747307.6644    7285276.54643   5669123.06761
  18718027.0864  -20089638.95648 -15554484.09164
  21910187.1094   -7686639.14445  -5793528.35461
  21643241.625    -3819200.580 5  -2687851.05021
 93  5 21 18 34 44.9920000  0  6G27G19G18G 2G15G26
  17895553.8284  -17461732.43247 -13519141.67364
  19633628.875    -6183221.811 6  -4774367.58022
  22752007.508     7309946.923 3   5688346.53421
  18710711.6724  -20128085.10947 -15584442.12564
  21900062.680    -7739868.569 5  -5835005.78221
  21629968.047    -3888966.507 5  -2742214.05021
 93  5 21 18 34 59.9920000  0  6G27G19G18G 2G15G26
  17890327.3054  -17489197.58847 -13540543.09663
  19633365.8674   -6184559.03146  -4775409.59862
  22756700.0864    7334615.24243   5707568.42461
  18703404.4694  -20166479.39048 -15614359.74764
  21889950.3914   -7792997.60345  -5876404.99561
  21616711.852    -3958639.614 5  -2796504.73721
 93  5 21 18 35 14.9920000  0  6G27G19G18G 2G15G26
  17885121.6564  -17516551.72047 -13561858.00863
  19633133.906    -6185813.363 6  -4776387.01022
  22761392.805     7359277.655 3   5726785.68421
  18696107.4304  -20204823.40947 -15644238.20264
  21879858.8594   -7846028.97245  -5917728.08661
  21603472.961    -4028219.187 5  -2850722.56621
 93  5 21 18 35 29.9920000  0  6G27G19G18G 2G15G26
  17879939.4454  -17543787.81347 -13583080.94063
  19632910.7584   -6186980.59046  -4777296.57162
  22766089.4454    7383934.99843   5745999.03161
  18688823.0244  -20243111.43647 -15674073.03064
  21869790.703    -7898959.405 5  -5958972.50821
  21590252.016    -4097697.633 5  -2904861.59121
 93  5 21 18 35 44.9920000  0  6G27G19G18G 2G15G26
  17874777.7894  -17570910.10147 -13604215.19564
  19632702.836    -6188067.289 6  -4778143.37122
  22770778.399     7408582.228 3   5765204.42921
  18681547.7974  -20281347.20948 -15703867.14264
  21859732.9844   -7951792.68845  -6000141.25761
  21577050.742    -4167078.581 5  -2958924.63321
 93  5 21 18 35 59.9920000  0  6G27G19G18G 2G15G26
  17869639.8674  -17597918.42547 -13625260.64064
  19632514.242    -6189071.898 6  -4778926.20622
  22775468.7424    7433219.24643   5784401.95461
  18674279.5084  -20319531.59747 -15733621.20064
  21849698.016    -8004527.293 5  -6041233.13221
  21563863.6494   -4236365.78145  -3012914.63061
 93  5 21 18 36 14.9920000  0  6G27G19G18G 2G15G26
  17864518.6644  -17624818.30447 -13646221.58963
  19632339.016    -6189994.320 6  -4779645.00122
  22780154.7894    7457844.36842   5803590.20161
  18667023.9454  -20357666.34548 -15763336.59664
  21839681.922    -8057165.241 5  -6082249.66921
  21550697.8914   -4305560.86045  -3066832.84761
 93  5 21 18 36 29.9920000  0  6G27G19G18G 2G15G26
  17859420.8054  -17651606.10647 -13667095.20964
  19632174.6024   -6190834.42246  -4780299.65162
  22784838.1024    7482460.56242   5822771.44061
  18659775.7344  -20395747.19847 -15793009.98464
  21829678.9224   -8109703.76545  -6123188.74961
  21537543.4774   -4374661.81045  -3120677.71461
 93  5 21 18 36 44.9920000  0  6G27G19G18G 2G15G26
  17854346.7664  -17678278.36047 -13687878.78663
  19632034.266    -6191596.827 6  -4780893.75222
  22789515.024     7507068.334 2   5841946.13121
  18652540.1024  -20433773.01847 -15822640.49064
  21819698.711    -8162142.347 5  -6164049.90521
  21524410.547    -4443669.355 5  -3174449.80421
 93  5 21 18 36 59.9920000  0  6G27G19G18G 2G15G26
  17849291.6024  -17704835.37547 -13708572.56864
  19631900.3754   -6192282.36046  -4781427.96962
  22794203.328     7531666.096 3   5861113.01121
  18645315.6334  -20471742.43647 -15852227.04764
  21809745.016    -8214480.024 5  -6204832.47221
  21511295.102    -4512583.792 5  -3228149.33721
 93  5 21 18 37 14.9920000  0  6G27G19G18G 2G15G26
  17844261.7034  -17731282.27847 -13729180.55364
  19631784.477    -6192895.563 6  -4781905.80622
  22798886.3994    7556251.78643   5880270.51061
  18638100.6174  -20509656.79647 -15881770.71464
  21799803.0784   -8266718.10045  -6245537.42861
  21498202.6414   -4581407.50645  -3281778.16461
 93  5 21 18 37 29.9920000  0  6G27G19G18G 2G15G26
  17839247.4454  -17757624.75647 -13749707.15864
  19631681.453    -6193438.383 6  -4782328.79322
  22803562.6644    7580825.61643   5899418.72161
  18630896.7584  -20547513.33447 -15911269.31264
  21789884.602    -8318855.706 5  -6286164.10121
  21485123.8914   -4650142.25045  -3335337.65461
 93  5 21 18 37 44.9920000  0  6G27G19G18G 2G15G26
  17834253.3674  -17783868.34147 -13770156.70764
  19631591.3204   -6193912.08646  -4782697.94562
  22808238.531     7605387.571 3
  18623702.3914  -20585312.71447 -15940723.37264
  21779979.8674   -8370893.43445  -6326712.94161
  21472057.3754   -4718792.65945  -3388831.43861
 93  5 21 18 37 59.9920000  0  6G27G19G18G 2G15G26
  17829276.6334  -17810012.80947 -13790529.02963
  19631513.8674   -6194313.87746  -4783011.06462
  22812907.102     7629940.618 3
  18616520.8204  -20623055.15447 -15970133.06264
  21770099.891    -8422829.841 5  -6367182.83621
  21459010.8364   -4787359.57545  -3442260.16961
 93  5 21 18 38 14.9920000  0  6G27G19G18G 2G15G26
  17824322.5004  -17836059.09147 -13810824.84264
  19631454.438    -6194643.124 6  -4783267.63622
  22817574.195     7654483.424 2
  18609351.5244  -20660741.76848 -15999499.24564
  21760232.930    -8474665.266 5  -6407574.02721
  21445978.0864   -4855841.33045  -3495622.54261
 93  5 21 18 38 29.9920000  0  7G27G19G18G 2G13G15G26
  17819383.3054  -17862003.51947 -13831041.28063
  19631404.156    -6194897.564 6  -4783465.92222
  22822245.602     7679017.746 2
  18602189.9924  -20698368.24447 -16028818.57564
  22531995.1954         -0.08653
  21750389.133    -8526396.543 5  -6447884.07421
  21432966.609    -4924233.315 5  -3548914.97521
 93  5 21 18 38 44.9920000  0  7G27G19G18G 2G13G15G26
  17814468.3364  -17887843.66547 -13851176.46363
  19631372.5944   -6195076.75846
  22826910.891     7703544.693 2
  18595041.0394  -20735935.95348 -16058092.12264
  22514597.2664     -91398.89343
  21740565.9144   -8578023.20545  -6488112.61461
  21419964.8674   -4992535.44945  -3602137.37861
 93  5 21 18 38 59.9920000  0  7G27G19G18G 2G13G15G26
  17809568.8994  -17913582.37347 -13871232.60563
  19631348.1414   -6195179.99346
  22831581.477     7728062.246 3
  18587904.1494  -20773446.66148 -16087321.24764
  22497200.7894    -182797.96543
  21730758.0784   -8629547.26645  -6528261.18861
  21406980.3834   -5060749.99745  -3655291.54161
 93  5 21 18 39 14.9920000  0  7G27G19G18G 2G13G15G26
  17804691.0554  -17939221.18647 -13891210.90263
  19631349.4614   -6195204.45946
  22836244.633     7752568.606 3        -0.46131
  18580775.8594  -20810899.79147 -16116505.49864
  22479804.1724    -274198.33142
  21720974.703    -8680969.644 5  -6568330.54121
  21394018.4064   -5128876.48745  -3708377.08061
 93  5 21 18 39 29.9920000  0  7G27G19G18G 2G13G15G26
  17799829.6564  -17964757.56847 -13911109.39363
  19631354.4844   -6195146.15246
  22840902.0704    7777066.36842     19088.49661
  18573660.7194  -20848290.79047 -16145641.33564
  22462419.7194    -365596.99843
  21711209.102    -8732287.517 5  -6608318.44221
  21381077.4304   -5196910.94445  -3761390.91861
 93  5 21 18 39 44.9920000  0  7G27G19G18G 2G13G15G26
  17794992.7034  -17990181.59547 -13930920.33063
  19631387.5314   -6194997.27946
  22845568.828     7801561.303 2     38175.23921
  18566558.0394  -20885615.87247 -16174725.82164
  22445026.3834    -456988.82143
  21701460.719    -8783495.961 5  -6648221.08221
  21368150.367    -5264846.033 5  -3814327.32621
 93  5 21 18 39 59.9920000  0  7G27G19G18G 2G13G15G26
  17790176.5084  -18015493.67347 -13950644.03063
  19631428.813    -6194764.320 6
  22850227.930     7826048.696 2     57256.10321
  18559465.0314  -20922882.93547 -16203765.08764
  22427634.0784    -548378.85942
  21691734.2424   -8834600.15845  -6688042.47961
  21355244.4534   -5332681.90245  -3867186.40861
 93  5 21 18 40 14.9920000  0  7G27G19G18G 2G13G15G26
  17785382.0634  -18040693.95547 -13970280.61263
  19631491.180    -6194449.272 6  -4783116.79722
  22854873.922     7850524.974 2
  18552383.7974  -20960094.97947 -16232761.48564
  22410243.4614    -639766.99942
  21682035.2744   -8885599.80245  -6727782.42861
  21342353.422    -5400417.102 5  -3919967.05921
 93  5 21 18 40 29.9910000  0  7G27G19G18G 2G13G15G26
  17780606.8554  -18065783.05147 -13989830.56564
  19631564.612    -6194053.633 6  -4782808.52722
  22859529.409     7874984.447 2
  18545315.1364  -20997251.60847 -16261714.70264
  22392860.1594    -731147.67143
  21672347.4014   -8936492.19145  -6767438.82061
  21329481.784    -5468046.692 5  -3972665.41921
 93  5 21 18 40 44.9910000  0  7G27G19G18G 2G13G15G26
  17775853.8474  -18090761.55147 -14009294.33964
  19631654.136    -6193576.525 6  -4782436.78122
  22864184.808     7899431.418 2
  18538252.6364  -21034359.26348 -16290629.75464
  22375467.0664    -822532.19942
  21662688.0894   -8987283.28145  -6807016.24361
  21316631.862    -5535579.493 5  -4025288.33021
 93  5 21 18 40 59.9910000  0  7G27G19G18G 2G13G15G26
  17771122.4874  -18115627.43547 -14028670.35264
  19631759.9724   -6193017.97546  -4782001.57362
  22868841.9254    7923865.68642        -0.09871
  18531203.0034  -21071414.61048 -16319504.05164
  22358080.3474    -913913.11843
  21653037.355    -9037968.299 5  -6846511.00321
  21303801.7534   -5603009.53545  -4077831.19061
 93  5 21 18 41 14.9910000  0  7G27G19G18G 2G13G15G26
  17766410.8474  -18140378.30947 -14047956.75063
  19631884.683    -6192376.054 6  -4781501.40522
  22873486.2374    7948288.41242     19030.39361
  18524159.5504  -21108414.91447 -16348335.45464
  22340693.6054   -1005286.84242
  21643416.4334   -9088543.56545  -6885920.26861
  21290993.6284   -5670332.83645  -4130290.88261
 93  5 21 18 41 29.9910000  0  7G27G19G18G 2G13G15G26
  17761722.2694  -18165017.26447 -14067155.94064
  19632021.0734   -6191656.34846  -4780940.62662
  22878123.464     7972695.739 2     38048.89221
  18517129.1124  -21145366.51747 -16377128.91263
  22323305.7534   -1096655.25042
  21633813.9484   -9139011.25245  -6925245.67361
  21278198.7224   -5737549.95945  -4182667.82961
 93  5 21 18 41 44.9910000  0  7G27G19G18G 2G13G15G26
  17757055.4484  -18189543.45747 -14086267.26664
  19632175.3164   -6190860.92946  -4780320.84962
  22882767.4414    7997089.07842     57056.50861
  18510106.3234  -21182272.82948 -16405887.08064
  22305910.6834   -1188017.71742
  21624223.8944   -9189370.63545  -6964486.71861
  21265430.5264   -5804661.72145  -4234962.68361
 93  5 21 18 41 59.9910000  0  7G27G19G18G 2G13G15G26
  17752407.3784  -18213959.21947 -14105292.53964
  19632338.136    -6189992.527 6  -4779644.19222
  22887409.6984    8021464.32442     76050.03061
  18503090.6984  -21219138.28048 -16434613.40764
  22288522.5814   -1279375.90342
  21614664.4874   -9239623.60745  -7003644.82761
  21252675.9564   -5871671.12945  -4287177.80761
 93  5 21 18 42 14.9910000  0  6G27G19G18G 2G15G26
  17747783.2844  -18238270.23847 -14124236.19964
  19632515.5504   -6189054.44846  -4778913.25462
  22892042.8004    8045816.74742     95025.74061
  18496082.7144  -21255964.25348 -16463308.97364
  21605125.542    -9289771.961 5  -7042721.41321
  21239940.5194   -5938582.19745  -4339316.27861
 93  5 21 18 42 29.9910000  0  6G27G19G18G 2G15G26
  17743176.0114  -18262476.86947 -14143098.51264
  19632711.745    -6188043.510 6  -4778125.54022
  22896673.1514    8070148.10342    113985.04761
  18489083.6284  -21292746.89448 -16491970.76764
  21595601.0664   -9339814.25945  -7081715.35961
  21227226.636    -6005394.056 5  -4391377.46021
 93  5 21 18 42 44.9910000  0  6G27G19G18G 2G15G26
  17738589.9484  -18286573.29447 -14161874.95364
  19632918.2764   -6186957.71446  -4777279.49562
  22901304.019     8094464.865 3    132932.97421
  18482093.8234  -21329479.17448 -16520593.32264
  21586092.792    -9389748.203 5  -7120624.84621
  21214528.2534   -6072103.70644  -4443358.96861
 93  5 21 18 42 59.9910000  0  6G27G19G18G 2G15G26
  17734028.6054  -18310559.47147 -14180565.48464
  19633133.5974   -6185799.68146  -4776377.16162
  22905928.636     8118766.567 2    151869.14821
  18475113.7924  -21366159.79648 -16549175.63064
  21576623.230    -9439575.224 5  -7159451.08421
  21201854.1124   -6138712.34843  -4495261.75161
 93  5 21 18 43 14.9910000  0  5G27G19G 2G15G26
  17729483.4804  -18334435.36047 -14199170.08064
  19633370.737    -6184569.404 6  -4775418.53022
  18468142.1834  -21402785.32248 -16577714.99564
  21567158.2454   -9489293.96145  -7198192.92161
  21189194.3314   -6205217.55843  -4547083.93161
 93  5 21 18 43 29.9910000  0  6G27G19G18G 2G15G26
  17724961.4644  -18358197.03347 -14217685.67063
  19633615.7374   -6183264.85246  -4774402.02262
  22915160.995          -0.44312
  18461185.4874  -21439353.85148 -16606209.94764
  21557709.784    -9538903.407 5  -7236849.58721
  21176565.675    -6271618.415 4  -4598824.80921
 93  5 21 18 43 44.9910000  0  6G27G19G 2G13G15G26
  17720460.2374  -18381847.33547 -14236114.48163
  19633883.472    -6181888.279 6  -4773329.38122
  18454238.5344  -21475864.62248 -16634659.90064
  22166860.5664         -0.19452
  21548291.7064   -9588406.17345  -7275423.15061
  21163944.8554   -6337919.89344  -4650488.25661
 93  5 21 18 43 59.9910000  0  6G27G19G 2G13G15G26
  17715983.7534  -18405383.00547 -14254453.97463
  19634155.3704   -6180434.78946  -4772196.82462
  18447301.4644  -21512311.77348 -16663060.27364
  22149487.0894     -91312.68343
  21538892.2614   -9637799.26445  -7313911.22861
  21151352.628    -6404118.760 5  -4702071.76321
 93  5 21 18 44 14.9910000  0  6G27G19G 2G13G15G26
  17711526.8394  -18428804.36747 -14272704.39063
  19634451.355    -6178904.625 6  -4771004.51222
  18440379.2764  -21548692.28348 -16691408.71764
  22132111.0894    -182615.70743
  21529518.2304   -9687081.52445  -7352312.91161
  21138773.9414   -6470212.65545  -4753573.45961
 93  5 21 18 44 29.9910000  0  6G27G19G 2G13G15G26
  17707089.2614  -18452112.42547 -14290866.51963
  19634751.394    -6177300.493 6  -4769754.56522
  18433467.6594  -21585008.78748 -16719707.28664
  22114734.6984    -273910.17343
  21520163.925    -9736253.980 5  -7390629.05921
  21126215.433    -6536204.106 5  -4804995.36521
 93  5 21 18 44 44.9910000  0  6G27G19G 2G13G15G26
  17702677.3784  -18475307.49247 -14308940.60064
  19635075.612    -6175623.470 6  -4768447.82022
  18426568.8004  -21621262.86148 -16747957.21864
  22097362.8084    -365197.15943
  21510824.3704   -9785317.70545  -7428860.49861
  21113682.1834   -6602096.35245  -4856339.96061
 93  5 21 18 44 59.9910000  0  6G27G19G 2G13G15G26
  17698284.4954  -18498388.31947 -14326925.66664
  19635406.066    -6173870.798 6  -4767082.13322
  18419681.5664  -21657454.25648 -16776158.30964
  22079994.3704    -456473.13743
  21501505.855    -9834269.197 5  -7467004.49821
  21101168.081    -6667889.092 5  -4907607.00321
 93  5 21 18 45 14.9910000  0  6G27G19G 2G13G15G26
  17693911.6514  -18521365.92747 -14344830.30163
  19635751.5734   -6172048.71146  -4765662.35462
  18412804.4644  -21693592.63348 -16804318.07564
  22062626.7454    -547744.17143
  21492214.144    -9883114.810 5  -7505065.97121
  21088656.8314   -6733589.01844  -4958801.72661
 93  5 21 18 45 29.9910000  0  6G27G19G 2G13G15G26
  17689560.5194  -18544235.05547 -14362650.40463
  19636113.566    -6170149.190 6  -4764182.23122
  18405940.5114  -21729674.67848 -16832433.95264
  22045256.8314    -639005.12143        -0.02171
  21482940.6914   -9931849.17045  -7543040.74161
  21076163.105    -6799191.678 3  -5009920.67521
 93  5 21 18 45 44.9910000  0  6G27G19G 2G13G15G26
  17685228.4254  -18566999.51447 -14380388.95563
  19636494.394    -6168173.130 6  -4762642.47322
  18399083.5114  -21765703.48548 -16860508.35064
  22027889.6914    -730257.67943    -71105.78661
  21473689.628    -9980474.352 5  -7580930.44821
  21063706.7764   -6864702.19744  -5060967.83361
 93  5 21 18 45 59.9910000  0  6G27G19G 2G13G15G26
  17680914.8864  -18589658.87347 -14398045.60063
  19636881.644    -6166118.728 6  -4761041.66322
  18392237.1124  -21801678.19348 -16888540.57764
  22010534.886     -821498.702 3   -142202.53121
  21464452.9094  -10028987.34045  -7618732.72861
  21051255.222    -6930115.120 4  -5111938.92221
 93  5 21 18 46 14.9910000  0  6G27G19G 2G13G15G26
  17676623.9174  -18612212.92447 -14415620.18863
  19637289.237    -6163985.783 6  -4759379.65522
  18385401.9174  -21837602.05947 -16916533.19764
  21993180.0974    -912727.83344   -213290.01061
  21455244.8474  -10077387.55745  -7656447.15961
  21038829.034    -6995428.198 4  -5162832.19621
 93  5 21 18 46 29.9910000  0  6G27G19G 2G13G15G26
  17672352.9724  -18634663.94947 -14433114.49863
  19637706.2924   -6161776.84246  -4757658.42762
  18378573.1754  -21873480.44747 -16944490.38764
  21975813.6754   -1003947.41043   -284370.08061
  21446057.222   -10125677.505 6  -7694075.67021
  21026409.9094   -7060647.18044  -5213652.14361
 93  5 21 18 46 44.9910000  0  6G27G19G 2G13G15G26
  17668101.144   -18657005.893 7 -14450523.82024
  19638144.159    -6159485.425 6  -4755872.94922
  18371756.2304  -21909307.73648 -16972407.74564
  21958458.8474   -1095152.50943
  21436891.2694  -10173852.30945  -7731614.44561
  21014029.6514   -7125766.55045  -5264394.46361
 93  5 21 18 46 59.9910000  0  6G27G19G 2G13G15G26
  17663869.9014  -18679240.13247 -14467849.20563
  19638594.1514   -6157114.32846  -4754025.35862
  18364947.1054  -21945086.43148 -17000287.24264
  21941101.4414   -1186346.34643
  21427739.4644  -10221915.27445  -7769066.06361
  21001649.1124   -7190786.45945  -5315059.28161
 93  5 21 18 47 14.9910000  0  6G27G19G 2G13G15G26
  17659660.9724  -18701368.06647 -14485091.75563
  19639062.2454   -6154667.02746  -4752118.39362
  18358147.7614  -21980818.99348 -17028130.79064
  21923745.3864   -1277530.66843
  21418615.5584  -10269868.34445  -7806432.06761
  20989302.261    -7255706.049 5  -5365645.95721
 93  5 21 18 47 29.9910000  0  6G27G19G 2G13G15G26
  17655469.2614  -18723382.55547 -14502245.90764
  19639540.745    -6152140.015 6  -4750149.31222
  18351357.6834  -22016500.78447 -17055934.78364
  21906402.7454   -1368701.25044        -0.23371
  21409514.8704  -10317707.35645  -7843709.18961
  20976970.4874   -7320519.94345  -5416150.27561
 93  5 21 18 47 44.9910000  0  6G27G19G 2G13G15G26
  17651303.3004  -18745281.86147 -14519310.30363
  19640040.128    -6149534.869 6  -4748119.36022
  18344575.5894  -22052132.58748 -17083699.82464
  21889056.5504   -1459857.93144
  21400430.6754  -10365432.10445  -7880897.26761
  20964654.198    -7385228.191 5  -5466572.26921
 93  5 21 18 47 59.9910000  0  6G27G19G 2G13G15G26
  17647157.1514  -18767067.43047 -14536286.07163
  19640546.706    -6146855.221 6  -4746031.34822
  18337808.9874  -22087713.89048 -17111425.51064
  21871712.8004   -1550999.90144
  21391371.8554  -10413042.01145  -7917995.86661
  20952359.980    -7449828.007 5  -5516909.74721
 93  5 21 18 48 14.9910000  0  6G27G19G 2G13G15G26
  17643033.4254  -18788742.11147 -14553175.44164
  19641072.511    -6144103.879 6  -4743887.47122
  18331044.8864  -22123248.08048 -17139114.48664
  21854369.7064   -1642129.96344
  21382332.542   -10460540.168 5  -7955007.39621
  20940090.6444   -7514320.96045  -5567163.96061
 93  5 21 18 48 29.9910000  0  6G27G19G 2G13G15G26
  17638931.995   -18810298.923 7 -14569972.97124
  19641611.1834   -6141274.80546  -4741683.03262
  18324292.7374  -22158730.43047 -17166763.07064
  21837030.7454   -1733243.15644
  21373315.269   -10507921.574 5  -7991927.95121
  20927836.519    -7578704.659 5  -5617333.06421
 93  5 21 18 48 44.9910000  0  6G27G19G 2G13G15G26
  17634848.5894  -18831742.10247 -14586681.94463
  19642163.784    -6138371.824 6  -4739420.98922
  18317552.1674  -22194162.23548 -17194372.26064
  21819692.878    -1824342.989 4
  21364319.691   -10555189.930 5  -8028760.39821
  20915605.308    -7642982.996 5  -5667420.05621
 93  5 21 18 48 59.9910000  0  6G27G19G 2G13G15G26
  17630789.6594  -18853068.57747 -14603299.98163
  19642725.4804   -6135390.48046  -4737097.89062
  18310817.3164  -22229537.22548 -17221937.18464
  21802365.808    -1915425.657 4
  21355351.1124  -10602341.71945  -8065502.02761
  20903385.698    -7707149.158 5  -5717419.65421
 93  5 21 18 49 14.9910000  0  6G27G19G 2G13G15G26
  17626755.6444  -18874281.39047 -14619829.44963
  19643309.644    -6132332.973 6  -4734715.44922
  18304097.4094  -22264858.26948 -17249460.07664
  21785032.8784   -2006491.98944        -0.03771
  21346400.972   -10649377.676 5  -8102153.40321
  20891202.2374   -7771203.32145  -5767331.96061
 93  5 21 18 49 29.9910000  0  6G27G19G 2G13G15G26
  17622737.566   -18895384.316 7 -14636273.29723
  19643907.948    -6129200.362 6  -4732274.47922
  18297384.9334  -22300127.21948 -17276942.37364
  21767704.3554   -2097543.16244
  21337471.3784  -10696298.99745  -8138715.43861
  20879034.2764   -7835148.37545  -5817159.26661
 93  5 21 18 49 44.9910000  0  6G27G19G 2G13G15G26
  17618744.3084  -18916375.34547 -14652629.95364
  19644520.3624   -6125991.31446  -4729773.95062
  18290685.9804  -22335341.40448 -17304381.99164
  21750377.6444   -2188578.02944
  21328561.6834  -10743104.71045  -8175187.38761
  20866891.784    -7898982.881 4  -5866900.40921
 93  5 21 18 49 59.9910000  0  6G27G19G 2G13G15G26
  17614770.8704  -18937257.32647 -14668901.63164
  19645142.7224   -6122706.02346  -4727214.01562
  18283995.3704  -22370501.39948 -17331779.38464
  21733056.425    -2279597.458 4
  21319675.128   -10789795.760 5  -8211569.99221
  20854759.9804   -7962708.32844  -5916556.60761
 93  5 21 18 50 14.9910000  0  6G27G19G 2G13G15G26
  17610817.3084  -18958029.93847 -14685088.08364
  19645782.8554   -6119342.40246  -4724593.03461
  18277310.6124  -22405608.92248 -17359135.88864
  21715744.230    -2370601.956 4
  21310814.370   -10836372.592 5  -8247863.59521
  20842657.823    -8026326.134 4  -5966128.86521
 93  5 21 18 50 29.9910000  0  6G27G19G 2G13G15G26
  17606885.8704  -18978688.12747 -14701185.38164
  19646435.745    -6115898.364 6  -4721909.40222
  18270641.6054  -22440665.73947 -17386452.88964
  21698432.589    -2461590.439 5        -0.05031
  21301972.9014  -10882834.32245  -8284067.52661
  20830567.066    -8089837.024 4  -6015617.83521
 93  5 21 18 50 44.9910000  0  6G27G19G 2G13G15G26
  17602977.3314  -18999229.72547 -14717191.82364
  19647108.995    -6112373.872 6  -4719163.05922
  18263979.4644  -22475670.18248 -17413729.07464
  21681116.2224   -2552560.05844    -70885.33761
  21293150.5264  -10929178.39345  -8320179.76261
  20818501.769    -8153238.192 5  -6065021.28721
 93  5 21 18 50 59.9910000  0  6G27G19G 2G13G15G26
  17599091.1914  -19019657.16947 -14733109.31264
  19647794.3004   -6108770.74846  -4716355.45762
  18257329.6284  -22510622.73848 -17440964.82964
  21663815.6444   -2643511.66145   -141756.55761
  21284353.6514  -10975405.87345  -8356201.15761
  20806462.3394   -8216527.93345  -6114337.94061
 93  5 21 18 51 14.9910000  0  6G27G19G 2G13G15G26
  17595222.7764  -19039969.78847 -14748937.33664
  19648495.0194   -6105091.04446  -4713488.18762
  18250688.4254  -22545525.93848 -17468162.12964
  21646508.691    -2734444.166 4   -212612.95421
  21275586.472   -11021515.593 5  -8392130.78621
  20794438.651    -8279708.039 5  -6163569.17121
 93  5 21 18 51 29.9910000  0  6G27G19G 2G13G15G26
  17591383.1444  -19060165.40147 -14764674.17863
  19649207.9334   -6101336.32346  -4710562.47162
  18244054.5034  -22580381.62048 -17495322.40064
  21629208.3554   -2825356.56844   -283453.63961
  21266832.097   -11067506.678 5  -8427967.98621
  20782437.4414   -8342780.39045  -6212716.40161
 93  5 21 18 51 44.9910000  0  6G27G19G 2G13G15G26
  17587561.9954  -19080242.21447 -14780318.44563
  19649939.0344   -6097506.10246  -4707577.91762
  18237431.2534  -22615188.82648 -17522444.89864
  21611908.292    -2916248.733 4   -354278.57421
  21258102.503   -11113379.298 5  -8463712.84521
  20770455.5424   -8405746.58045  -6261780.93961
 93  5 21 18 51 59.9910000  0  6G27G19G 2G13G15G26
  17583762.7304  -19100203.44347 -14795872.65563
  19650677.9564   -6093603.92546  -4704537.29962
  18230818.0664  -22649950.63148 -17549532.01064
  21594615.878    -3007123.366 4   -425089.85721
  21249390.784   -11159136.188 5  -8499367.51721
  20758496.4874   -8468608.70945  -6310764.41161
 93  5 21 18 52 14.9910000  0  6G27G19G 2G13G15G26
  17579985.3004  -19120049.19547 -14811336.88563
  19651438.667    -6089627.764 6  -4701439.01922
  18224209.7924  -22684667.14648 -17576583.84564
  21577327.691    -3097978.132 4   -495885.65421
  21240708.784   -11204775.078 5  -8534930.27621
  20746547.417    -8531364.875 5  -6359665.28821
 93  5 21 18 52 29.9910000  0  6G27G19G 2G13G15G26
  17576231.7064  -19139779.00747 -14826710.77063
  19652205.6444   -6085577.98246  -4698283.39062
  18217612.6444  -22719335.29347 -17603597.98864
  21560039.9484   -3188811.71344   -566664.96161
  21232048.003   -11250294.856 5  -8570400.19821
  20734622.9484   -8594013.54445  -6408482.41661
 93  5 21 18 52 44.9910000  0  6G27G19G 2G13G15G26
  17572499.4094  -19159396.54247 -14841997.16564
  19652993.7144   -6081457.30746  -4695072.49662
  18211023.9254  -22753950.14547 -17630570.58864
  21542764.5894   -3279623.01544   -637426.88661
  21223411.0034  -11295694.40745  -8605776.44561
  20722726.151    -8656553.167 5  -6457214.57821
 93  5 21 18 52 59.9910000  0  6G27G19G 2G13G15G26
  17568786.1754  -19178907.43247 -14857200.46164
  19653789.1204   -6077268.06846  -4691808.19662
  18204447.8394  -22788512.13748 -17657502.01364
  21525483.8864   -3370415.49144   -708174.15861
  21214791.331   -11340977.378 5  -8641061.84721
  20710850.4954   -8718986.80645  -6505864.17861
 93  5 21 18 53 14.9900000  0  6G27G19G 2G13G15G26
  17565094.7404  -19198306.08147 -14872316.29563
  19654601.006    -6073006.097 6  -4688487.20022
  18197882.9824  -22823014.38648 -17684386.88464
  21508207.061    -3461178.816 4   -778898.76721
  21206197.1934  -11386136.33745  -8676250.65961
  20698988.232    -8781307.292 5  -6554425.58121
 93  5 21 18 53 29.9900000  0  6G27G19G 2G13G15G26
  17561422.7094  -19217596.94147 -14887348.14064
  19655424.717    -6068674.346 6  -4685111.85622
  18191326.3184  -22857464.51048 -17711231.13564
  21490937.8264   -3551928.15644   -849612.40961
  21197627.4044  -11431180.63045  -8711350.08761
  20687149.8504   -8843525.67645  -6602907.42161
 93  5 21 18 53 44.9900000  0  6G27G19G 2G13G15G26
  17557773.1314  -19236777.72947 -14902294.21463
  19656266.592    -6064268.278 6  -4681678.58322
  18184783.0844  -22891858.01548 -17738031.26664
  21473676.803    -3642655.488 4   -920308.90921
  21189075.5534  -11476105.29345  -8746356.29761
  20675331.748    -8905632.325 5  -6651302.18521
 93  5 21 18 53 59.9900000  0  6G27G19G 2G13G15G26
  17554144.3184  -19255850.51847 -14917156.13364
  19657114.482    -6059789.418 6  -4678188.60122
  18178249.7954  -22926196.69248 -17764788.67264
  21456418.561    -3733361.930 4   -990989.11621
  21180548.9594  -11520911.75845  -8781270.40761
  20663528.2094   -8967627.39145  -6699609.99961
 93  5 21 18 54 14.9900000  0  6G27G19G 2G13G15G26
  17550535.9124  -19274816.91047 -14931935.14664
  19657982.9984   -6055238.05946  -4674642.12862
  18171724.1934  -22960482.58348 -17791504.95764
  21439168.342    -3824047.662 5
  21172047.4284  -11565600.33245  -8816092.64061
  20651754.311    -9029514.024 5  -6747833.31221
 93  5 21 18 54 29.9900000  0  6G27G19G 2G13G15G26
  17546946.5454  -19293675.74547 -14946630.34364
  19658863.7724   -6050612.69046  -4671037.97762
  18165210.1394  -22994714.55647 -17818179.21964
  21421911.2874   -3914711.44845
  21163565.732   -11610169.909 6  -8850822.16121
  20639999.193    -9091292.393 5  -6795972.28621
 93  5 21 18 54 44.9900000  0  6G27G19G 2G13G15G26
  17543381.6394  -19312420.26147 -14961236.46864
  19659759.4824   -6045910.74246  -4667374.16662
  18158706.9514  -23028891.12747 -17844810.30664
  21404662.061    -4005349.499 4        -0.22931
  21155107.5764  -11654616.87646  -8885456.16661
  20628269.4904   -9152959.44045  -6844024.52261
 93  5 21 18 54 59.9900000  0  6G27G19G 2G13G15G26
  17539833.4904  -19331047.85347 -14975751.48164
  19660663.9674   -6041130.09245  -4663649.00861
  18152215.0294  -23063017.52348 -17871402.30464
  21387420.045    -4095961.881 5    -70607.17221
  21146672.9594  -11698941.50645  -8919994.80661
  20616553.5684   -9214514.47645  -6891989.47561
 93  5 21 18 55 14.9900000  0  6G27G19G 2G13G15G26
  17536313.6544  -19349555.49647 -14990173.02763
  19661593.4824   -6036272.84446  -4659864.18262
  18145725.3264  -23097098.49047 -17897958.89864
  21370179.217    -4186550.032 4   -141195.22021
  21138261.5764  -11743145.31145  -8954439.31861
  20604854.639    -9275959.401 4  -6939868.63021
 93  5 21 18 55 29.9900000  0  6G27G19G 2G13G15G26
  17532814.850   -19367942.863 7 -15004500.85623
  19662529.6474   -6031338.80146  -4656019.51061
  18139249.9124  -23131134.29247 -17924480.29764
  21352943.334    -4277112.229 4   -211763.09821
  21129872.162   -11787226.874 6  -8988788.58021
  20593183.1394   -9337292.30944  -6987660.47561
 93  5 21 18 55 44.9900000  0  6G27G19G 2G13G15G26
  17529337.6704  -19386209.39047 -15018734.51763
  19663487.717    -6026328.528 6  -4652115.43721
  18132780.6234  -23165127.81347 -17950968.75064
  21335715.2094   -4367649.97144   -282311.86761
  21121506.4594  -11831187.67846  -9023043.75261
  20581540.2254   -9398515.01444  -7035366.45461
 93  5 21 18 55 59.9900000  0  6G27G19G 2G13G15G26
  17525884.9124  -19404356.24847 -15032874.93363
  19664448.5614   -6021241.21946  -4648151.34561
  18126320.9514  -23199077.70948 -17977423.21664
  21318492.8574   -4458161.46444   -352840.21661
  21113167.904   -11875025.927 6  -9057203.40221
  20569910.701    -9459627.243 5  -7082986.36721
 93  5 21 18 56 14.9900000  0  6G27G19G 2G13G15G26
  17522455.1544  -19422382.44447 -15046921.32664
  19665434.1704   -6016077.62946  -4644127.80361
  18119869.4044  -23232981.73348 -18003841.93264
  21301276.0614   -4548645.37744   -423347.07861
  21104842.592   -11918740.310 5  -9091266.54621
  20558300.397    -9520630.187 5  -7130521.10821
 93  5 21 18 56 29.9900000  0  6G27G19G 2G13G15G26
  17519049.1784  -19440288.44547 -15060874.06164
  19666431.162    -6010837.239 6  -4640044.42821
  18113425.2874  -23266838.15447 -18030223.55864
  21284068.498    -4639100.930 5   -493831.81921
  21096550.428   -11962330.358 5  -9125232.79421
  20546713.725    -9581521.260 5  -7177968.68521
 93  5 21 18 56 44.9900000  0  6G27G19G 2G13G15G26
  17515661.725   -19458078.106 7 -15074736.14924
  19667438.1784   -6005525.22845  -4635905.23561
  18106990.5454  -23300650.94647 -18056571.18664
  21266856.8974   -4729531.89045   -564297.39161
  21088277.459   -12005799.999 5  -9159105.22121
  20535149.2564   -9642300.39945  -7225329.04161
 93  5 21 18 56 59.9900000  0  6G27G19G 2G13G15G26
  17512298.5614  -19475748.85547 -15088505.56864
  19668466.7874   -6000139.36146  -4631708.47961
  18100566.9514  -23334416.60748 -18082882.09264
  21249649.350    -4819935.700 4   -634741.79921
  21080032.0534  -12049146.70846  -9192881.87061
  20523600.342    -9702964.622 5  -7272599.87221
 93  5 21 18 57 14.9900000  0  6G27G19G 2G13G15G26
  17508958.3734  -19493302.48547 -15102183.72364
  19669503.2954   -5994678.74545  -4627453.49461
  18094152.0614  -23368129.63248 -18109151.97964
  21232447.5844   -4910310.17344   -705163.37561
  21071806.6314  -12092368.85846  -9226561.46461
  20512078.951    -9763511.887 5  -7319779.54721
 93  5 21 18 57 29.9900000  0  6G27G19G 2G13G15G26
  17505641.3264  -19510743.22347 -15115773.91164
  19670557.8034   -5989144.16045  -4623140.86761
  18087746.5764  -23401788.45548 -18135379.63064
  21215257.732    -5000654.495 4   -775561.45621
  21063606.9754  -12135465.77846  -9260143.45461
  20500581.4904   -9823943.86245  -7366869.37961
 93  5 21 18 57 44.9900000  0  6G27G19G 2G13G15G26
  17502339.7094  -19528080.40047 -15129283.40764
  19671626.0454   -5983541.44446  -4618775.15061
  18081351.3814  -23435402.02048 -18161572.01964
  21198074.115    -5090975.746 5   -845941.58621
  21055423.9284  -12178444.45945  -9293633.32161
  20489102.3504   -9884267.66045  -7413874.91861
 93  5 21 18 57 59.9900000  0  6G27G19G 2G13G15G26
  17499062.5614  -19545312.07447 -15142710.69364
  19672703.2254   -5977868.70246  -4614354.86961
  18074962.2564  -23468967.10947 -18187726.63064
  21180891.076    -5181269.574 4   -916300.35721
  21047268.5454  -12221300.65845  -9327027.76261
  20477641.6004   -9944479.04644  -7460792.87361
 93  5 21 18 58 14.9900000  0  6G27G19G 2G13G15G26
  17495802.3734  -19562439.08347 -15156056.42363
  19673798.209    -5972126.577 5  -4609880.52821
  18068585.193   -23502481.329 8 -18213841.59524
  21163712.2794   -5271535.19844   -986637.06461
  21039137.6474  -12264033.81745  -9360326.32461
  20466206.4204  -10004577.21944  -7507622.57861
 93  5 21 18 58 29.9900000  0  6G27G19G 2G13G15G26
  17492562.4364  -19579456.59647 -15169316.82864
  19674902.3114   -5966309.92246  -4605348.10661
  18062217.6474  -23535943.46648 -18239915.98764
  21146540.881    -5361770.903 4  -1056950.51921
  21031028.201   -12306642.401 5  -9393527.80121
  20454798.7954  -10064560.13144  -7554362.49661
 93  5 21 18 58 44.9900000  0  6G27G19G 2G13G15G26
  17489346.4364  -19596366.13547 -15182493.09664
  19676023.6624   -5960420.98445  -4600759.35561
  18055858.8974  -23569356.68248 -18265952.26064
  21129372.8184   -5451979.23144  -1127242.61661
  21022943.732   -12349129.134 5  -9426634.34221
  20443400.5454  -10124427.61243  -7601012.46061
 93  5 21 18 58 59.9900000  0  6G27G19G 2G13G15G26
  17486149.5454  -19613163.47547 -15195581.94064
  19677160.3264   -5954458.06846  -4596112.96661
  18049509.4904  -23602719.04048 -18291948.90264
  21112217.897    -5542158.155 4  -1197511.81121
  21014881.022   -12391492.134 5  -9459644.42521
  20432028.6544  -10184180.82544  -7647573.35561
 93  5 21 18 59 14.9900000  0  6G27G19G 2G13G15G26
  17482976.732   -19629845.614 7 -15208581.02724
  19678311.7484   -5948419.17146  -4591407.37161
  18043172.1074  -23636027.10748 -18317903.23664
  21095064.2174   -5632305.43845  -1267756.34061
  21006847.3894  -12433729.21845  -9492556.42861
  20420677.9434  -10243817.82344  -7694043.75961
 93  5 21 18 59 29.9900000  0  6G27G19G 2G13G15G26
  17479824.162   -19646414.165 7 -15221491.59924
  19679470.2254   -5942307.06646  -4586644.73061
  18036842.4674  -23669285.00447 -18343818.47964
  21077913.2564   -5722422.74744  -1337977.52761
  20998832.5064  -12475842.08345  -9525371.63461
  20409351.881   -10303341.078 4  -7740425.46721
 93  5 21 18 59 44.9900000  0  6G27G19G 2G13G15G26
  17476692.8344  -19662865.69647 -15234310.97764
  19680652.2484   -5936119.57646  -4581823.35361
  18030526.2644  -23702493.04848 -18369694.87664
  21060764.8504   -5812508.43244  -1408174.09361
  20990842.889   -12517829.625 6  -9558089.18921
  20398049.4674  -10362748.08844  -7786716.60161
 93  5 21 18 59 59.9900000  0  6G27G19G 2G13G15G26
  17473584.9434  -19679196.93947 -15247036.62564
  19681841.4284   -5929857.79646  -4576944.07761
  18024214.9824  -23735649.89248 -18395531.37964
  21043631.256    -5902562.980 5  -1478346.36121
  20982878.2954  -12559692.21546  -9590709.38261
  20386765.4904  -10422036.53045  -7832915.35361
 93  5 21 19  0 14.9900000  0  6G27G19G 2G13G15G26
  17470500.600   -19695403.935 7 -15259665.46924
  19683047.717    -5923516.698 6  -4572003.00821
  18017914.0294  -23768749.51447 -18421323.28964
  21026500.8034   -5992583.44145  -1548492.06661
  20974932.6234  -12601426.83445  -9623229.84061
  20375504.4364  -10481202.82645  -7879018.95361
 93  5 21 19  0 29.9900000  0  6G27G19G 2G13G15G26
  17467440.256   -19711485.209 7 -15272196.34524
  19684267.4824   -5917094.18046  -4566998.48661
  18011627.4124  -23801791.60147 -18447070.36364
  21009377.9434   -6082569.37845  -1618610.86461
  20967016.131   -12643033.578 5  -9655650.65521
  20364271.6474  -10540247.18145  -7925027.54861
 93  5 21 19  0 44.9900000  0  6G27G19G 2G13G15G26
  17464404.7094  -19727443.19347 -15284631.14764
  19685510.0684   -5910592.44146  -4561932.22161
  18005351.2644  -23834779.47047 -18472775.19564
  20992257.8894   -6172521.28345  -1688703.17261
  20959127.7404  -12684513.12945  -9687972.36061
  20353054.1314  -10599169.89545  -7970941.33461
 93  5 21 19  0 59.9900000  0  6G27G19G 2G13G15G26
  17461388.4044  -19743282.85547 -15296973.74464
  19686764.4514   -5904017.58246  -4556809.00161
  17999082.9594  -23867716.36547 -18498440.30864
  20975148.4594   -6262441.06345  -1758770.41161
  20951254.1314  -12725867.62946  -9720196.64861
  20341861.897   -10657974.643 5  -8016763.18921
 93  5 21 19  1 14.9900000  0  6G27G19G 2G13G15G26
  17458395.6864  -19759004.85847 -15309224.66964
  19688023.9514   -5897367.20546  -4551626.93761
  17992825.7254  -23900602.47247 -18524065.84064
  20958045.451    -6352326.547 5  -1828810.94421
  20943412.0374  -12767094.84946  -9752321.72361
  20330694.811   -10716660.274 5  -8062492.22221
 93  5 21 19  1 29.9900000  0  6G27G19G 2G13G15G26
  17455428.2254  -19774611.67947 -15321385.83964
  19689302.975    -5890641.664 6  -4546386.29021
  17986575.9204  -23933440.00947 -18549653.53064
  20940946.147    -6442177.331 5  -1898824.45821
  20935589.0764  -12808194.63946  -9784347.53061
  20319554.584   -10775226.277 5  -8108128.05021
 93  5 21 19  1 44.9900000  0  6G27G19G 2G13G15G26
  17452481.2874  -19790106.56947 -15333459.78564
  19690600.1474   -5883843.98546  -4541089.43861
  17980335.8814  -23966232.44448 -18575206.07264
  20923853.6004   -6531995.24345  -1968812.32861
  20927792.467   -12849169.001 5  -9816275.58921
  20308429.7254  -10833673.92545  -8153671.62161
 93  5 21 19  1 59.9900000  0  6G27G19G 2G13G15G26
  17449552.053   -19805487.957 7 -15345445.29624
  19691903.9204   -5876972.45346  -4535735.03761
  17974104.9364  -23998978.37948 -18600722.38364
  20906767.389    -6621779.258 5  -2038773.79721
  20920016.615   -12890016.952 5  -9848105.13421
  20297334.936   -10892001.782 5  -8199121.85821
 93  5 21 19  2 14.9900000  0  6G27G19G 2G13G15G26
  17446644.0614  -19820758.18647 -15357344.18664
  19693227.139    -5870030.564 5  -4530325.81821
  17967883.0614  -24031679.96148 -18626204.13564
  20889689.4284   -6711530.99345  -2108710.09561
  20912271.131   -12930740.382 5  -9879837.68821
  20286255.725   -10950213.703 5  -8244481.78621
 93  5 21 19  2 29.9900000  0  6G27G19G 2G13G15G26
  17443764.4594  -19835912.67847 -15369152.88564
  19694559.8574   -5863013.98046  -4524858.39661
  17961669.7644  -24064329.38648 -18651645.24964
  20872618.9674   -6801243.95145  -2178616.22861
  20904546.4124  -12971333.14845  -9911468.36161
  20275199.061   -11008304.336 5  -8289747.19921
 93  5 21 19  2 44.9900000  0  6G27G19G 2G13G15G26
  17440898.670   -19850957.817 7 -15380876.38024
  19695910.389    -5855931.567 5  -4519339.66721
  17955463.5614  -24096934.06547 -18677051.49164
  20855552.889    -6890922.617 5  -2248495.60321
  20896842.701   -13011799.702 5  -9943000.72721
  20264167.8184  -11066279.04245  -8334922.28361
 93  5 21 19  2 59.9900000  0  6G27G19G 2G13G15G26
  17438059.717   -19865888.477 7 -15392510.67624
  19697265.936    -5848780.894 5  -4513767.76021
  17949268.6624  -24129488.44348 -18702418.53864
  20838494.272    -6980562.271 5  -2318344.58621
  20889169.8814  -13052135.63245  -9974431.29161
  20253160.9044  -11124132.75845  -8380003.08461
 93  5 21 19  3 14.9900000  0  6G27G19G 2G13G15G26
  17435240.4904  -19880703.45347 -15404054.81764
  19698645.3974   -5841562.40645  -4508142.99961
  17943084.6474  -24161993.50148 -18727747.16264
  20821446.5064   -7070163.40445  -2388163.49361
  20881517.553   -13092341.476 5 -10005760.48321
  20242174.014   -11181864.262 5  -8424988.67921
 93  5 21 19  3 29.9900000  0  6G27G19G 2G13G15G26
  17432441.225   -19895406.483 7 -15415511.73624
  19700026.4284   -5834282.58945  -4502470.44861
  17936905.9904  -24194452.64448 -18753040.00664
  20804399.0924   -7159731.09145  -2457956.41061
  20873889.334   -13132422.528 5 -10036992.46421
  20231211.1394  -11239476.08945  -8469880.97261
 93  5 21 19  3 44.9900000  0  6G27G19G 2G13G15G26
  17429662.7174  -19909996.92947 -15426880.91964
  19701426.8504   -5826942.07845  -4496750.62161
  17930741.7564  -24226864.81848 -18778296.24864
  20787363.764    -7249264.630 5  -2527722.70721
  20866286.3264  -13172378.38945 -10068126.88861
  20220272.295   -11296966.890 5  -8514679.00321
 93  5 21 19  3 59.9900000  0  6G27G19G 2G13G15G26
  17426911.6474  -19924468.89647 -15438157.77464
  19702833.1314   -5819534.81245  -4490978.78561
  17924579.3184  -24259223.92548 -18803511.13764
  20770333.670    -7338758.471 5  -2597458.05321
  20858707.576   -13212203.493 5 -10099159.41021
  20209355.779   -11354332.345 5  -8559379.33021
 93  5 21 19  4 14.9900000  0  6G27G19G 2G13G15G26
  17424179.7794  -19938826.18447 -15449345.27964
  19704261.404    -5812063.520 5  -4485157.02121
  17918434.2794  -24291531.24347 -18828685.67464
  20753311.068    -7428214.168 5  -2667163.68321
  20851152.881   -13251899.756 5 -10130091.51721
  20198459.139   -11411576.456 5  -8603985.11321
 93  5 21 19  4 29.9900000  0  6G27G19G 2G13G15G26
  17421467.232   -19953073.745 7 -15460447.29324
  19705689.0374   -5804528.08846  -4479285.31761
  17912295.5924  -24323787.78447 -18853820.64764
  20736294.506    -7517633.188 5  -2736840.72621
  20843621.209   -13291468.821 5 -10160924.49921
  20187591.1544  -11468700.96345  -8648497.71161
 93  5 21 19  4 44.9900000  0  6G27G19G 2G13G15G26
  17418777.764   -19967213.006 7 -15471464.91024
  19707141.3894   -5796928.69946  -4473363.74061
  17906163.4674  -24355998.21747 -18878919.68264
  20719285.4044   -7607015.87345  -2806489.49061
  20836117.740   -13330910.913 5 -10191658.57821
  20176739.889   -11525704.578 5  -8692916.09421
 93  5 21 19  4 59.9900000  0  6G27G19G 2G13G15G26
  17416107.8814  -19981240.90047 -15482395.74764
  19708597.4364   -5789262.53046  -4467390.14861
  17900044.3344  -24388163.95248 -18903983.88864
  20702281.459    -7696360.022 5  -2876108.16621
  20828637.951   -13370224.068 5 -10222292.18621
  20165922.131   -11582585.257 5  -8737238.66421
 93  5 21 19  5 14.9900000  0  6G27G19G 2G13G15G26
  17413460.1624  -19995153.93847 -15493237.07764
  19710071.498    -5781525.443 5  -4461361.29421
  17893934.2404  -24420283.61448 -18929012.20964
  20685283.748    -7785664.555 5  -2945696.05421
  20821175.529   -13409407.438 5 -10252824.66021
  20155118.131   -11639342.281 5  -8781464.90821
 93  5 21 19  5 29.9900000  0  6G27G19G 2G13G15G26
  17410834.193   -20008956.062 7 -15503991.99224
  19711557.951    -5773717.009 5  -4455276.85521
  17887829.4364  -24452358.19348 -18954005.38164
  20668300.092    -7874931.074 5  -3015254.29021
  20813749.4284  -13448462.95045 -10283257.49861
  20144342.006   -11695979.284 5  -8825597.61121
 93  5 21 19  5 44.9900000  0  6G27G19G 2G13G15G26
  17408226.7644  -20022645.05147 -15514658.74364
  19713054.756    -5765831.116 5  -4449132.04421
  17881734.7404  -24484383.82048 -18978960.42464
  20651318.8574   -7964155.74845  -3084779.88961
  20806341.8424  -13487386.79745 -10313587.75861
  20133590.7404  -11752494.88745  -8869635.73961
 93  5 21 19  5 59.9900000  0  6G27G19G 2G13G15G26
  17405644.225   -20036221.664 7 -15525237.94224
  19714567.2724   -5757868.76545  -4442927.66661
  17875650.0764  -24516365.39648 -19003881.14264
  20634355.686    -8053340.644 5  -3154274.48121
  20798963.8184  -13526181.45546 -10343817.32161
  20122857.100   -11808893.712 5  -8913582.85421
 93  5 21 19  6 14.9890000  0  6G27G19G 2G13G15G26
  17403081.1104  -20049681.58647 -15535726.19664
  19716102.0794   -5749829.66445  -4436663.46861
  17869571.7904  -24548298.28947 -19028763.92164
  20617385.2674   -8142478.26045  -3223732.28661
  20791601.860   -13564843.065 5 -10373943.23221
  20112146.743   -11865170.351 6  -8957434.77121
 93  5 21 19  6 29.9890000  0  6G27G19G 2G13G15G26
  17400542.821   -20063029.852 7 -15546127.46224
  19717640.657    -5741714.673 5  -4430340.15021
  17863505.6654  -24580190.27948 -19053614.82664
  20600431.353    -8231583.277 5  -3293164.66821
  20784264.915   -13603379.662 5 -10403971.72621
  20101458.7824  -11921333.25246  -9001198.07861
 93  5 21 19  6 44.9890000  0  6G27G19G 2G13G15G26
  17398024.4784  -20076261.10047 -15556437.53764
  19719203.985    -5733524.403 5  -4423958.15821
  17857443.4464  -24612041.33548 -19078433.83264
  20583481.923    -8320648.073 5  -3362565.69721
  20776961.439   -13641787.139 5 -10433899.61221
  20090796.4934  -11977375.81746  -9044867.60061
 93  5 21 19  6 59.9890000  0  6G27G19G 2G13G15G26
  17395531.2514  -20089370.80847 -15566652.90064
  19720775.1424   -5725260.55545  -4417518.84061
  17851387.9544  -24643850.42247 -19103220.13664
  20566546.314    -8409670.824 5  -3431934.00121
  20769679.759   -13680063.741 6 -10463725.52621
  20080156.3844  -12033296.11046  -9088441.81661
 93  5 21 19  7 14.9890000  0  6G27G19G 2G13G15G26
  17393059.524   -20102363.384 7 -15576776.99824
  19722363.517    -5716924.093 5  -4411022.93321
  17845343.9154  -24675618.54747 -19127974.51864
  20549609.3684   -8498654.51445  -3501271.83661
  20762417.923   -13718212.770 6 -10493452.02321
  20069535.5644  -12089100.48146  -9131925.72661
 93  5 21 19  7 29.9890000  0  6G27G19G 2G13G15G26
  17390610.4704  -20115236.70347 -15586808.16864
  19723965.3214   -5708511.22845  -4404467.50561
  17839308.4784  -24707342.11948 -19152694.18064
  20532686.7354   -8587595.87745  -3570576.71661
  20755183.626   -13756231.252 6 -10523076.79621
  20058939.6264  -12144784.71346  -9175316.01861
 93  5 21 19  7 44.9890000  0  6G27G19G 2G13G15G26
  17388181.532   -20127992.272 7 -15596747.58124
  19725578.798    -5700021.558 5  -4397852.21721
  17833280.6814  -24739022.60748 -19177380.28164
  20515767.2984   -8676493.72345  -3639847.67561
  20747972.978   -13794118.246 6 -10552599.08921
  20048362.6654  -12200348.70545  -9218612.61761
 93  5 21 19  7 59.9890000  0  6G27G19G 2G13G15G26
  17385775.681   -20140628.126 7 -15606593.71324
  19727209.212    -5691458.638 5  -4391179.87221
  17827259.5714  -24770660.80948 -19202033.43264
  20498859.5714   -8765347.39245  -3709084.20061
  20740787.3764  -13831873.19046 -10582018.52561
  20037817.7284  -12255791.08846  -9261814.44261
 93  5 21 19  8 14.9890000  0  6G27G19G 2G13G15G26
  17383394.4234  -20153146.47347 -15616348.27664
  19728848.8534   -5682825.16345  -4384452.53161
  17821245.0324  -24802254.87048 -19226652.18964
  20481962.7514   -8854157.33045  -3778286.67361
  20733630.915   -13869496.658 6 -10611335.50621
  20027289.3214  -12311112.63646  -9304922.12861
 93  5 21 19  8 29.9890000  0  6G27G19G 2G13G15G26
  17381035.0244  -20165550.50447 -15626013.76464
  19730505.009    -5674119.709 5  -4377669.10121
  17815243.5404  -24833803.07547 -19251235.20364
  20465068.485    -8942922.429 5  -3847454.15621
  20726497.3764  -13906987.90346 -10640549.44461
  20016775.6814  -12366314.43445  -9347936.52061
 93  5 21 19  8 44.9890000  0  6G27G19G 2G13G15G26
  17378698.0174  -20177841.25347 -15635590.98364
  19732176.7354   -5665343.92545  -4370830.85961
  17809248.0874  -24865306.48248 -19275783.31964
  20448182.251    -9031643.151 5  -3916587.15021
  20719386.946   -13944347.601 6 -10669660.87421
  20006294.1104  -12421396.81246  -9390857.83661
 93  5 21 19  8 59.9890000  0  6G27G19G 2G13G15G26
  17376378.642   -20190015.587 7 -15645077.48324
  19733859.806    -5656495.792 5  -4363936.26221
  17803265.2434  -24896760.96448 -19300293.31064
  20431310.5244   -9120317.29945  -3985683.78861
  20712301.892   -13981573.659 6 -10698668.17721
  19995841.8994  -12476358.72046  -9433685.28361
 93  5 21 19  9 14.9890000  0  6G27G19G 2G13G15G26
  17374085.8604  -20202070.70447 -15654471.09264
  19735561.548    -5647572.256 5  -4356982.90321
  17797286.9314  -24928159.40547 -19324759.63064
  20414442.4544   -9208942.93245  -4054742.65261
  20705240.5324  -14018664.45546 -10727570.07661
  19985401.118   -12531201.000 6  -9476419.50721
 93  5 21 19  9 29.9890000  0  6G27G19G 2G13G15G26
  17371812.0484  -20214009.59447 -15663774.12363
  19737269.939    -5638576.956 5  -4349973.62521
  17791324.4394  -24959503.60348 -19349183.67864
  20397586.3844   -9297523.23945  -4123766.20761
  20698210.532   -14055623.240 6 -10756369.14221
  19974992.251   -12585925.419 6  -9519061.89021
 93  5 21 19  9 44.9890000  0  6G27G19G 2G13G15G26
  17369564.4074  -20225829.63947 -15672984.55264
  19738994.1494   -5629512.85545  -4342910.74561
  17785372.0244  -24990792.44148 -19373564.58764
  20380744.7744   -9386057.04245  -4192753.47961
  20691200.892   -14092449.252 6 -10785064.70721
  19964596.7044  -12640530.17346  -9561611.03461
 93  5 21 19  9 59.9890000  0  6G27G19G 2G13G15G26
  17367338.509   -20237531.586 7 -15682102.96724
  19740732.368    -5620384.965 5  -4335798.15221
  17779426.1494  -25022024.96948 -19397901.62664
  20363903.173    -9474545.209 5  -4261705.24021
  20684220.259   -14129143.358 5 -10813657.50321
  19954230.274   -12695016.484 6  -9604067.89821
 93  5 21 19 10 14.9890000  0  6G27G19G 2G13G15G26
  17365132.0244  -20249117.67247 -15691131.09664
  19742483.5484   -5611195.66345  -4328637.69361
  17773493.8064  -25053203.73248 -19422196.77164
  20347072.7284   -9562989.46545  -4330622.76661
  20677260.2434  -14165707.61646 -10842149.11861
  19943889.6344  -12749383.36546  -9646431.69561
 93  5 21 19 10 29.9890000  0  6G27G19G 2G13G15G26
  17362950.1734  -20260580.62347 -15700063.26964
  19744241.024    -5601935.316 5  -4321421.87621
  17767569.8844  -25084325.08548 -19446447.16964
  20330250.212    -9651384.087 5  -4399501.60921
  20670331.9544  -14202136.58246 -10870535.30061
  19933565.6654  -12803625.11746  -9688697.98161
 93  5 21 19 10 44.9890000  0  6G27G19G 2G13G15G26
  17360792.6424  -20271915.31547 -15708895.50364
  19746022.540    -5592603.989 5  -4314150.77121
  17761660.3604  -25115391.22048 -19470654.55164
  20313442.6104   -9739728.05045  -4468340.99861
  20663422.4704  -14238429.09646 -10898815.17161
  19923263.892   -12857738.629 6  -9730864.33621
 93  5 21 19 10 59.9890000  0  6G27G19G 2G13G15G26
  17358662.0564  -20283121.06947 -15717627.26764
  19747806.485    -5583203.814 5  -4306826.00721
  17755757.7674  -25146404.69148 -19494820.89564
  20296640.798    -9828022.209 5  -4537141.55221
  20656541.743   -14274586.485 5 -10926989.74721
  19912994.501   -12911725.487 6  -9772932.01021
 93  5 21 19 11 14.9890000  0  6G27G19G 2G13G15G26
  17356553.9074  -20294200.29647 -15726260.43764
  19749613.626    -5573736.398 5  -4299448.84521
  17749864.4464  -25177367.77048 -19518947.96764
  20279848.1034   -9916267.14945  -4605903.75361
  20649689.5324  -14310609.47845 -10955059.60561
  19902745.274   -12965585.746 6  -9814901.03721
 93  5 21 19 11 29.9890000  0  6G27G19G 2G13G15G26
  17354468.7514  -20305158.69847 -15734799.45764
  19751420.931    -5564205.544 5  -4292022.25521
  17743980.4314  -25208285.17848 -19543039.45564
  20263058.196   -10004463.678 5  -4674628.24521
  20642857.681   -14346499.112 6 -10983025.52721
  19892521.704   -13019318.748 6  -9856770.88921
 93  5 21 19 11 44.9890000  0  6G27G19G 2G13G15G26
  17352403.9314  -20315997.87647 -15743245.58164
  19753250.274    -5554609.217 5  -4284544.63321
  17738105.1574  -25239159.83348 -19567097.63664
  20246289.282   -10092610.189 5  -4743313.79421
  20636049.993   -14382254.029 6 -11010886.48621
  19882320.6424  -13072921.55246  -9898539.30161
 93  5 21 19 11 59.9890000  0  6G27G19G 2G13G15G26
  17350364.681   -20326722.075 7 -15751602.10724
  19755091.4234   -5544948.70045  -4277017.02461
  17732238.5644  -25269995.87648 -19591125.72364
  20229523.478   -10180708.700 5  -4811961.90921
  20629274.587   -14417876.561 6 -11038644.27821
  19872143.095   -13126397.766 6  -9940209.05721
 93  5 21 19 12 14.9890000  0  6G27G19G 2G13G15G26
  17348347.2594  -20337328.13747 -15759866.58764
  19756944.337    -5535219.509 5  -4269435.89421
  17726378.7434  -25300790.44048 -19615121.48464
  20212771.5174  -10268754.92945  -4880569.27961
  20622521.329   -14453362.886 6 -11066295.94121
  19861990.915   -13179740.022 6  -9981774.43121
 93  5 21 19 12 29.9890000  0  6G27G19G 2G13G15G26
  17346348.5714  -20347818.87347 -15768041.19464
  19758802.360    -5525421.926 5  -4261801.45521
  17720526.3924  -25331545.81248 -19639086.71264
  20196028.3454  -10356751.28145  -4949137.80461
  20615793.978   -14488715.609 6 -11093843.50521
  19851861.767   -13232953.437 6 -10023239.42021
 93  5 21 19 12 44.9890000  0  6G27G19G 2G13G15G26
  17344375.212   -20358193.265 7 -15776125.14724
  19760683.259    -5515559.358 5  -4254116.38221
  17714681.2674  -25362257.79948 -19663018.13464
  20179293.821   -10444697.041 5  -5017666.87121
  20609089.485   -14523934.002 6 -11121286.39521
  19841763.876   -13286039.398 6 -10064605.08821
 93  5 21 19 12 59.9890000  0  6G27G19G 2G13G15G26
  17342423.9394  -20368454.94947 -15784121.27364
  19762568.6964   -5505633.23145  -4246381.78461
  17708844.9544  -25392925.42948 -19686914.99064
  20162565.9234  -10532591.44445  -5086155.93561
  20602416.3144  -14559017.51145 -11148624.18161
  19831687.1654  -13338996.41546 -10105870.29161
 93  5 21 19 13 14.9890000  0  6G27G19G 2G13G15G26
  17340493.103   -20378607.784 7 -15792032.58424
  19764475.3534   -5495642.55745  -4238596.87261
  17703018.7044  -25423545.84948 -19710775.06164
  20145847.532   -10620433.037 5  -5154603.89221
  20595763.2744  -14593965.01545 -11175855.98061
  19821638.290   -13391820.983 6 -10147032.26821
 93  5 21 19 13 29.9890000  0  6G27G19G 2G13G15G26
  17338579.868   -20388652.890 7 -15799859.95024
  19766391.923    -5485587.528 5  -4230761.83621
  17697201.790   -25454119.218 8 -19734598.47424
  20129140.5644  -10708221.73945  -5223010.59061
  20589145.1734  -14628776.64245 -11202981.89061
  19811606.7904  -13444512.42346 -10188090.52161
 93  5 21 19 13 44.9890000  0  6G27G19G 2G13G15G26
  17336690.2824  -20398590.19647 -15807603.31464
  19768311.0794   -5475465.64645  -4222874.71461
  17691389.8604  -25484645.24847 -19758384.99564
  20112444.3924  -10795958.48945  -5291376.80561
  20582544.0174  -14663453.39845 -11230002.74561
  19801603.8604  -13497074.14946 -10229047.70161
 93  5 21 19 13 59.9890000  0  6G27G19G 2G13G15G26
  17334818.673   -20408417.596 7 -15815261.04424
  19770252.9314   -5465276.37645  -4214935.06661
  17685594.8144  -25515122.22348 -19782133.29364
  20095760.634   -10883643.328 5  -5359702.59921
  20575969.876   -14697995.831 5 -11256918.91321
  19791626.392   -13549507.094 6 -10269904.53221
 93  5 21 19 14 14.9890000  0  6G27G19G 2G13G15G26
  17332972.3064  -20418133.76747 -15822832.09764
  19772203.329    -5455019.736 5  -4206942.92521
  17679802.6264  -25545547.19548 -19805841.06664
  20079083.134   -10971274.179 5  -5427986.32221
  20569424.571   -14732401.803 5 -11283728.74421
  19781673.126   -13601806.677 6 -10310657.43221
 93  5 21 19 14 29.9890000  0  6G27G19G 2G13G15G26
  17331140.446   -20427738.284 7 -15830316.14224
  19774165.899    -5444694.244 5  -4198897.14521
  17674023.1654  -25575919.51548 -19829507.81164
  20062420.5484  -11058849.16545  -5496226.51661
  20562900.0644  -14766669.71645 -11310431.01561
  19771745.2284  -13653972.27646 -10351305.95361
 93  5 21 19 14 44.9890000  0  6G27G19G 2G13G15G26
  17329334.4544  -20437235.03147 -15837716.21464
  19776147.0174   -5434302.41345  -4190799.64961
  17668250.5174  -25606243.14647 -19853136.62764
  20045765.5714  -11146371.71845  -5564425.79861
  20556409.360   -14800803.259 6 -11337028.54321
  19761845.3214  -13706011.42546 -10391855.92861
 93  5 21 19 14 59.9890000  0  6G27G19G 2G13G15G26
  17327549.095   -20446621.699 7 -15845030.50924
  19778132.767    -5423840.115 5  -4182647.26221
  17662492.0324  -25636520.67048 -19876729.50864
  20029121.087   -11233839.387 5  -5632582.37421
  20549932.868   -14834800.313 5 -11363519.75621
  19751968.2824  -13757920.11846 -10432304.24861
 93  5 21 19 15 14.9890000  0  6G27G19G 2G13G15G26
  17325784.618   -20455898.600 7 -15852259.27624
  19780139.0954   -5413306.11545  -4174438.99561
  17656736.8454  -25666753.83047 -19900287.81564
  20012487.759   -11321252.292 5  -5700696.23221
  20543491.6964  -14868661.22545 -11389904.87461
  19742111.743   -13809698.017 6 -10472650.65521
 93  5 21 19 15 29.9890000  0  6G27G19G 2G13G15G26
  17324039.470   -20465065.161 7 -15859402.07224
  19782156.0404   -5402704.01445  -4166177.66661
  17650992.7204  -25696943.81347 -19923812.48164
  19995863.1494  -11408612.81545  -5768769.30661
  20537077.6104  -14902388.95446 -11416186.21961
  19732289.024   -13861350.083 6 -10512899.00121
 93  5 21 19 15 44.9890000  0  6G27G19G 2G13G15G26
  17322315.6814  -20474115.70547 -15866454.45764
  19784188.7434   -5392031.59545  -4157861.56161
  17645254.9074  -25727088.27247 -19947301.67764
  19979248.673   -11495919.290 5  -5836800.28021
  20530685.7744  -14935981.51946 -11442362.21361
  19722479.954   -13912876.375 6 -10553049.33721
 93  5 21 19 15 59.9890000  0  6G27G19G 2G13G15G26
  17320619.407   -20483042.944 7 -15873410.75524
  19786229.462    -5381285.840 5  -4149488.29521
  17639530.0484  -25757182.97948 -19970752.10164
  19962648.1964  -11583167.21345  -5904785.60661
  20524315.751   -14969434.763 5 -11468429.67421
  19712700.892   -13964270.120 6 -10593096.39021
 93  5 21 19 16 14.9890000  0  6G27G19G 2G13G15G26
  17318943.165   -20491851.710 7 -15880274.74324
  19788289.985    -5370474.820 5  -4141064.18421
  17633813.189   -25787232.515 8 -19994167.33524
  19946052.5564  -11670360.02845  -5972727.99561
  20517972.798   -15002752.540 5 -11494391.55221
  19702945.337   -14015534.349 6 -10633042.52721
 93  5 21 19 16 29.9890000  0  6G27G19G 2G13G15G26
  17317289.446   -20500538.087 7 -15887043.35524
  19790358.1344   -5359594.80745  -4132586.31061
  17628102.7434  -25817235.51448 -20017546.30664
  19929472.899   -11757495.055 5  -6040625.37421
  20511660.9154  -15035932.41245 -11520245.99661
  19693215.7044  -14066668.51846 -10672887.32261
 93  5 21 19 16 44.9890000  0  6G27G19G 2G13G15G26
  17315660.439   -20509103.161 7 -15893717.45624
  19792445.915    -5348645.849 5  -4124054.71221
  17622403.0014  -25847193.65047 -20040890.31464
  19912902.0644  -11844574.43345  -6108479.34661
  20505370.7284  -15068976.76245 -11545994.84561
  19683505.7674  -14117680.53046 -10712636.93861
 93  5 21 19 16 59.9890000  0  6G27G19G 2G13G15G26
  17314053.595   -20517544.956 7 -15900295.49124
  19794534.024    -5337627.373 5  -4115468.93321
  17616708.6734  -25877106.38147 -20064198.94064
  19896340.962   -11931597.379 5  -6176289.39921
  20499111.4934  -15101885.02546 -11571637.60361
  19673824.8684  -14168567.25346 -10752288.92361
 93  5 21 19 17 14.9890000  0  6G27G19G 2G13G15G26
  17312468.548   -20525862.505 7 -15906776.71224
  19796653.5644   -5326540.08845  -4106829.54661
  17611028.3844  -25906971.75048 -20087470.65664
  19879789.204   -12018562.616 5  -6244054.44921
  20492872.3924  -15134656.30945 -11597173.65361
  19664164.579   -14219325.940 6 -10791841.13121
 93  5 21 19 17 29.9890000  0  6G27G19G 2G13G15G26
  17310909.2744  -20534055.14447 -15913160.59764
  19798773.5014   -5315384.74945  -4098137.13161
  17605352.5954  -25936784.42448 -20110701.31264
  19863256.353   -12105469.499 5  -6311774.02321
  20486666.2204  -15167290.02545 -11622602.51761
  19654528.1344  -14269956.33846 -10831293.37661
 93  5 21 19 17 44.9890000  0  6G27G19G 2G13G15G26
  17309375.4314  -20542125.41847 -15919449.12864
  19800914.2514   -5304162.40245  -4089392.50461
  17599690.618   -25966550.590 8 -20133895.73424
  19846728.595   -12192320.421 5  -6379450.00221
  20480484.517   -15199788.903 5 -11647926.29921
  19644919.439   -14320461.297 6 -10870647.87821
 93  5 21 19 17 59.9890000  0  6G27G19G 2G13G15G26
  17307862.728   -20550072.402 7 -15925641.60124
  19803059.142    -5292869.199 5  -4080592.66821
  17594034.6034  -25996269.79348 -20157053.55964
  19830211.0644  -12279110.90545  -6447078.91261
  20474324.1344  -15232148.75345 -11673141.76461
  19635333.8604  -14370837.89946 -10909902.37161
 93  5 21 19 18 14.9890000  0  6G27G19G 2G13G15G26
  17306371.978   -20557904.515 7 -15931744.56324
  19805219.376    -5281509.741 5  -4071741.18821
  17588386.165   -26025947.075 8 -20180178.72524
  19813707.618   -12365844.575 5  -6514663.51921
  20468191.962   -15264373.346 5 -11698251.81021
  19625769.7824  -14421093.20346 -10949062.35061
 93  5 21 19 18 29.9890000  0  6G27G19G 2G13G15G26
  17304904.0794  -20565623.44347 -15937759.32264
  19807396.7674   -5270081.15345  -4062835.82461
  17582746.5094  -26055580.24948 -20203269.51864
  19797210.837   -12452518.731 5  -6582201.76321
  20462085.5014  -15296460.40845 -11723254.72661
  19616230.1734  -14471227.69946 -10988128.18461
 93  5 21 19 18 44.9890000  0  6G27G19G 2G13G15G26
  17303456.907   -20573230.911 7 -15943687.22824
  19809586.8214   -5258584.29445  -4053877.29761
  17577115.5954  -26085172.22547 -20226328.20364
  19780730.728   -12539135.145 5  -6649695.02721
  20456007.8374  -15328411.90546 -11748151.97861
  19606715.5874  -14521243.01246 -11027101.14561
 93  5 21 19 18 59.9880000  0  6G27G19G 2G13G15G26
  17302029.817   -20580723.897 7 -15949525.93724
  19811781.074    -5247018.773 5  -4044865.26421
  17571493.152   -26114718.480 8 -20249351.27624
  19764257.1604  -12625683.16345  -6717134.97661
  20449957.3404  -15360221.19046 -11772938.42761
  19597219.2934  -14571128.93746 -11065973.29061
 93  5 21 19 19 14.9880000  0  6G27G19G 2G13G15G26
  17300625.692   -20588106.572 7 -15955278.69124
  19814000.3324   -5235386.76745  -4035801.38361
  17565878.8954  -26144223.36947 -20272342.09964
  19747801.535   -12712175.650 5  -6784531.67221
  20443927.2074  -15391894.01746 -11797618.54061
  19587746.3874  -14620891.11546 -11104748.99461
 93  5 21 19 19 29.9880000  0  6G27G19G 2G13G15G26
  17299239.660   -20595384.775 7 -15960950.02724
  19816223.2774   -5223695.62845  -4026691.48061
  17560272.4024  -26173687.09447 -20295300.84464
  19731353.6374  -12798611.11545  -6851883.92561
  20437922.9104  -15423432.67345 -11822194.11261
  19578303.6844  -14670531.90346 -11143430.12361
 93  5 21 19 19 44.9880000  0  6G27G19G 2G13G15G26
  17297877.121   -20602553.379 7 -15966535.97024
  19818462.082    -5211939.322 5  -4017530.77821
  17554671.5274  -26203107.62348 -20318225.93864
  19714917.535   -12884983.545 5  -6919187.03721
  20431949.8634  -15454831.55445 -11846660.77461
  19568880.3094  -14720047.31146 -11182013.55661
 93  5 21 19 19 59.9880000  0  6G27G19G 2G13G15G26
  17296533.5824  -20609615.16247 -15972038.66764
  19820709.035    -5200121.505 5  -4008322.13321
  17549081.2154  -26232488.19147 -20341119.88764
  19698492.2544  -12971293.66845  -6986441.64761
  20426001.731   -15486091.568 5 -11871019.20221
  19559481.6524  -14769439.91746 -11220501.29461
 93  5 21 19 20 14.9880000  0  6G27G19G 2G13G15G26
  17295209.379   -20616570.768 7 -15977458.63724
  19822974.488    -5188242.552 5  -3999065.86121
  17543501.1844  -26261825.23348 -20363979.92264
  19682078.590   -13057541.437 5  -7053647.63121
  20420075.9424  -15517212.85945 -11895269.54161
  19550105.2774  -14818708.03646 -11258892.02661
 93  5 21 19 20 29.9880000  0  6G27G19G 2G13G15G26
  17293904.363   -20623419.079 7 -15982795.00624
  19825237.9344   -5176302.00745  -3989761.61061
  17537926.738   -26291118.676 8 -20386805.99524
  19665682.1374  -13143727.49845  -7120805.56261
  20414178.2774  -15548196.43245 -11919412.59661
  19540755.2074  -14867847.87646 -11297182.80861
 93  5 21 19 20 44.9880000  0  6G27G19G 2G13G15G26
  17292623.699   -20630155.307 7 -15988044.03024
  19827528.9574   -5164300.37245  -3980409.74861
  17532358.5674  -26320367.95648 -20409597.64864
  19649288.895   -13229850.745 5  -7187914.51421
  20408310.777   -15579041.519 5 -11943447.70621
  19531430.0824  -14916854.45246 -11335369.74561
 93  5 21 19 20 59.9880000  0  6G27G19G 2G13G15G26
  17291362.3564  -20636777.52847 -15993204.20864
  19829819.051    -5152237.785 5  -3971010.38821
  17526801.8564  -26349572.91947 -20432354.76464
  19632912.192   -13315910.816 5  -7254974.24921
  20402466.3484  -15609747.86245 -11967374.71861
  19522128.8874  -14965728.30646 -11373453.26761
 93  5 21 19 21 14.9880000  0  6G27G19G 2G13G15G26
  17290125.715   -20643289.069 7 -15998278.15124
  19832127.3014   -5140120.46445  -3961568.36561
  17521253.1134  -26378736.74247 -20455079.82364
  19616548.043   -13401912.741 5  -7321988.69721
  20396651.121   -15640320.802 5 -11991197.80021
  19512855.0274  -15014474.03046 -11411436.94661
 93  5 21 19 21 29.9880000  0  6G27G19G 2G13G15G26
  17288909.090   -20649678.695 7 -16003257.09724
  19834446.652    -5127939.319 5  -3952076.59821
  17515713.8244  -26407848.51047 -20477764.32364
  19600195.1294  -13487847.71845  -7388950.96561
  20390861.074   -15670752.052 5 -12014910.45721
  19503603.8794  -15063083.98646 -11449314.83362
 93  5 21 19 21 44.9880000  0  6G27G19G 2G13G15G26
  17287715.793   -20655947.387 7 -16008141.80824
  19836773.473    -5115695.360 5  -3942535.93221
  17510180.8484  -26436914.79548 -20500413.37864
  19583853.223   -13573717.979 5  -7455862.81421
  20385099.223   -15701044.159 5 -12038514.68621
  19494381.949   -15111560.849 6 -11487088.99222
 93  5 21 19 21 59.9880000  0  6G27G19G 2G13G15G26
  17286548.2704  -20662092.06247 -16012929.87564
  19839114.3174   -5103386.54645  -3932944.71461
  17504658.1214  -26465936.91747 -20523028.01864
  19567527.7074  -13659522.65345  -7522723.53961
  20379359.8174  -15731196.22745 -12062009.78961
  19485178.832   -15159901.443 6 -11524756.97222
 93  5 21 19 22 14.9880000  0  6G27G19G 2G13G15G26
  17285400.848   -20668116.064 7 -16017623.92024
  19841472.285    -5091015.099 5  -3923304.66021
  17499143.8954  -26494912.77747 -20545606.61764
  19551212.3404  -13745264.03845  -7589534.94461
  20373646.5984  -15761210.94846 -12085397.87761
  19476006.9964  -15208103.73246 -11562317.19962
 93  5 21 19 22 29.9880000  0  6G27G19G 2G13G15G26
  17284276.8244  -20674016.07747 -16022221.33664
  19843838.6214   -5078579.09545  -3913614.33461
  17493639.2154  -26523841.24548 -20568148.27964
  19534908.379   -13830940.892 5  -7656296.07621
  20367965.754   -15791087.448 5 -12108678.29221
  19466857.5824  -15256164.87546 -11599767.43862
 93  5 21 19 22 44.9880000  0  6G27G19G 2G13G15G26
  17283177.8874  -20679790.25947 -16026720.71264
  19846222.5984   -5066078.65145  -3903873.77761
  17488143.1214  -26552722.29247 -20590652.99464
  19518616.707   -13916552.438 5  -7723006.33121
  20362303.5984  -15820825.14545 -12131850.51261
  19457741.668   -15304086.807 6 -11637109.18422
 93  5 21 19 22 59.9880000  0  6G27G19G 2G13G15G26
  17282105.457   -20685437.054 7 -16031120.82624
  19848606.7854   -5053510.41045  -3894080.41361
  17482657.1374  -26581553.79848 -20613119.11764
  19502337.317   -14002095.703 5  -7789663.34621
  20356672.910   -15850421.509 5 -12154912.62321
  19448652.3794  -15351870.42046 -11674343.15762
 93  5 21 19 23 14.9880000  0  6G27G19G 2G13G15G26
  17281053.637   -20690962.010 7 -16035426.00624
  19851016.012    -5040878.049 5  -3884237.06521
  17477181.3244  -26610339.32948 -20635549.40264
  19486075.379   -14087573.968 6  -7856269.76221
  20351060.1994  -15879879.92145 -12177867.23461
  19439580.9494  -15399517.47746 -11711470.72362
 93  5 21 19 23 29.9880000  0  6G27G19G 2G13G15G26
  17280024.777   -20696366.170 7 -16039637.05324
  19853426.895    -5028181.204 5  -3874343.46721
  17471710.5824  -26639077.74947 -20657942.97664
  19469818.762   -14172985.551 5  -7922824.17721
  20345490.2384  -15909198.91945 -12200713.21561
  19430542.9884  -15447025.10746 -11748489.64462
 93  5 21 19 23 44.9880000  0  6G27G19G 2G13G15G26
  17279016.793   -20701653.070 7 -16043756.73624
  19855856.3484   -5015417.30445  -3864397.64261
  17466250.6764  -26667770.07747 -20680300.63264
  19453580.1994  -14258327.74545  -7989324.54461
  20339936.0904  -15938376.15245 -12223448.71261
  19421530.3564  -15494392.08547 -11785398.97262
 93  5 21 19 23 59.9880000  0  6G27G19G 2G13G15G26
  17278031.5434  -20706826.98947 -16047788.37164
  19858295.902    -5002590.096 5  -3854402.46921
  17460800.3094  -26696419.93748 -20702625.19964
  19437350.293   -14343602.821 5  -8055772.59521
  20334405.4964  -15967414.19245 -12246075.75761
  19412541.5434  -15541621.31346 -11822200.97162
 93  5 21 19 24 14.9880000  0  6G27G19G 2G13G15G26
  17277071.434   -20711891.743 7 -16051734.94924
  19860751.9734   -4989703.72845  -3844361.20561
  17455356.1374  -26725025.25148 -20724915.05864
  19421135.621   -14428812.731 5  -8122169.89221
  20328905.9424  -15996315.19945 -12268596.01861
  19403578.8324  -15588715.63346 -11858897.84262
 93  5 21 19 24 29.9880000  0  6G27G19G 2G13G15G26
  17276129.504   -20716845.087 7 -16055594.71424
  19863211.3484   -4976756.31345  -3834272.37761
  17449921.5044  -26753583.96948 -20747168.61264
  19404932.934   -14513954.854 6  -8188514.35921
  20323434.0044  -16025076.83945 -12291007.69961
  19394640.809   -15635676.978 6 -11895491.09122
 93  5 21 19 24 44.9880000  0  6G27G19G 2G13G15G26
  17275206.223   -20721684.145 7 -16059365.42224
  19865688.090    -4963746.636 5  -3824135.00921
  17444495.2934  -26782096.03848
  19388745.4654  -14599026.28446  -8254803.71161
  20317991.8794  -16053696.53145
  19385732.137   -15682505.767 6 -11931981.03722
 93  5 21 19 24 59.9880000  0  6G27G19G 2G13G15G26
  17274308.067   -20726413.459 7 -16063050.61824
  19868174.371    -4950677.045 5  -3813950.96421
  17439076.8874  -26810564.26748
  19372569.0044  -14684028.36945  -8321039.05661
  20312570.5984  -16082176.16845
  19376844.8794  -15729203.26346 -11968368.68762
 93  5 21 19 25 14.9880000  0  6G27G19G 2G13G15G26
  17273428.4574  -20731036.86447 -16066653.27864
  19870675.8794   -4937551.06845  -3803723.00961
  17433668.8014  -26838990.27348 -20813718.98664
  19356402.2544  -14768962.01945  -8387221.05761
  20307178.590   -16110516.911 5 -12357584.37521
  19367982.543   -15775770.741 6 -12004655.01822
 93  5 21 19 25 29.9880000  0  6G27G19G 2G13G15G26
  17272563.551   -20735557.028 7 -16070175.50124
  19873180.3404   -4924372.33145  -3793453.92661
  17428266.6604  -26867375.84348 -20835837.61564
  19340255.090   -14853828.951 5  -8453351.09621
  20301809.5984  -16138720.66445 -12379561.34761
  19359146.551   -15822211.836 6 -12040842.87222
 93  5 21 19 25 44.9880000  0  6G27G19G 2G13G15G26
  17271727.348   -20739973.117 7 -16073616.62424
  19875702.6524   -4911136.46145  -3783140.32261
  17422876.8564  -26895717.61748 -20857922.12164
  19324118.113   -14938627.551 5  -8519427.86621
  20296463.9104  -16166786.11745 -12401430.53961
  19350329.918   -15868528.053 6 -12076933.41022
 93  5 21 19 25 59.9880000  0  6G27G19G 2G13G15G26
  17270904.699   -20744277.565 7 -16076970.76124
  19878238.4264   -4897838.72845  -3772778.52161
  17417489.7934  -26924012.65248 -20879970.20564
  19307996.668   -15023354.508 5  -8585448.80821
  20291152.715   -16194710.342 5 -12423189.68721
  19341541.567   -15914714.631 6 -12112922.94222
 93  5 21 19 26 14.9880000  0  6G27G19G 2G13G15G26
  17270109.9024  -20748465.46847 -16080234.07464
  19880777.590    -4884475.171 5  -3762365.42621
  17412114.7074  -26952258.93048 -20901980.29764
  19291887.4424  -15108008.52446  -8651412.93561
  20285869.0824  -16222492.08845 -12444837.83161
  19332779.410   -15960770.279 6 -12148810.43622
 93  5 21 19 26 29.9880000  0  6G27G19G 2G13G15G26
  17269333.520   -20752538.195 7 -16083407.64024
  19883328.2464   -4871046.02545  -3751901.22961
  17406749.3874  -26980458.60448 -20923954.07364
  19275793.238   -15192591.102 6  -8717321.36721
  20280607.3484  -16250133.22445 -12466376.38061
  19324040.5674  -16006697.09546 -12184597.56562
 93  5 21 19 26 44.9880000  0  6G27G19G 2G13G15G26
  17268584.832   -20756492.663 7 -16086489.05624
  19885896.9264   -4857548.18345  -3741383.49661
  17401389.7234  -27008612.04947 -20945891.82264
  19259712.8484  -15277099.49146  -8783172.00261
  20275377.3634  -16277631.32945 -12487803.47961
  19315325.6374  -16052490.76646 -12220280.93762
 93  5 21 19 26 59.9880000  0  6G27G19G 2G13G15G26
  17267852.949   -20760331.401 7 -16089480.29424
  19888478.574    -4843981.845 5  -3730812.38021
  17396042.9734  -27036719.26748 -20967793.55064
  19243647.348   -15361535.004 6  -8848965.85521
  20270169.879   -16304988.107 5 -12509120.45721
  19306639.5744  -16098150.66846 -12255860.07962
 93  5 21 19 27 14.9880000  0  6G27G19G 2G13G15G26
  17267143.668   -20764055.949 7 -16092382.55124
  19891078.7384   -4830347.19645  -3720188.04561
  17390703.2154  -27064779.41848 -20989658.61164
  19227593.2154  -15445898.08346  -8914703.25861
  20264993.7934  -16332204.24646 -12530327.83661
  19297971.9494  -16143678.40246 -12291336.24162
 93  5 21 19 27 29.9880000  0  6G27G19G 2G13G15G26
  17266459.957   -20767664.098 7 -16095194.11024
  19893682.3634   -4816643.68245  -3709510.04661
  17385372.6764  -27092789.48947 -21011484.64264
  19211551.0904  -15530187.54846  -8980383.30161
  20259836.7854  -16359278.73546 -12551424.84561
  19289335.3714  -16189072.31646 -12326708.11462
 93  5 21 19 27 44.9880000  0  6G27G19G 2G13G15G26
  17265793.067   -20771152.683 7 -16097912.50924
  19896302.9734   -4802870.28445  -3698777.58961
  17380050.3484  -27120746.24548 -21033269.12464
  19195522.7854  -15614401.70746  -9046004.66161
  20254713.0274  -16386210.20045 -12572410.39961
  19280724.3014  -16234328.89046 -12361972.96962
 93  5 21 19 27 59.9880000  0  6G27G19G 2G13G15G26
  17265150.5354  -20774521.27947 -16100537.40164
  19898937.0044   -4789028.50345  -3687991.85061
  17374742.106   -27148650.727 8 -21055012.88724
  19179515.387   -15698540.116 6  -9111567.00921
  20249614.9964  -16412998.50045 -12593284.41761
  19272137.020   -16279444.363 6 -12397127.87522
 93  5 21 19 28 14.9880000  0  6G27G19G 2G13G15G26
  17264533.606   -20777768.390 7 -16103067.63424
  19901589.176    -4775119.830 5  -3677153.97621
  17369443.4734  -27176504.90748 -21076717.44964
  19163519.1764  -15782602.45546  -9177070.06861
  20244543.2544  -16439643.72146 -12614046.93261
  19263579.442   -16324419.735 6 -12432173.59922
 93  5 21 19 28 29.9880000  0  6G27G19G 2G13G15G26
  17263938.277   -20780900.643 7 -16105508.36524
  19904243.699    -4761151.571 5  -3666269.69121
  17364151.7074  -27204312.68148 -21098385.84664
  19147534.629   -15866593.515 6  -9242517.58521
  20239499.5434  -16466150.85446 -12634701.83961
  19255045.145   -16369259.493 6 -12467113.66122
 93  5 21 19 28 44.9880000  0  6G27G19G 2G13G15G26
  17263365.535   -20783915.895 7 -16107857.93224
  19906915.7464   -4747123.33945  -3655338.66761
  17358868.7774  -27232070.83948 -21120015.58464
  19131564.8714  -15950509.19746  -9307906.36961
  20234484.7624  -16492516.30045 -12655246.34661
  19246541.738   -16413959.446 6 -12501944.77322
 93  5 21 19 28 59.9880000  0  6G27G19G 2G13G15G26
  17262813.598   -20786818.462 7 -16110119.69123
  19909593.770    -4733038.804 5  -3644363.78721
  17353591.5514  -27259783.82647 -21141610.12363
  19115609.293   -16034351.763 6  -9373238.17221
  20229493.434   -16518742.647 5 -12675682.48221
  19238060.6994  -16458523.13646 -12536669.71662
 93  5 21 19 29 14.9880000  0  6G27G19G 2G13G15G26
  17262282.426   -20789609.211 7 -16112294.31824
  19912285.895    -4718900.217 5  -3633346.75921
  17348330.2314  -27287452.72947 -21163170.31264
  19099668.113   -16118121.460 6  -9438513.20721
  20224525.676   -16544830.219 5 -12696010.47621
  19229606.9574  -16502954.94146 -12571291.89862
 93  5 21 19 29 29.9880000  0  6G27G19G 2G13G15G26
  17261772.996   -20792283.100 7 -16114377.88624
  19914985.840    -4704706.647 5  -3622286.90421
  17343073.5434  -27315075.57148 -21184694.60564
  19083741.731   -16201813.858 6  -9503728.00021
  20219588.1764  -16570775.04545 -12716227.22961
  19221175.309   -16547250.415 6 -12605807.82922
 93  5 21 19 29 44.9880000  0  6G27G19G 2G13G15G26
  17261285.2384  -20794843.28047 -16116372.84364
  19917691.606    -4690461.722 4  -3611187.04621
  17337825.2774  -27342657.72948 -21206187.20264
  19067834.0744  -16285431.62046  -9568884.62361
  20214678.723   -16596580.340 5 -12736335.25521
  19212771.9494  -16591412.85946 -12640220.11662
 93  5 21 19 29 59.9880000  0  6G27G19G 2G13G15G26
  17260819.012   -20797288.610 7 -16118278.31124
  19920409.379    -4676159.879 5  -3600042.81221
  17332584.738   -27370197.686 8 -21227646.91924
  19051936.098   -16368972.139 6  -9633981.07921
  20209798.2704  -16622243.52545 -12756332.54961
  19204393.9184  -16635440.75546 -12674527.57961
 93  5 21 19 30 14.9880000  0  6G27G19G 2G13G15G26
  17260373.2384  -20799621.10447 -16120095.84564
  19923150.0044   -4661800.43045  -3588853.69961
  17327350.2464  -27397699.99448 -21249077.29464
  19036050.309   -16452437.838 6  -9699019.24121
  20204946.6374  -16647767.46746 -12776221.33461
  19196039.9654  -16679338.57546 -12708733.66461
 93  5 21 19 30 29.9880000  0  6G27G19G 2G13G15G26
  17259955.676   -20801835.922 7 -16121821.69124
  19925892.2314   -4647378.15745  -3577615.62361
  17322124.4884  -27425160.10748 -21270474.78664
  19020182.090   -16535824.238 6  -9763995.58221
  20200111.606   -16673147.841 5 -12795998.27121
  19187711.1294  -16723104.36246 -12742836.88361
 93  5 21 19 30 44.9880000  0  6G27G19G 2G13G15G26
  17259555.426   -20803939.108 7 -16123460.55524
  19928650.0124   -4632899.52745  -3566333.62761
  17316908.3404  -27452579.61548 -21291840.64064
  19004330.1994  -16619134.05146  -9828912.26061
  20195310.176   -16698387.670 6 -12815665.67821
  19179408.4184  -16766741.54846 -12776839.87561
 93  5 21 19 30 59.9880000  0  6G27G19G 2G13G15G26
  17259174.6684  -20805932.40147 -16125013.78264
  19931414.090    -4618364.184 5  -3555007.46021
  17311696.6684  -27479958.08848 -21313174.51964
  18988490.481   -16702367.390 6  -9893769.33721
  20190529.965   -16723487.683 5 -12835224.14421
  19171129.887   -16810250.940 6 -12810743.28221
 93  5 21 19 31 14.9880000  0  6G27G19G 2G13G15G26
  17258816.121   -20807818.395 7 -16126483.40624
  19934194.027    -4603776.025 5  -3543640.14321
  17306495.3174  -27507294.00448 -21334475.23264
  18972667.660   -16785526.242 6  -9958568.41121
  20185785.3324  -16748450.05046 -12854675.36261
  19162871.9814  -16853635.16046 -12844549.17461
 93  5 21 19 31 29.9880000  0  6G27G19G 2G13G15G26
  17258480.496   -20809593.112 7 -16127866.31923
  19936980.207    -4589131.606 5  -3532228.97921
  17301302.4344  -27534581.43148 -21355738.17164
  18956857.246   -16868607.624 6 -10023307.07621
  20181056.5204  -16773272.15646 -12874017.26461
  19154643.254   -16896886.640 6 -12878251.60321
 93  5 21 19 31 44.9880000  0  6G27G19G 2G13G15G26
  17258163.613   -20811257.222 7 -16129163.04124
  19939779.113    -4574427.081 5  -3520770.97921
  17296118.2314  -27561818.08348 -21376961.53664
  18941061.277   -16951610.500 6 -10087984.58721
  20176360.7544  -16797953.11945 -12893249.21561
  19146437.3714  -16940003.54846 -12911849.18762
 93  5 21 19 31 59.9880000  0  6G27G19G 2G13G15G26
  17257866.746   -20812809.973 7 -16130373.00223
  19942586.0744   -4559658.82245  -3509263.31861
  17290946.1454  -27589002.85348 -21398144.47764
  18925283.3094  -17034533.63646 -10152599.96261
  20171696.434   -16822492.062 6 -12912370.48021
  19138258.551   -16982986.196 6 -12945342.13022
 93  5 21 19 32 14.9870000  0  6G27G19G 2G13G15G26
  17257592.273   -20814253.589 7 -16131497.91623
  19945408.741    -4544829.984 4  -3497708.45521
  17285783.4294  -27616137.50648 -21419288.36864
  18909519.007   -17117372.843 6 -10217149.93621
  20167048.3194  -16846888.88945 -12931381.00861
  19130102.9764  -17025832.20046 -12978728.62562
 93  5 21 19 32 29.9870000  0  6G27G19G 2G13G15G26
  17257339.7024  -20815587.64247 -16132537.44663
  19948243.4294   -4529941.21145  -3486106.88061
  17280628.8194  -27643228.79848 -21440398.47864
  18893767.2884  -17200138.94846 -10281642.95161
  20162429.304   -16871147.080 5 -12950283.49921
  19121974.3354  -17068547.43346 -13012013.22162
 93  5 21 19 32 44.9870000  0  6G27G19G 2G13G15G26
  17257105.4444  -20816814.54647 -16133493.50963
  19951088.1244   -4514994.01544  -3474459.78661
  17275481.8124  -27670272.53848 -21461471.52264
  18878031.9054  -17282824.54946 -10346073.22761
  20157842.8904  -16895263.50145 -12969075.53161
  19113873.0854  -17111125.43746 -13045190.88062
 93  5 21 19 32 59.9870000  0  6G27G19G 2G13G15G26
  17256889.687   -20817935.464 7 -16134366.97124
  19953943.859    -4499987.487 4  -3462766.45821
  17270343.3514  -27697270.41448 -21482508.82863
  18862314.429   -17365430.998 6 -10410441.84521
  20153279.9054  -16919239.90545 -12987758.44761
  19105793.9604  -17153567.15246 -13078262.33362
 93  5 21 19 33 14.9870000  0  6G27G19G 2G13G15G26
  17256697.257   -20818942.556 7 -16135151.72824
  19956807.968    -4484913.738 4  -3451020.76021
  17265215.2024  -27724220.54448 -21503508.92864
  18846610.6634  -17447952.86646 -10474744.53861
  20148744.499   -16943071.171 5 -13006328.28021
  19097748.3984  -17195867.42646 -13111223.59062
 93  5 21 19 33 29.9870000  0  6G27G19G 2G13G15G26
  17256530.991   -20819836.818 7 -16135848.57424
  19959690.296    -4469774.063 4  -3439223.67521
  17260095.5234  -27751128.71548 -21524476.34264
  18830923.444   -17530392.697 6 -10538983.32821
  20144237.5304  -16966760.17345 -13024787.24461
  19089724.5624  -17238029.69546 -13144077.30061
 93  5 21 19 33 44.9870000  0  6G27G19G 2G13G15G26
  17256383.179   -20820619.400 7 -16136458.39824
  19962582.1244   -4454568.11144  -3427374.95861
  17254980.8514  -27778001.87448 -21545416.46963
  18815250.273   -17612751.293 6 -10603158.80621
  20139752.624   -16990307.872 5 -13043136.10321
  19081725.7104  -17280056.97146 -13176825.82561
 93  5 21 19 33 59.9870000  0  6G27G19G 2G13G15G26
  17256251.296   -20821288.542 7 -16136979.82024
  19965480.8664   -4439295.37944  -3415474.19261
  17249874.7494  -27804839.26648 -21566328.72264
  18799597.0464  -17695025.68546 -10667268.65861
  20135306.452   -17013711.538 6 -13061372.74521
  19073757.8594  -17321951.15546 -13209470.64761
 93  5 21 19 34 14.9870000  0  6G27G19G 2G13G15G26
  17256146.952   -20821846.515 7 -16137414.62523
  19968407.5934   -4423964.39944  -3403528.03761
  17244774.3664  -27831646.54548 -21587217.51764
  18783952.6944  -17777220.49246 -10731316.52161
  20130878.093   -17036976.245 5 -13079501.10421
  19065808.8044  -17363713.15146 -13242012.45761
 93  5 21 19 34 29.9870000  0  6G27G19G 2G13G15G26
  17256062.234   -20822290.619 7 -16137760.70523
  19971336.749    -4408576.474 4  -3391537.53721
  17239678.1554  -27858419.63448 -21608079.66964
  18768326.179   -17859334.549 6 -10795301.43821
  20126474.2104  -17060101.20646 -13097520.57361
  19057886.6324  -17405339.30446 -13274448.43361
 93  5 21 19 34 44.9870000  0  6G27G19G 2G13G15G26
  17255997.538   -20822618.362 7 -16138016.10723
  19974276.109    -4393130.439 4  -3379501.73421
  17234588.8904  -27885153.95348 -21628911.60964
  18752716.593   -17941365.185 6 -10859221.37821
  20122109.171   -17083084.164 6 -13115429.39821
  19049991.6484  -17446829.23946 -13306778.25161
 93  5 21 19 34 59.9870000  0  6G27G19G 2G13G15G26
  17255958.265   -20822828.083 7 -16138179.54323
  19977227.5694   -4377627.04245  -3367421.23061
  17229512.2654  -27911845.87748 -21649710.52164
  18737122.116   -18023310.649 6 -10923074.93921
  20117758.1794  -17105923.56746 -13133226.33861
  19042118.0854  -17488183.74646 -13339002.54661
 93  5 21 19 35 14.9870000  0  6G27G19G 2G13G15G26
  17255942.593   -20822924.146 7
  19980189.2344   -4362073.07445  -3355301.32761
  17224438.5304  -27938502.39548 -21670481.83664
  18721540.960   -18105176.198 6 -10986866.22421
  20113438.351   -17128625.203 5 -13150915.93421
  19034277.8744  -17529410.08946 -13371126.97661
 93  5 21 19 35 29.9870000  0  6G27G19G 2G13G15G26
  17255948.398   -20822905.296 7
  19983155.8354   -4346467.53745  -3343141.27361
  17219374.1874  -27965120.38047 -21691223.12964
  18705982.7344  -18186958.60346 -11050592.75061
  20109143.8824  -17151186.15846 -13168495.91261
  19026455.8194  -17570504.21146 -13403148.36061
 93  5 21 19 35 44.9870000  0  6G27G19G 2G13G15G26
  17255971.585   -20822774.461 7
  19986136.7104   -4330813.56344  -3330943.44861
  17214315.3354  -27991700.54748 -21711934.95564
  18690439.234   -18268659.067 6 -11114255.40121
  20104873.312   -17173607.917 5 -13185967.42821
  19018665.7344  -17611465.84346 -13435066.50961
 93  5 21 19 35 59.9870000  0  6G27G19G 2G13G15G26
  17256017.905   -20822530.064 7
  19989121.241    -4315110.537 4  -3318707.39221
  17209263.3594  -28018238.60547 -21732613.96064
  18674905.0774  -18350275.11346 -11177852.27261
  20100635.8594  -17195888.46945 -13203328.89961
  19010893.3904  -17652292.93946 -13466879.82561
 93  5 21 19 36 14.9870000  0  6G27G19G 2G13G15G26
  17256085.952   -20822174.160 7 -16137670.09623
  19992121.585    -4299360.332 4  -3306434.57321
  17204223.3434  -28044734.41948 -21753260.05064
  18659388.4054  -18431809.13646 -11241385.22061
  20096426.062   -17218030.313 6 -13220582.30621
  19003149.6484  -17692982.62846 -13498586.07862
 93  5 21 19 36 29.9870000  0  6G27G19G 2G13G15G26
  17256172.1164  -20821705.14347 -16137304.64163
  19995130.2024   -4283557.71044  -3294120.94261
  17199189.8514  -28071183.28948 -21773869.55664
  18643893.093   -18513257.721 6 -11304851.59521
  20092241.5934  -17240030.71646 -13237725.48961
  18995436.1164  -17733530.44846 -13530181.78062
 93  5 21 19 36 44.9870000  0  6G27G19G 2G13G15G26
  17256285.155   -20821126.232 7 -16136853.55723
  19998140.866    -4267700.788 4  -3281764.97821
  17194166.2884  -28097587.28447 -21794444.10864
  18628405.991   -18594621.225 6 -11368251.67121
  20088079.202   -17261890.087 5 -13254758.78321
  18987742.507   -17773939.711 6 -13561669.50422
 93  5 21 19 36 59.9870000  0  6G27G19G 2G13G15G26
  17256414.991   -20820437.724 7 -16136317.08123
  20001171.5624   -4251787.09044  -3269364.77161
  17189149.2494  -28123946.09748 -21814983.44764
  18612938.7414  -18675898.12846 -11431584.27761
  20083946.132   -17283607.230 5 -13271681.24321
  18980082.0384  -17814211.35946 -13593050.00362
 93  5 21 19 37 14.9870000  0  6G27G19G 2G13G15G26
  17256567.007   -20819638.340 7 -16135694.20723
  20004209.655    -4235816.188 3  -3256919.99321
  17184142.1554  -28150258.32548 -21835486.48264
  18597490.1714  -18757088.56246 -11494849.51961
  20079838.319   -17305182.607 5 -13288493.25421
  18972443.359   -17854341.484 6 -13624320.22122
 93  5 21 19 37 29.9870000  0  6G27G19G 2G13G15G26
  17256742.148   -20818729.952 7 -16134986.39423
  20007260.515    -4219788.362 4  -3244430.85621
  17179144.444   -28176527.116 7 -21855955.68023
  18582056.624   -18838194.784 6 -11558049.12621
  20075760.046   -17326618.968 5 -13305196.93321
  18964836.093   -17894328.248 6 -13655478.72622
 93  5 21 19 37 44.9870000  0  6G27G19G 2G13G15G26
  17256934.601   -20817707.759 7 -16134189.89723
  20010333.2264   -4203701.13244  -3231895.42861
  17174155.9374  -28202747.91548 -21876387.48264
  18566642.694   -18919212.488 6 -11621179.76321
  20071706.093   -17347912.289 5 -13321789.13621
  18957254.7804  -17934166.99446 -13686521.90562
 93  5 21 19 37 59.9870000  0  6G27G19G 2G13G15G26
  17257151.390   -20816575.172 7 -16133307.37923
  20013395.0854   -4187558.80344  -3219317.08361
  17169173.4134  -28228919.85147 -21896781.20164
  18551240.062   -19000143.654 6 -11684242.95821
  20067681.913   -17369065.036 5 -13338271.79621
  18949701.2964  -17973861.56946 -13717452.74161
 93  5 21 19 38 14.9870000  0  6G27G19G 2G13G15G26
  17257385.148   -20815329.809 7 -16132336.99623
  20016475.1944   -4171358.39943  -3206693.46361
  17164202.4444  -28255037.47847 -21917132.59964
  18535854.687   -19080984.921 6 -11747236.10721
  20063683.8904  -17390074.01546 -13354642.44561
  18942172.546   -18013409.241 6 -13748269.12622
 93  5 21 19 38 29.9870000  0  6G27G19G 2G13G15G26
  17257643.757   -20813973.094 7 -16131279.83223
  20019577.8514   -4155103.49043  -3194027.38561
  17159245.5774  -28281103.13348 -21937443.50464
  18520485.007   -19161738.271 6 -11810160.74821
  20059713.124   -17410941.655 5 -13370902.96821
  18934677.4994  -18052813.60146 -13778973.82362
 93  5 21 19 38 44.9870000  0  6G27G19G 2G13G15G26
  17257925.718   -20812502.210 7 -16130133.71323
  20022678.8824   -4138794.73843  -3181319.36761
  17154294.5384  -28307115.88347 -21957713.18064
  18505140.4444  -19242402.19746 -11873015.71461
  20055768.5934  -17431666.71845 -13387052.38661
  18927204.155   -18092079.489 6 -13809570.60722
 93  5 21 19 38 59.9870000  0  6G27G19G 2G13G15G26
  17258228.109   -20810914.555 7 -16128896.60823
  20025787.6944   -4122434.73844  -3168571.40361
  17149354.2184  -28333077.07548 -21977942.68464
  18489802.179   -19322976.732 6 -11935801.01721
  20051856.5384  -17452249.67245 -13403091.06261
  18919758.210   -18131207.553 6 -13840059.98622
 93  5 21 19 39 14.9870000  0  6G27G19G 2G13G15G26
  17258554.491   -20809211.974 7 -16127569.93323
  20028906.5234   -4106028.02743  -3155787.04861
  17144423.6874  -28358988.66148 -21998133.53664
  18474489.187   -19403464.043 6 -11998518.35721
  20047958.2494  -17472693.09745 -13419021.03361
  18912337.4444  -18170200.61946 -13870444.19262
 93  5 21 19 39 29.9870000  0  6G27G19G 2G13G15G26
  17258897.171   -20807397.363 7 -16126155.96923
  20032037.6094   -4089574.77644  -3142966.41161
  17139500.9054  -28384852.15748 -22018286.91564
  18459192.6014  -19483863.21246 -12061167.00361
  20044100.085   -17492996.390 5 -13434841.79521
  18904944.2654  -18209057.92746 -13900722.60862
 93  5 21 19 39 44.9870000  0  6G27G19G 2G13G15G26
  17259265.054   -20805470.144 7 -16124654.25923
  20035191.0154   -4073074.37844  -3130109.07161
  17134588.9764  -28410669.76148 -22038404.52864
  18443904.9444  -19564173.55746 -12123746.45261
  20040263.4444  -17513159.07745 -13450552.98361
  18897572.8124  -18247783.36646 -13930898.26462
 93  5 21 19 39 59.9870000  0  6G27G19G 2G13G15G26
  17259653.038   -20803433.467 7 -16123067.26723
  20038333.327    -4056526.773 4  -3117214.91921
  17129685.6634  -28436441.28448 -22058486.24464
  18428642.6484  -19644394.37346 -12186256.13461
  20036450.694   -17533181.096 5 -13466154.56921
  18890229.4994  -18286380.57346 -13960974.00962
 93  5 21 19 40 14.9870000  0  6G27G19G 2G13G15G26
  17260060.234   -20801283.383 7 -16121391.90323
  20041493.8984   -4039925.88144  -3104279.26361
  17124790.1634  -28462165.77748 -22078531.29464
  18413396.4844  -19724523.33946 -12248694.23961
  20032664.812   -17553060.160 6 -13481644.76721
  18882910.218   -18324848.398 6 -13990948.92222
 93  5 21 19 40 29.9870000  0  6G27G19G 2G13G15G26
  17260492.4374  -20799018.15947 -16119626.81563
  20044662.484    -4023269.107 4  -3091300.03621
  17119901.0774  -28487848.32847 -22098543.67364
  18398161.757   -19804560.538 6 -12311060.84621
  20028914.835   -17572796.873 6 -13497024.03721
  18875613.359   -18363187.716 6 -14020823.69322
 93  5 21 19 40 44.9870000  0  6G27G19G 2G13G15G26
  17260943.3354  -20796640.10047 -16117773.81063
  20047837.8904   -4006555.48343  -3078276.52561
  17115022.6094  -28513492.53548 -22118526.16464
  18382950.491   -19884506.422 6 -12373356.29121
  20025184.5854  -17592392.06946 -13512293.02161
  18868343.0624  -18401398.49246 -14050598.32562
 93  5 21 19 40 59.9870000  0  6G27G19G 2G13G15G26
  17261419.265   -20794152.458 7 -16115835.40623
  20051032.616    -3989781.570 4  -3065206.02121
  17110147.7804  -28539098.04347 -22138478.51064
  18367756.382   -19964359.402 6 -12435579.34921
  20021482.3664  -17611844.35846 -13527450.68461
  18861098.0774  -18439477.66046 -14080270.40662
 93  5 21 19 41 14.9870000  0  6G27G19G 2G13G15G26
  17261912.671   -20791559.861 7 -16113815.22223
  20054235.0384   -3972947.06244  -3052088.30561
  17105283.5304  -28564664.83547 -22158400.67964
  18352575.819   -20044119.321 6 -12497729.88321
  20017809.312   -17631154.047 6 -13542497.20821
  18853876.898   -18477423.691 6 -14109838.72422
 93  5 21 19 41 29.9870000  0  6G27G19G 2G13G15G26
  17262424.124   -20788866.786 7 -16111716.74323
  20057447.5934   -3956051.48644  -3038923.00661
  17100426.1554  -28590192.72447 -22178292.54664
  18337415.3044  -20123786.43946 -12559808.12161
  20014160.273   -17650321.794 5 -13557433.13821
  18846681.6714  -18515236.50146 -14139303.24062
 93  5 21 19 41 44.9870000  0  6G27G19G 2G13G15G26
  17262956.9844  -20786068.70347 -16109536.44663
  20060683.0464   -3939094.40544  -3025709.78261
  17095576.5854  -28615680.35847 -22198153.03664
  18322271.929   -20203359.613 6 -12621813.15021
  20010538.452   -17669346.823 5 -13572257.84821
  18839512.0154  -18552916.14646 -14168664.00262
 93  5 21 19 41 59.9870000  0  6G27G19G 2G13G15G26
  17263508.046   -20783166.179 7 -16107274.76623
  20063917.6404   -3922078.68444  -3012450.86161
  17090732.1014  -28641126.48547 -22217981.18264
  18307149.538   -20282840.594 6 -12683746.33621
  20006948.9764  -17688231.31345 -13586973.06461
  18832363.2734  -18590463.62846 -14197921.77762
 93  5 21 19 42 14.9870000  0  6G27G19G 2G13G15G26
  17264080.241   -20780158.923 7 -16104931.47123
  20067167.437    -3905002.973 3  -2999145.19821
  17085901.3514  -28666526.39148 -22237773.32164
  18292041.2574  -20362227.37346 -12745606.11361
  20003379.679   -17706973.533 5 -13601577.40521
  18825246.6554  -18627874.47146 -14227073.07562
 93  5 21 19 42 29.9870000  0  6G27G19G 2G13G15G26
  17264672.577   -20777047.883 7 -16102507.30823
  20070427.530    -3887871.430 4  -2985796.02521
  17081075.6714  -28691880.98648 -22257530.13464
  18276952.9214  -20441521.48946 -12807393.69861
  19999840.069   -17725575.388 5 -13616072.37621
  18818152.5624  -18665149.65346 -14256118.67662
 93  5 21 19 42 44.9870000  0  6G27G19G 2G13G15G26
  17265282.523   -20773839.077 7 -16100006.95823
  20073697.757    -3870689.962 3  -2972407.96721
  17076258.4374  -28717190.57348 -22277251.90663
  18261879.273   -20520724.572 6 -12869110.33721
  19996330.2184  -17744038.80445 -13630459.48461
  18811084.2574  -18702289.26146 -14285058.63062
 93  5 21 19 42 59.9870000  0  6G27G19G 2G13G15G26
  17265913.015   -20770529.998 7 -16097428.48823
  20076974.507    -3853457.262 3  -2958979.98821
  17071452.2804  -28742450.14748 -22296934.68963
  18246826.687   -20599833.233 6 -12930753.42121
  19992843.382   -17762360.817 6 -13644736.37721
  18804048.1944  -18739291.15246 -14313891.27161
 93  5 21 19 43 14.9870000  0  6G27G19G 2G13G15G26
  17266562.452   -20767118.070 7 -16094769.86223
  20080263.8434   -3836178.35943  -2945515.99461
  17066656.1244  -28767659.27648 -22316578.15963
  18231792.1244  -20678849.04146 -12992324.14661
  19989383.257   -17780543.353 5 -13658904.61421
  18797026.5934  -18776157.83546 -14342618.55561
 93  5 21 19 43 29.9870000  0  6G27G19G 2G13G15G26
  17267233.3124  -20763596.86947 -16092026.09763
  20083551.335    -3818854.005 3  -2932016.59021
  17061868.0544  -28792816.96048 -22336181.55464
  18216775.046   -20757770.582 6 -13053821.39121
  19985950.577   -17798585.172 6 -13672963.19921
  18790035.812   -18812887.339 6 -14371238.93921
 93  5 21 19 43 44.9870000  0  6G27G19G 2G13G15G26
  17267925.741   -20759962.799 7 -16089194.37623
  20086864.648    -3801484.987 3  -2918482.38021
  17057091.7964  -28817924.52648 -22355745.90264
  18201770.991   -20836597.419 6 -13115244.85421
  19982537.2494  -17816486.41646 -13686912.20361
  18783074.8744  -18849480.20446 -14399752.85261
 93  5 21 19 43 59.9870000  0  6G27G19G 2G13G15G26
  17268638.7574  -20756216.72547 -16086275.38963
  20090176.116    -3784071.375 3  -2904913.41421
  17052320.7884  -28842983.44347 -22375272.32264
  18186789.812   -20915330.382 6 -13176595.17621
  19979161.3434  -17834248.28046 -13700752.65361
  18776139.1554  -18885938.03446 -14428161.55462
 93  5 21 19 44 14.9870000  0  6G27G19G 2G13G15G26
  17269368.726   -20752362.965 7 -16083272.48323
  20093499.2804   -3766613.58043  -2891310.03961
  17047561.3984  -28867995.34547 -22394762.12264
  18171826.523   -20993969.391 6 -13237872.29121
  19975808.5774  -17851870.97246 -13714484.62561
  18769226.2414  -18922258.12346 -14456462.93062
 93  5 21 19 44 29.9870000  0  6G27G19G 2G13G15G26
  17270124.616   -20748393.095 7 -16080179.10023
  20096833.734    -3749105.674 4  -2877667.59021
  17042811.3904  -28892959.66648 -22414214.84164
  18156879.4294  -21072507.51746 -13299070.79561
  19972482.2734  -17869348.03846 -13728103.12361
  18762341.9524  -18958435.95046 -14484653.44062
 93  5 21 19 44 44.9870000  0  6G27G19G 2G13G15G26
  17270902.226   -20744309.231 7 -16076996.89323
  20100169.2804   -3731553.93843  -2863990.99961
  17038068.5074  -28917884.64348 -22433636.89364
  18141951.624   -21150949.130 6 -13360194.10421
  19969184.405   -17886684.282 6 -13741611.90421
  18755484.5074  -18994475.69846 -14512736.35862
 93  5 21 19 44 59.9870000  0  6G27G19G 2G13G15G26
  17271703.0154  -20740110.53447 -16073725.20563
  20103520.1324   -3713957.86043  -2850279.87861
  17033332.2804  -28942773.11048 -22453030.51364
  18127044.382   -21229295.301 6 -13421243.03221
  19965909.8664  -17903881.27546 -13755012.18361
  18748653.6014  -19030378.01146 -14540712.18961
 93  5 21 19 45 14.9860000  0  6G27G19G 2G13G15G26
  17272521.565   -20735795.791 7 -16070363.09423
  20106878.4084   -3696317.96243  -2836534.61461
  17028602.8224  -28967623.67448 -22472394.58664
  18112156.7054  -21307541.13146 -13482213.76461
  19962665.635   -17920938.378 6 -13768303.44721
  18741844.0804  -19066140.71046 -14568579.23261
 93  5 21 19 45 29.9860000  0  6G27G19G 2G13G15G26
  17273366.940   -20731364.150 7 -16066909.88123
  20110245.205    -3678631.501 3  -2822753.04921
  17023881.5184  -28992438.81248 -22491731.06064
  18097282.893   -21385695.321 6 -13543113.09321
  19959444.643   -17937856.632 5 -13781486.54821
  18735068.526   -19101766.232 6 -14596339.37022
 93  5 21 19 45 44.9860000  0  6G27G19G 2G13G15G26
  17274228.744   -20726821.342 7 -16063370.05323
  20113622.7134   -3660899.56743  -2808936.03461
  17019164.9634  -29017220.14348 -22511041.19064
  18082429.3854  -21463754.11646 -13603938.09961
  19956254.5264  -17954636.73546 -13794561.96161
  18728314.2444  -19137255.36446 -14623993.23962
 93  5 21 19 45 59.9860000  0  6G27G19G 2G13G15G26
  17275117.229   -20722166.105 7 -16059742.62223
  20117002.955    -3643117.068 4  -2795079.63521
  17014457.9714  -29041961.79348 -22530320.40364
  18067591.7054  -21541713.21346 -13664685.41361
  19953086.1274  -17971274.56346 -13807526.50361
  18721586.7134  -19172603.81946 -14651537.49062
 93  5 21 19 46 14.9860000  0  6G27G19G 2G13G15G26
  17276024.2764  -20717401.59247 -16056030.04163
  20120396.096    -3625286.609 3  -2781185.86721
  17009756.5654  -29066665.76448 -22549570.25464
  18052774.8694  -21619575.92446 -13725357.61961
  19949946.901   -17987773.558 6 -13820382.87821
  18714886.1194  -19207814.65746 -14678974.50462
 93  5 21 19 46 29.9860000  0  6G27G19G 2G13G15G26
  17276951.518   -20712522.452 7 -16052228.14423
  20123790.2834   -3607405.73243  -2767252.81861
  17005061.5264  -29091328.15747 -22568787.69764
  18037976.7364  -21697337.23446 -13785950.81261
  19946837.291   -18004129.324 6 -13833127.64221
  18708212.9164  -19242883.81946 -14706301.12562
 93  5 21 19 46 44.9860000  0  6G27G19G 2G13G15G26
  17277901.346   -20707530.767 7 -16048338.54423
  20127205.8694   -3589475.65643  -2753281.42961
  17000378.3464  -29115950.22148 -22587973.71764
  18023201.111   -21775001.034 6 -13846468.02821
  19943748.307   -18020346.333 5 -13845764.28721
  18701567.5494  -19277816.82146 -14733521.64762
 93  5 21 19 46 59.9860000  0  6G27G19G 2G13G15G26
  17278873.682   -20702429.069 7 -16044363.21723
  20130626.291    -3571494.000 3  -2739269.84921
  16995699.7364  -29140526.81048 -22607124.31764
  18008438.6904  -21852566.16346 -13906908.35961
  19940690.1044  -18036423.74845 -13858292.15361
  18694944.2764  -19312612.12446 -14760634.85962
 93  5 21 19 47 14.9860000  0  6G27G19G 2G13G15G26
  17279861.6744  -20697221.06547 -16040305.05563
  20134063.947    -3553459.289 3  -2725216.91621
  16991033.0104  -29165054.06748 -22626236.45964
  17993696.0574  -21930031.37246 -13967270.82761
  19937654.5724  -18052360.61045 -13870710.50861
  18688350.3854  -19347270.30946 -14787641.23662
 93  5 21 19 47 29.9860000  0  6G27G19G 2G13G15G26
  17280873.049   -20691909.470 7 -16036166.17323
  20137507.541    -3535372.725 3  -2711123.58621
  16986376.7444  -29189532.72548 -22645310.73664
  17978976.4324  -22007397.68446 -14027556.23161
  19934648.9014  -18068158.28245 -13883020.38661
  18681780.8304  -19381792.12246 -14814541.34961
 93  5 21 19 47 44.9860000  0  6G27G19G 2G13G15G26
  17281903.205   -20686496.489 7 -16031948.28623
  20140961.1044   -3517232.84744  -2696988.71161
  16981726.1274  -29213963.89048 -22664348.01164
  17964271.7364  -22084664.31646 -14087763.96061
  19931672.0804  -18083816.37145 -13895221.48661
  18675237.6664  -19416178.06746 -14841335.59561
 93  5 21 19 47 59.9860000  0  6G27G19G 2G13G15G26
  17282952.572   -20680980.689 7 -16027650.27623
  20144420.7134   -3499036.29344  -2682809.66161
  16977086.7834  -29238344.24748 -22683345.69664
  17949590.0334  -22161828.66946 -14147891.99361
  19928716.6434  -18099332.86445 -13907312.27561
  18668720.7684  -19450424.86346 -14868021.41562
 93  5 21 19 48 14.9860000  0  6G27G19G 2G13G15G26
  17284022.455   -20675365.174 7 -16023274.57623
  20147894.8074   -3480786.92643  -2668589.47561
  16972455.5724  -29262677.96948 -22702307.03864
  17934921.9944  -22238895.17946 -14207943.78861
  19925791.776   -18114712.522 5 -13919296.43321
  18662228.3304  -19484537.14646 -14894602.41462
 93  5 21 19 48 29.9860000  0  6G27G19G 2G13G15G26
  17285108.783   -20669648.178 7 -16018819.80323
  20151371.9944   -3462483.75343  -2654327.35261
  16967834.7054  -29286963.88348 -22721231.12664
  17920276.9084  -22315860.73946 -14267916.91661
  19922889.5654  -18129952.52845 -13931171.77661
  18655762.869   -19518511.514 6 -14921075.93422
 93  5 21 19 48 44.9860000  0  6G27G19G 2G13G15G26
  17286216.658   -20663835.263 7 -16014290.28323
  20154872.885    -3444129.625 3  -2640025.53821
  16963222.7604  -29311205.74647 -22740120.89264
  17905652.072   -22392727.422 6 -14327813.00021
  19920017.822   -18145055.347 5 -13942940.22921
  18649324.5884  -19552349.38246 -14947443.10562
 93  5 21 19 48 59.9860000  0  6G27G19G 2G13G15G26
  17287341.854   -20657929.058 7 -16009688.06523
  20158374.8934   -3425726.37643  -2625685.45261
  16958618.8544  -29335401.99548 -22758975.10864
  17891039.674   -22469494.744 6 -14387631.66621
  19917170.119   -18160020.874 5 -13954601.68921
  18642912.3934  -19586051.48646 -14973704.48462
 93  5 21 19 49 14.9860000  0  6G27G19G 2G13G15G26
  17288483.658   -20651929.624 7 -16005013.20523
  20161884.666    -3407274.136 3  -2611307.21221
  16954021.6664  -29359552.80748 -22777793.92164
  17876453.8224  -22546159.55546 -14447370.45761
  19914347.065   -18174846.434 5 -13966154.09121
  18636526.0414  -19619615.30146 -14999858.10662
 93  5 21 19 49 29.9860000  0  6G27G19G 2G13G15G26
  17289643.5654  -20645832.99347 -16000262.61563
  20165399.893    -3388772.397 3  -2596890.36221
  16949434.6044  -29383660.50348 -22796579.14264
  17861883.9164  -22622721.61546 -14507029.17561
  19911553.4014  -18189532.18245 -13977597.53261
  18630164.7684  -19653040.80646 -15025903.94562
 93  5 21 19 49 44.9860000  0  6G27G19G 2G13G15G26
  17290821.619   -20639637.574 7 -15995435.03823
  20168930.330    -3370222.020 3  -2582435.59721
  16944854.0024  -29407725.54648 -22815331.12164
  17847332.4864  -22699181.21546 -14566608.05161
  19908779.5104  -18204078.79945 -13988932.56461
  18623829.0574  -19686329.21046 -15051842.95362
 93  5 21 19 49 59.9860000  0  6G27G19G 2G13G15G26
  17292019.229   -20633339.512 7 -15990527.48723
  20172470.815    -3351622.917 3  -2567942.89321
  16940283.4714  -29431745.79248 -22834048.20064
  17832805.1824  -22775536.22846 -14626105.43261
  19906045.205   -18218484.695 5 -14000157.97221
  18617521.5494  -19719480.30346 -15077674.97662
 93  5 21 19 50 14.9860000  0  6G27G19G 2G13G15G26
  17293238.510   -20626937.684 7 -15985539.07023
  20176025.0264   -3332979.61843  -2553415.74561
  16935723.4014  -29455722.39248 -22852731.27064
  17818294.236   -22851788.746 6 -14685522.94121
  19903326.526   -18232752.099 5 -14011275.44521
  18611239.8384  -19752495.71046 -15103401.27262
 93  5 21 19 50 29.9860000  0  6G27G19G 2G13G15G26
  17294475.776   -20620433.748 7 -15980471.09223
  20179577.4794   -3314294.56643  -2538856.06461
  16931165.7524  -29479658.22147 -22871382.56964
  17803800.565   -22927939.777 6 -14744861.38221
  19900641.4944  -18246882.42445 -14022286.12161
  18604979.471   -19785376.279 6 -15129022.50221
 93  5 21 19 50 44.9860000  0  6G27G19G 2G13G15G26
  17295735.760   -20613826.378 7 -15975322.51223
  20183143.3384   -3295567.04142  -2524263.30461
  16926620.0724  -29503552.46548 -22890001.45964
  17789330.0264  -23003986.56846 -14804118.59261
  19897979.080   -18260873.279 5 -14033188.11621
  18598747.2764  -19818119.31046 -15154536.54961
 93  5 21 19 50 59.9860000  0  6G27G19G 2G13G15G26
  17297012.0964  -20607114.77547 -15970092.72563
  20186715.4794   -3276796.58442  -2509637.09861
  16922079.6904  -29527404.47947 -22908587.43764
  17774878.104   -23079929.649 6 -14863294.99121
  19895344.2294  -18274725.60445 -14043982.13961
  18592545.4554  -19850728.51746 -15179946.31361
 93  5 21 19 51 14.9860000  0  6G27G19G 2G13G15G26
  17298307.1584  -20600295.46047 -15964779.00063
  20190294.9014   -3257982.65343  -2494976.97761
  16917550.0964  -29551215.75747 -22927141.68664
  17760449.2524  -23155768.45546 -14922390.12761
  19892730.4714  -18288439.44145 -14054668.28361
  18586363.7604  -19883203.36846 -15205251.37561
 93  5 21 19 51 29.9860000  0  6G27G19G 2G13G15G26
  17299628.588   -20593367.012 7 -15959380.23123
  20193884.611    -3239123.988 3  -2480282.01021
  16913023.8774  -29574987.15147 -22945664.84164
  17746036.9554  -23231503.78746 -14981404.64461
  19890149.143   -18302015.855 6 -14065247.31621
  18580210.6514  -19915542.56046 -15230450.75061
 93  5 21 19 51 44.9860000  0  6G27G19G 2G13G15G26
  17300966.627   -20586329.549 7 -15953896.52523
  20197481.002    -3220222.302 3  -2465553.53521
  16908510.6354  -29598716.49548 -22964155.24464
  17731643.9084  -23307136.40946 -15040339.11961
  19887592.7764  -18315455.90445 -14075720.08961
  18574083.8694  -19947747.65446 -15255545.62361
 93  5 21 19 51 59.9860000  0  6G27G19G 2G13G15G26
  17302326.432   -20579182.194 7 -15948327.18123
  20201085.658    -3201276.400 3  -2450790.60121
  16904002.4404  -29622399.70648 -22982609.69664
  17717269.6274  -23382662.32446 -15099190.45761
  19885060.901   -18328755.885 5 -14086083.72621
  18567982.0334  -19979813.08946 -15280531.68761
 93  5 21 19 52 14.9860000  0  6G27G19G 2G13G15G26
  17303704.6824  -20571928.62147 -15942675.07563
  20204696.7444   -3182289.07043  -2435995.37761
  16899504.8934  -29646041.32548 -23001031.74264
  17702920.2294  -23458084.40646 -15157960.89161
  19882556.143   -18341919.283 5 -14096340.93921
  18561901.7834  -20011742.02846 -15305411.38162
 93  5 21 19 52 29.9860000  0  6G27G19G 2G13G15G26
  17305107.885   -20564569.805 7 -15936940.95823
  20208317.104    -3163257.804 3  -2421165.92921
  16895013.6664  -29669641.93447 -23019421.82464
  17688588.5804  -23533401.91446 -15216649.81861
  19880078.6664  -18354945.57045 -14106491.29461
  18555854.7994  -20043533.23846 -15330183.75562
 93  5 21 19 52 44.9860000  0  6G27G19G 2G13G15G26
  17306528.565   -20557104.772 7 -15931124.06923
  20211951.9714   -3144181.28342  -2406301.22861
  16890530.6584  -29693198.77248 -23037777.80064
  17674275.010   -23608612.418 6 -15275255.38021
  19877623.9404  -18367832.70345 -14116533.21561
  18549833.2524  -20075186.30046 -15354848.49062
 93  5 21 19 52 59.9860000  0  6G27G19G 2G13G15G26
  17307967.369   -20549534.151 7 -15925224.90723
  20215578.9864   -3125062.92243  -2391403.91761
  16886056.7444  -29716712.36548 -23056100.08864
  17659984.2914  -23683717.67246 -15333778.91761
  19875202.3224  -18380582.98445 -14126468.50561
  18543835.9554  -20106706.05746 -15379409.34862
 93  5 21 19 53 14.9860000  0  6G27G19G 2G13G15G26
  17309431.4944  -20541852.87247 -15919239.52863
  20219234.268    -3105899.586 3  -2376471.54921
  16881590.1514  -29740177.84647 -23074384.88164
  17645709.494   -23758713.882 6 -15392217.49721
  19872798.346   -18393192.910 5 -14136294.45121
  18537861.5184  -20138087.83246 -15403862.67861
 93  5 21 19 53 29.9860000  0  6G27G19G 2G13G15G26
  17310911.0964  -20534065.00547 -15913171.09563
  20222891.7604   -3086696.68743  -2361508.37061
  16877133.6044  -29763598.52547 -23092634.75664
  17631461.5804  -23833604.70746 -15450573.95161
  19870423.752   -18405666.671 5 -14146014.25921
  18531913.1824  -20169336.16246 -15428212.02661
 93  5 21 19 53 44.9860000  0  6G27G19G 2G13G15G26
  17312413.221   -20526170.123 7 -15907019.25523
  20226550.799    -3067452.259 3  -2346512.81621
  16872687.6354  -29786971.60048 -23110847.54264
  17617231.8074  -23908387.80946 -15508846.46161
  19868077.0654  -18418002.32045 -14155626.45161
  18525994.7054  -20200450.93646 -15452457.30662
 93  5 21 19 53 59.9860000  0  6G27G19G 2G13G15G26
  17313936.682   -20518169.914 7 -15900785.34923
  20230214.979    -3048169.166 3  -2331487.15121
  16868250.322   -29810299.945 8 -23129025.48324
  17603016.815   -23983063.498 6 -15567035.28521
  19865756.901   -18430200.582 5 -14165131.59521
  18520099.2054  -20231434.99046 -15476600.71361
 93  5 21 19 54 14.9860000  0  6G27G19G 2G13G15G26
  17315478.955   -20510064.385 7 -15894469.37123
  20233900.346    -3028846.551 3  -2316430.67221
  16863815.0494  -29833584.62947 -23147169.39364
  17588829.315   -24057631.460 6 -15625140.17021
  19863460.908   -18442261.464 5 -14174529.71121
  18514225.4554  -20262290.93446 -15500644.26962
 93  5 21 19 54 29.9860000  0  6G27G19G 2G13G15G26
  17317041.557   -20501853.374 7 -15888071.20723
  20237581.1744   -3009482.07443  -2301341.60461
  16859394.6584  -29856825.77248 -23165279.37564
  17574658.3694  -24132091.00146 -15683160.56161
  19861194.0334  -18454184.85645 -14183820.67261
  18508378.4634  -20293020.98946 -15524589.76062
 93  5 21 19 54 44.9860000  0  6G27G19G 2G13G15G26
  17318624.611   -20493536.520 7 -15881590.56623
  20241274.986    -2990076.497 2  -2286220.49021
  16854979.9944  -29880022.55548 -23183354.78564
  17560512.471   -24206441.465 6 -15741095.97721
  19858950.2444  -18465970.27746 -14193004.13061
  18502553.2444  -20323624.43146 -15548436.59362
 93  5 21 19 54 59.9860000  0  6G27G19G 2G13G15G26
  17320224.2684  -20485115.62847 -15875028.86262
  20244962.1584   -2970630.26942  -2271067.69861
  16850574.3384  -29903176.47148 -23201396.79864
  17546385.1824  -24280682.95746 -15798946.45661
  19856734.7914  -18477618.32746 -14202080.52961
  18496754.6044  -20354102.51946 -15572185.74962
 93  5 21 19 55 14.9860000  0  6G27G19G 2G13G15G26
  17321846.768   -20476596.600 7 -15868390.68523
  20248684.354    -2951143.350 2  -2255883.17121
  16846175.4474  -29926290.89848 -23219408.03564
  17532277.3304  -24354817.78946 -15856713.81661
  19854542.7764  -18489131.81346 -14211052.10061
  18490977.9794  -20384455.76246 -15595837.62562
 93  5 21 19 55 29.9860000  0  6G27G19G 2G13G15G26
  17323490.557   -20467976.845 7 -15861674.01023
  20252402.8384   -2931610.42542  -2240662.82661
  16841785.5264  -29949362.82948 -23237386.16164
  17518190.682   -24428842.023 6 -15914395.01521
  19852378.0264  -18500507.04846 -14219915.92461
  18485227.8934  -20414678.09646 -15619387.48762
 93  5 21 19 55 44.9860000  0  6G27G19G 2G13G15G26
  17325146.2914  -20459261.34147 -15854882.73963
  20256130.401    -2912033.235 2  -2225408.00121
  16837402.3304  -29972394.25048 -23255332.73064
  17504123.971   -24502757.211 6 -15971991.24021
  19850240.5104  -18511746.09646 -14228673.61361
  18479500.6664  -20444770.46146 -15642836.09962
 93  5 21 19 55 59.9860000  0  6G27G19G 2G13G15G26
  17326820.619   -20450453.167 7 -15848019.24423
  20259860.7444   -2892411.99342  -2210118.84961
  16833025.0104  -29995385.68947 -23273248.13664
  17490079.369   -24576564.130 6 -16029503.09821
  19848124.846   -18522850.154 6 -14237326.11221
  18473801.7444  -20474730.79346 -15666181.80361
 93  5 21 19 56 14.9860000  0  6G27G19G 2G13G15G26
  17328516.9014  -20441552.98947 -15841084.07062
  20263606.580    -2872746.440 2  -2194795.14221
  16828660.2914  -30018336.08448 -23291131.56264
  17476054.9164  -24650262.82046 -16086930.63161
  19846040.1744  -18533819.44846 -14245873.61361
  18468126.4944  -20504558.26546 -15689423.99661
 93  5 21 19 56 29.9860000  0  6G27G19G 2G13G15G26
  17330230.6904  -20432558.02247 -15834075.03663
  20267354.8614   -2853033.68742  -2179434.67561
  16824300.9714  -30041242.60348 -23308980.79264
  17462050.260   -24723852.390 6 -16144273.11721
  19843976.971   -18544653.666 6 -14254315.88821
  18462475.5104  -20534248.59746 -15712559.32361
 93  5 21 19 56 44.9860000  0  6G27G19G 2G13G15G26
  17331959.799   -20423466.471 7 -15826990.73422
  20271115.3074   -2833272.35642  -2164036.35561
  16819951.7994  -30064101.43848 -23326792.87064
  17448067.8694  -24797329.45646 -16201527.94661
  19841938.0804  -18555349.94445 -14262650.63961
  18456850.721   -20563793.601 6 -15735581.41221
 93  5 21 19 56 59.9860000  0  6G27G19G 2G13G15G26
  17333705.9794  -20414282.18447 -15819834.18062
  20274886.2834   -2813465.51642  -2148602.58361
  16815609.0334  -30086914.35948 -23344569.17464
  17434108.2834  -24870695.74846 -16258696.45861
  19839932.4244  -18565910.37545 -14270879.54461
  18451261.760   -20593193.966 6 -15758490.81121
 93  5 21 19 57 14.9860000  0  6G27G19G 2G13G15G26
  17335472.026   -20405002.068 7 -15812602.94322
  20278662.479    -2793609.659 3  -2133130.60621
  16811278.1744  -30109678.04648 -23362307.11364
  17420167.479   -24943948.276 6 -16315776.32621
  19837948.1194  -18576332.15145 -14279000.41261
  18445694.307   -20622446.776 6 -15781285.19221
 93  5 21 19 57 29.9860000  0  6G27G19G 2G13G15G26
  17337255.213   -20395627.521 7 -15805298.12422
  20282451.315    -2773710.473 2  -2117624.87121
  16806954.2914  -30132392.82647 -23380006.94264
  17406251.158   -25017091.098 6 -16372770.71821
  19835991.002   -18586619.802 5 -14287016.77221
  18440154.846   -20651553.517 6 -15803965.78321
 93  5 21 19 57 44.9860000  0  6G27G19G 2G13G15G26
  17339059.4324  -20386154.66747 -15797916.70662
  20286244.7214   -2753766.97042  -2102084.61961
  16802642.5414  -30155056.25047 -23397666.75564
  17392353.565   -25090121.269 6 -16429677.31921
  19834057.9324  -18596770.76845 -14294926.62361
  18434638.2444  -20680513.68846 -15826532.15461
 93  5 21 19 57 59.9860000  0  6G27G19G 2G13G15G26
  17340882.0964  -20376583.49847 -15790458.68362
  20290042.307    -2733778.754 2  -2086509.51021
  16798339.3544  -30177667.80948 -23415286.14764
  17378476.596   -25163037.517 6 -16486495.15621
  19832153.2524  -18606784.22545 -14302729.32261
  18429155.385   -20709327.190 6 -15848984.21622
 93  5 21 19 58 14.9860000  0  6G27G19G 2G13G15G26
  17342720.510   -20366914.371 7 -15782924.33022
  20293859.651    -2713750.261 2  -2070902.99921
  16794045.3694  -30200230.90048 -23432867.78064
  17364622.401   -25235843.126 6 -16543226.77221
  19830271.9404  -18616664.02845 -14310427.87161
  18423703.1664  -20738001.94846 -15871328.17462
 93  5 21 19 58 29.9850000  0  5G27G 2G13G15G26
  17344578.1144  -20357143.21847 -15775310.46862
  16789761.2944  -30222741.54848 -23450408.53964
  17350791.591   -25308530.172 6 -16599866.00621
  19828418.247   -18626406.733 5 -14318019.62221
  18418275.818   -20766534.936 6 -15893561.68622
 93  5 21 19 58 44.9850000  0  5G27G 2G13G15G26
  17346458.794   -20347272.197 7 -15767618.78622
  16785487.1074  -30245205.57548 -23467912.96964
  17336981.1464  -25381107.85346 -16656420.02061
  19826588.997   -18636013.580 5 -14325505.49921
  18412868.5444  -20794930.26846 -15915687.92962
 93  5 21 19 58 59.9850000  0  5G27G 2G13G15G26
  17348353.2634  -20337304.99047 -15759852.16862
  16781221.0914  -30267626.83648 -23485384.08164
  17323190.2634  -25453572.96846 -16712886.31261
  19824789.786   -18645485.957 5 -14332886.58421
  18407490.8574  -20823190.97346 -15937709.26662
 93  5 21 19 59 14.9850000  0  5G27G 2G13G15G26
  17350271.036   -20327237.585 7 -15752007.46322
  16776965.0054  -30290004.77248 -23502821.44164
  17309421.708   -25525925.045 6 -16769264.53721
  19823012.239   -18654823.546 5 -14340162.63921
  18402137.2244  -20851319.46346 -15959627.58362
 93  5 21 19 59 29.9850000  0  5G27G 2G13G15G26
  17352206.4974  -20317066.75247 -15744082.16662
  16772713.7554  -30312338.22748 -23520224.13364
  17295675.349   -25598162.507 6 -16825553.44321
  19821262.028   -18664025.266 5 -14347332.81821
  18396813.7554  -20879315.03646 -15981442.31261
 93  5 21 19 59 44.9850000  0  5G27G 2G13G15G26
  17354161.3574  -20306795.03247 -15736078.26162
  16768468.5444  -30334630.60947 -23537594.82164
  17281951.966   -25670285.788 6 -16881753.38621
  19819534.4354  -18673092.10045 -14354397.90261
  18391508.9034  -20907180.14746 -16003155.39761
 93  5 21 19 59 59.9850000  0  5G27G 2G13G15G26
  17356130.161   -20296426.536 7 -15727998.93822
  16764235.7474  -30356890.30148 -23554940.03564
  17268248.4114  -25742298.17446 -16937866.90561
  19817835.1614  -18682027.63846 -14361360.66261
  18386227.6224  -20934922.21346 -16024772.59361
 93  5 21 20  0 14.9850000  0  5G27G 2G13G15G26
  17358127.4274  -20285959.21947 -15719842.62162
  16760005.1224  -30379114.77848 -23572257.81064
  17254565.6224  -25814197.83646 -16993892.58261
  19816160.099   -18690830.462 5 -14368220.01121
  18380977.388   -20962539.404 6 -16046292.50021
 93  5 21 20  0 29.9850000  0  5G27G 2G13G15G26
  17360138.8964  -20275392.44047 -15711608.79962
  16755784.3644  -30401303.87048 -23589548.02664
  17240904.739   -25885984.236 6 -17049830.02021
  19814509.6384  -18699500.68145 -14374976.04961
  18375741.599   -20990028.667 6 -16067712.71421
 93  5 21 20  0 44.9850000  0  5G27G 2G13G15G26
  17362164.9584  -20264729.43247 -15703299.99562
  16751568.3174  -30423459.16947 -23606811.89064
  17227266.1614  -25957658.32246 -17105679.92761
  19812885.9504  -18708039.50345 -14381629.70461
  18370536.4114  -21017387.78346 -16089031.52061
 93  5 21 20  0 59.9850000  0  5G27G 2G13G15G26
  17364213.247   -20253966.335 7 -15694913.19222
  16747356.5674  -30445575.69147 -23624045.54764
  17213649.005   -26029216.559 6 -17161439.57221
  19811285.7784  -18716443.83846 -14388178.53861
  18365360.2784  -21044612.59446 -16110245.65561
 93  5 21 20  1 14.9850000  0  6G27G19G 2G13G15G26
  17366280.575   -20243100.645 6 -15686446.43722
  20340147.396          -0.02312
  16743160.3174  -30467649.86148 -23641246.20864
  17200053.607   -26100659.062 6 -17217109.03221
  19809709.919   -18724714.366 5 -14394623.12621
  18360202.7864  -21071704.21246 -16131356.00761
 93  5 21 20  1 29.9850000  0  6G27G19G 2G13G15G26
  17368367.2164  -20232133.33047 -15677900.51462
  20344049.950       20511.819 2
  16738968.2944  -30489678.44648 -23658411.33964
  17186480.2634  -26171984.53646 -17272687.29761
  19808163.2164  -18732850.20645 -14400962.77661
  18355069.2784  -21098662.20846 -16152362.22761
 93  5 21 20  1 44.9850000  0  6G27G19G 2G13G15G26
  17370474.8494  -20221067.93846 -15669278.15862
  20347962.2324      41062.36742
  16734784.0284  -30511664.60448 -23675543.41964
  17172926.8174  -26243194.73246 -17328175.73161
  19806640.2714  -18740853.23845 -14407198.92361
  18349966.974   -21125489.573 6 -16173266.67621
 93  5 21 20  1 59.9850000  0  6G27G19G 2G13G15G26
  17372598.7324  -20209904.25747 -15660579.21762
  20351878.7084      61654.06342        -0.08071
  16730608.0214  -30533604.68648 -23692639.58764
  17159398.982   -26314288.593 6 -17383573.52821
  19805144.3884  -18748722.79245 -14413331.06161
  18344887.3254  -21152185.93646 -16194069.04261
 93  5 21 20  2 14.9850000  0  6G27G19G 2G13G15G26
  17374742.036   -20198640.919 7 -15651802.61722
  20355809.2554      82286.14943     16076.72861
  16726441.7634  -30555494.12448 -23709696.29564
  17145895.575   -26385265.635 6 -17438880.28821
  19803670.294   -18756458.997 5 -14419359.29221
  18339830.4354  -21178747.43146 -16214766.31861
 93  5 21 20  2 29.9850000  0  6G27G19G 2G13G15G26
  17376901.4974  -20187282.02447 -15642951.57062
  20359749.364      102954.919 3     32182.09121
  16722286.5914  -30577332.16148 -23726712.94664
  17132407.3174  -26456128.55146 -17494098.11761
  19802223.091   -18764064.963 5 -14425286.03821
  18334800.2864  -21205175.31246 -16235359.48061
 93  5 21 20  2 44.9850000  0  6G27G19G 2G13G15G26
  17379083.575   -20175826.209 7 -15634024.97722
  20363686.450      123659.686 3     48315.57421
  16718142.2394  -30599117.86548 -23743688.82263
  17118947.982   -26526875.140 6 -17549225.30821
  19800805.333   -18771539.010 5 -14431109.99021
  18329796.4114  -21231470.77346 -16255849.45361
 93  5 21 20  2 59.9850000  0  6G27G19G 2G13G15G26
  17381284.4434  -20164269.66147 -15625019.91562
  20367635.0834     144401.92343     64478.21061
  16714004.755   -30620848.759 7 -23760621.99924
  17105506.9194  -26597502.50946 -17604259.60161
  19799408.4894  -18778878.51945 -14436829.11461
  18324818.7784  -21257634.82846 -16276237.02461
 93  5 21 20  3 14.9850000  0  6G27G19G 2G13G15G26
  17383498.2714  -20152614.99246 -15615938.38762
  20371585.528      165175.671 3     80665.38121
  16709880.1534  -30642530.53948 -23777516.89763
  17092088.130   -26668014.169 6 -17659203.72621
  19798035.318   -18786087.439 5 -14442446.47621
  18319861.0684  -21283673.51746 -16296526.91162
 93  5 21 20  3 29.9850000  0  6G27G19G 2G13G15G26
  17385737.2474  -20140857.17346 -15606776.48362
  20375554.4114     185987.50543     96882.27561
  16705763.4114  -30664159.13248 -23794370.35064
  17078693.4664  -26738403.88546 -17714052.82961
  19796688.794   -18793159.895 5 -14447957.46021
  18314938.9354  -21309581.04746 -16316714.60362
 93  5 21 20  3 44.9850000  0  6G27G19G 2G13G15G26
  17387994.2394  -20129000.99246 -15597537.92962
  20379516.4974     206833.29143    113125.56661
  16701654.4894  -30685741.85448 -23811188.05764
  17065321.880   -26808676.873 7 -17768810.96921
  19795366.3414  -18800101.46145 -14453366.51461
  18310028.1534  -21335363.25246 -16336804.62661
 93  5 21 20  3 59.9850000  0  6G27G19G 2G13G15G26
  17390268.9894  -20117044.91746 -15588221.53962
  20383485.802      227714.811 2    129396.71621
  16697562.2634  -30707272.78548 -23827965.40864
  17051970.833   -26878828.910 6 -17823474.87721
  19794072.3334  -18806908.45445 -14458670.71261
  18305143.2324  -21361014.32546 -16356792.48661
 93  5 21 20  4 14.9850000  0  6G27G19G 2G13G15G26
  17392561.3804  -20104990.50546 -15578828.52762
  20387461.7394     248631.42542    145695.19461
  16693473.3644  -30728752.19548 -23844702.61164
  17038646.028   -26948860.393 6 -17878044.83921
  19792802.716   -18813581.551 5 -14463870.53821
  18300291.927   -21386531.951 6 -16376676.36321
 93  5 21 20  4 29.9850000  0  6G27G19G 2G13G15G26
  17394876.419   -20092839.111 6 -15569359.92922
  20391457.6774     269580.89142    162019.31361
  16689392.8724  -30750185.50347 -23861403.89864
  17025340.442   -27018772.029 7 -17932521.41621
  19791556.8724  -18820122.04045 -14468967.00961
  18295462.7784  -21411918.28346 -16396457.93061
 93  5 21 20  4 44.9850000  0  5G27G 2G13G15G26
  17397205.2394  -20080591.28646 -15559816.20862
  16685325.0054  -30771574.72748 -23878070.83664
  17012064.864   -27088563.658 7 -17986904.48121
  19790333.7324  -18826530.03945 -14473960.26961
  18290651.6144  -21437175.26846 -16416138.70561
 93  5 21 20  4 59.9850000  0  5G27G 2G13G15G26
  17399553.9194  -20068241.05746 -15550192.68162
  16681263.2474  -30792917.11748 -23894701.27464
  16998804.583   -27158230.640 7 -18041190.42321
  19789141.9194  -18832801.60345 -14478847.26061
  18285872.2164  -21462297.01346 -16435714.07861
 93  5 21 20  5 14.9850000  0  5G27G 2G13G15G26
  17401927.153   -20055796.216 7 -15540495.42622
  16677208.2634  -30814217.73448 -23911299.16364
  16985568.067   -27227778.782 6 -18095383.75621
  19787971.521   -18838942.731 5 -14483632.58121
  18281118.4894  -21487286.42046 -16455186.33461
 93  5 21 20  5 29.9850000  0  5G27G 2G13G15G26
  17404309.646   -20043259.876 6 -15530726.87722
  16673165.0524  -30835474.32048 -23927862.73764
  16972354.7164  -27297208.15146 -18149484.53661
  19786832.3724  -18844953.81345 -14488316.53661
  18276386.5364  -21512142.98046 -16474555.08961
 93  5 21 20  5 44.9850000  0  5G27G 2G13G15G26
  17406711.544   -20030632.971 6 -15520887.75622
  16669127.2244  -30856683.35648 -23944389.25764
  16959165.2864  -27366517.34446 -18203491.67561
  19785711.591   -18850833.803 5 -14492898.36521
  18271682.427   -21536865.948 6 -16493819.75121
 93  5 21 20  5 59.9850000  0  5G27G 2G13G15G26
  17409134.3254  -20017914.90946 -15510977.60562
  16665101.3574  -30877842.22648 -23960876.69464
  16946002.974   -27435704.101 7 -18257403.41021
  19784619.2084  -18856581.12645 -14497376.83861
  18267004.864   -21561454.371 6 -16512979.55421
 93  5 21 20  6 14.9850000  0  5G27G 2G13G15G26
  17411568.2474  -20005105.38946 -15500996.19562
  16661083.4194  -30898953.35948 -23977326.93264
  16932859.357   -27504768.991 6 -18311220.18521
  19783551.943   -18862196.748 5 -14501752.66021
  18262352.1854  -21585906.95246 -16532033.50561
 93  5 21 20  6 29.9850000  0  5G27G 2G13G15G26
  17414024.9894  -19992199.45046 -15490939.64862
  16657074.5284  -30920019.17448 -23993741.85964
  16919738.021   -27573711.218 6 -18364941.37621
  19782508.3644  -18867680.15545 -14506025.44761
  18257723.7474  -21610224.34246 -16550982.11862
 93  5 21 20  6 44.9850000  0  5G27G 2G13G15G26
  17416501.380   -19979199.295 7 -15480809.70222
  16653075.466   -30941039.803 8 -24010121.57924
  16906643.482   -27642532.622 6 -18418568.42521
  19781486.146   -18873033.551 5 -14510196.95521
  18253122.661   -21634409.508 6 -16569827.71522
 93  5 21 20  6 59.9850000  0  5G27G 2G13G15G26
  17418989.810   -19966105.968 6 -15470607.13122
  16649084.8724  -30962009.63248 -24026461.71064
  16893570.935   -27711231.933 7 -18472100.33021
  19780495.778   -18878256.192 5 -14514266.54821
  18248547.450   -21658461.002 6 -16588569.15321
 93  5 21 20  7 14.9850000  0  5G27G 2G13G15G26
  17421499.185   -19952921.228 6 -15460333.32822
  16645103.6534  -30982927.47448 -24042761.33064
  16880520.450   -27779808.352 6 -18525536.47121
  19779528.9744  -18883347.75745 -14518234.00461
  18243990.857   -21682378.960 6 -16607206.54021
 93  5 21 20  7 29.9850000  0  5G27G 2G13G15G26
  17424030.3024  -19939645.94646 -15449988.97462
  16641131.3024  -31003794.37148 -24059021.26264
  16867494.528   -27848262.258 6 -18578877.15721
  19778579.630   -18888308.827 5 -14522099.79321
  18239469.0444  -21706164.58646 -16625740.79161
 93  5 21 20  7 44.9850000  0  5G27G 2G13G15G26
  17426571.685   -19926277.801 6 -15439572.27222
  16637170.6224  -31024612.26648 -24075242.99864
  16854492.107   -27916593.319 7 -18632122.11821
  19777664.7554  -18893139.60445 -14525864.05061
  18234965.3184  -21729818.26846 -16644172.24161
 93  5 21 20  7 59.9850000  0  5G27G 2G13G15G26
  17429133.1854  -19912817.98046 -15429084.12262
  16633216.8024  -31045388.16548 -24091432.01864
  16841510.958   -27984804.650 7 -18685273.78121
  19776769.5444  -18897843.48945 -14529529.40461
  18230489.8024  -21753341.28846 -16662501.88261
 93  5 21 20  8 14.9850000  0  5G27G 2G13G15G26
  17431712.0364  -19899259.73346 -15418519.29162
  16629275.013   -31066116.895 8 -24107584.28624
  16828554.739   -28052890.284 6 -18738327.50721
  19775897.778   -18902415.201 5 -14533091.79121
  18226038.7474  -21776725.19746 -16680723.11161
 93  5 21 20  8 29.9850000  0  5G27G 2G13G15G26
  17434306.278   -19885609.802 6 -15407883.00722
  16625337.5284  -31086805.24548 -24123705.08464
  16815619.458   -28120856.594 6 -18791288.24521
  19775049.341   -18906861.236 5 -14536556.25021
  18221613.286   -21799976.799 6 -16698841.26422
 93  5 21 20  8 44.9850000  0  5G27G 2G13G15G26
  17436924.4504  -19871868.54346 -15397175.56362
  16621409.7784  -31107447.32448 -24139789.82464
  16802712.536   -28188701.110 7 -18844154.07921
  19774230.6074  -18911179.70045 -14539921.33361
  18217214.2324  -21823096.70246 -16716856.77561
 93  5 21 20  8 59.9850000  0  5G27G 2G13G15G26
  17439558.7394  -19858034.33746 -15386395.69762
  16617492.4584  -31128035.65148 -24155832.67564
  16789828.3494  -28256417.42847 -18896920.01061
  19773431.9824  -18915364.77645 -14543182.41561
  18212839.4744  -21846080.09946 -16734765.90661
 93  5 21 20  9 14.9850000  0  5G27G 2G13G15G26
  17442205.5524  -19844113.55046 -15375548.36062
  16613580.6224  -31148580.93648 -24171841.99164
  16776963.505   -28324011.385 7 -18949590.60621
  19772663.7244  -18919422.55845 -14546344.30661
  18208494.9744  -21868933.79546 -16752573.99861
 93  5 21 20  9 29.9850000  0  5G27G 2G13G15G26
  17444873.8254  -19830103.66346 -15364631.60462
  16609678.6694  -31169090.23448 -24187823.27264
  16764122.052   -28391483.819 6 -19002166.50721
  19771911.575   -18923354.187 5 -14549407.91621
  18204168.5684  -21891660.30046 -16770282.96861
 93  5 21 20  9 44.9850000  0  5G27G 2G13G15G26
  17447556.5214  -19815998.30046 -15353640.45462
  16605784.9424  -31189558.35448 -24203772.46364
  16751306.177   -28458828.088 6 -19054642.54221
  19771190.193   -18927153.442 5 -14552368.39421
  18199867.0134  -21914254.06946 -16787888.51161
 93  5 21 20  9 59.9850000  0  5G27G 2G13G15G26
  17450255.982   -19801801.938 6 -15342578.37722
  16601895.2324  -31209987.29848 -24219691.12264
  16738517.864   -28526046.946 7 -19107020.85421
  19770496.7554  -18930823.56845 -14555228.24261
  18195598.2164  -21936718.63546 -16805393.37061
 93  5 21 20 10 14.9850000  0  5G27G 2G13G15G26
  17452976.6384  -19787520.13346 -15331449.73462
  16598016.3574  -31230378.40548 -24235580.30564
  16725748.1614  -28593142.89847 -19159303.38361
  19769816.7244  -18934367.42845 -14557989.70861
  18191343.1854  -21959057.50146 -16822800.27261
 93  5 21 20 10 29.9850000  0  5G27G 2G13G15G26
  17455711.8104  -19773152.33146 -15320254.07662
  16594142.0914  -31250729.24247 -24251438.10764
  16713006.044   -28660113.380 7 -19211488.15321
  19769168.0994  -18937782.95845 -14560651.15461
  18187116.6384  -21981271.61846 -16840109.97961
 93  5 21 20 10 44.9850000  0  5G27G 2G13G15G26
  17458459.443   -19758700.448 6 -15308992.91222
  16590279.3884  -31271039.04848 -24267263.94364
  16700286.169   -28726958.390 7 -19263575.14121
  19768541.474   -18941070.590 5 -14563212.91121
  18182912.9974  -22003363.15346 -16857324.16361
 93  5 21 20 10 59.9850000  0  5G27G 2G13G15G26
  17461226.5914  -19744166.17546 -15297667.53862
  16586422.6384  -31291311.58048 -24283060.72264
  16687589.403   -28793679.342 7 -19315565.48221
  19767939.7164  -18944232.25545 -14565676.55261
  18178733.599   -22025332.836 6 -16874443.40721
 93  5 21 20 11 14.9850000  0  5G27G 2G13G15G26
  17464006.3414  -19729544.03146 -15286273.69162
  16582568.6774  -31311546.77048 -24298828.39964
  16674912.911   -28860272.020 7 -19367455.86221
  19767362.435   -18947264.258 5 -14568039.18021
  18174576.646   -22047175.093 6 -16891463.36421
 93  5 21 20 11 29.9850000  0  5G27G 2G13G15G26
  17466806.6464  -19714831.82246 -15274809.66362
  16578725.3334  -31331746.15848 -24314568.19064
  16662267.216   -28926738.793 7 -19419248.13321
  19766811.4584  -18950169.15845 -14570302.72961
  18170443.1464  -22068890.90646 -16908384.77661
 93  5 21 20 11 44.9840000  0  5G27G 2G13G15G26
  17469623.7274  -19700028.98246 -15263275.01762
  16574890.094   -31351901.314 7 -24330273.52024
  16649644.1094  -28993073.65147 -19470937.60561
  19766281.5394  -18952945.64845 -14572466.22661
  18166335.2424  -22090477.84846 -16925205.77361
 93  5 21 20 11 59.9840000  0  5G27G 2G13G15G26
  17472458.8914  -19685138.96446 -15251672.44462
  16571064.4614  -31372013.53848 -24345945.38964
  16637041.391   -29059289.074 7 -19522534.01021
  19765778.149   -18955598.078 5 -14574533.08021
  18162248.766   -22111940.362 6 -16941929.82221
 93  5 21 20 12 14.9840000  0  5G27G 2G13G15G26
  17475311.1954  -19670159.30246 -15240000.01762
  16567246.7744  -31392079.84948 -24361581.48464
  16624467.5004  -29125379.76247 -19574033.22461
  19765298.758   -18958125.997 5 -14576502.86821
  18158188.133   -22133276.639 6 -16958555.50521
 93  5 21 20 12 29.9840000  0  5G27G 2G13G15G26
  17478175.164   -19655086.915 6 -15228255.34422
  16563436.2504  -31412096.59748 -24377178.94464
  16611915.4614  -29191343.15347 -19625433.24261
  19764839.5394  -18960527.29845 -14578374.01061
  18154154.2504  -22154484.89446 -16975081.42261
 93  5 21 20 12 44.9840000  0  5G27G 2G13G15G26
  17481062.9384  -19639922.05946 -15216438.62162
  16559634.313   -31432062.196 8 -24392736.56524
  16599384.758   -29257180.977 7 -19676735.42621
  19764405.7354  -18962803.92245 -14580148.02461
  18150146.4224  -22175566.88546 -16991508.94761
 93  5 21 20 12 59.9840000  0  5G27G 2G13G15G26
  17483964.7194  -19624661.82246 -15204547.56062
  16555847.1954  -31451974.04448 -24408252.29364
  16586882.2034  -29322892.45847 -19727939.16361
  19763993.164   -18964955.404 4 -14581824.48621
  18146153.4384  -22196521.12746 -17007836.92861
 93  5 21 20 13 14.9840000  0  5G27G 2G13G15G26
  17486886.7664  -19609301.44046 -15192578.46362
  16552069.7344  -31471829.28448 -24423723.90564
  16574402.1804  -29388473.59947 -19779041.32561
  19763608.781   -18966978.300 4 -14583400.80121
  18142192.102   -22217345.640 6 -17024063.84221
 93  5 21 20 13 29.9840000  0  5G27G 2G13G15G26
  17489830.3994  -19593842.70046 -15180532.73062
  16548302.3834  -31491627.38048 -24439150.99464
  16561949.188   -29453926.358 7 -19830043.45021
  19763253.5944  -18968874.98045 -14584878.72861
  18138251.3994  -22238043.18346 -17040191.80662
 93  5 21 20 13 44.9840000  0  5G27G 2G13G15G26
  17492794.3674  -19578288.68846 -15168412.74962
  16544544.1724  -31511367.34048 -24454532.77763
  16549515.672   -29519252.063 7 -19880946.57521
  19762912.7504  -18970647.05045 -14586259.57061
  18134338.6644  -22258617.43346 -17056223.68462
 93  5 21 20 13 59.9840000  0  5G27G 2G13G15G26
  17495769.0244  -19562645.95346 -15156223.64762
  16540799.2034  -31531053.66148 -24469872.77963
  16537108.219   -29584453.640 7 -19931752.97421
  19762598.664   -18972297.832 4 -14587545.91021
  18130446.2354  -22279070.78746 -17072161.36161
 93  5 21 20 14 14.9840000  0  5G27G 2G13G15G26
  17498763.977   -19546910.363 6 -15143962.18922
  16537064.9534  -31550683.75248 -24485168.96163
  16524724.0554  -29649525.86547 -19982458.57461
  19762309.1644  -18973822.71843 -14588734.17861
  18126578.0554  -22299397.12146 -17088000.07561
 93  5 21 20 14 29.9840000  0  5G27G 2G13G15G26
  17501772.2744  -19531086.03246 -15131631.58762
  16533340.7274  -31570261.89948 -24500424.66564
  16512364.414   -29714471.180 7 -20033065.30521
  19762043.4224  -18975224.58243 -14589826.57861
  18122732.953   -22319601.262 6 -17103743.57021
 93  5 21 20 14 44.9840000  0  6G27G19G 2G13G15G26
  17504802.8444  -19515173.65146 -15119232.35362
  20560456.2814         -0.99652
  16529621.7344  -31589785.88748 -24515638.16864
  16500033.9064  -29779286.23547 -20083570.51461
  19761797.266   -18976500.483 4 -14590820.81621
  18118915.320   -22339679.517 6 -17119388.97921
 93  5 21 20 14 59.9840000  0  6G27G19G 2G13G15G26
  17507846.5554  -19499176.50946 -15106767.08662
  20564700.3364      22294.38542
  16525916.9304  -31609260.94548 -24530813.53664
  16487722.1174  -29843972.85947 -20133975.64661
  19761578.3914  -18977652.50445 -14591718.48661
  18115113.656   -22359635.166 6 -17134938.86121
 93  5 21 20 15 14.9840000  0  6G27G19G 2G13G15G26
  17510903.3284  -19483100.82146 -15094240.61562
  20568945.8134      44617.17842
  16522220.4064  -31628696.00448 -24545957.73764
  16475438.609   -29908535.038 7 -20184283.81921
  19761381.953   -18978685.324 5 -14592523.28121
  18111337.7274  -22379471.97646 -17150396.11361
 93  5 21 20 15 29.9840000  0  5G27G 2G13G15G26
  17513980.7354  -19466944.98146 -15081651.68762
  16518529.7114  -31648085.77248 -24561066.65064
  16463177.1174  -29972967.33047 -20234490.77161
  19761210.7894  -18979593.93545 -14593231.30561
  18107589.7974  -22399183.24746 -17165755.55161
 93  5 21 20 15 44.9840000  0  5G27G 2G13G15G26
  17517065.9064  -19450709.13446 -15069000.42162
  16514849.1334  -31667428.07748 -24576138.58763
  16450939.727   -30037268.606 7 -20284595.64421
  19761059.7504  -18980377.63645 -14593841.96961
  18103868.9144  -22418766.90546 -17181015.54261
 93  5 21 20 15 59.9840000  0  5G27G 2G13G15G26
  17520170.5004  -19434398.29646 -15056290.70462
  16511175.4064  -31686726.75848 -24591176.52463
  16438729.063   -30101440.920 7 -20334600.01821
  19760934.344   -18981038.698 5 -14594357.12921
  18100162.391   -22438226.803 6 -17196179.12421
 93  5 21 20 16 14.9840000  0  5G27G 2G13G15G26
  17523292.8054  -19418011.66946 -15043521.94762
  16507510.6884  -31705982.14348
  16426541.820   -30165483.825 7 -20384503.56521
  19760833.6414  -18981576.89745 -14594776.54561
  18096486.570   -22457560.675 6
 93  5 21 20 16 29.9840000  0  5G27G 2G13G15G26
  17526424.6334  -19401551.91646 -15030696.20662
  16503851.7034  -31725195.50248
  16414378.734   -30229398.847 7 -20434307.45521
  19760751.320   -18981994.404 5 -14595101.90621
  18092826.336   -22476772.658 6
 93  5 21 20 16 44.9840000  0  5G27G 2G13G15G26
  17529571.860   -19385017.526 6 -15017812.31021
  16500208.3204  -31744365.47748 -24636089.81564
  16402242.492   -30293184.532 7 -20484010.55821
  19760696.656   -18982290.328 5 -14595332.50821
  18089197.0314  -22495861.67346 -17241089.40661
 93  5 21 20 16 59.9840000  0  5G27G 2G13G15G26
  17532732.4774  -19368405.30946 -15004867.76062
  16496566.2274  -31763490.55348 -24650992.47964
  16390126.141   -30356839.240 7 -20533611.60121
  19760665.188   -18982463.360 5
  18085586.3204  -22514825.07146 -17255866.09961
 93  5 21 20 17 14.9840000  0  5G27G 2G13G15G26
  17535907.086   -19351716.315 6 -14991863.39922
  16492937.1024  -31782572.71148 -24665861.69364
  16378038.0164  -30420366.09847 -20583113.02461
  19760656.102   -18982516.858 5
  18082000.524   -22533665.018 6 -17270546.58621
 93  5 21 20 17 29.9840000  0  5G27G 2G13G15G26
  17539098.664   -19334945.530 6 -14978795.30222
  16489316.5314  -31801605.89248 -24680692.74963
  16365976.164   -30483761.256 7 -20632511.82921
  19760666.789   -18982447.296 5
  18078435.477   -22552376.616 6 -17285127.06021
 93  5 21 20 17 44.9840000  0  5G27G 2G13G15G26
  17542304.9454  -19318091.75446 -14965662.51562
  16485703.5004  -31820590.25748 -24695485.76563
  16353936.797   -30547025.727 7 -20681808.79621
  19760704.274   -18982256.368 5
  18074900.227   -22570962.727 6 -17299609.76321
 93  5 21 20 17 59.9840000  0  5G27G 2G13G15G26
  17545529.328   -19301152.008 6 -14952462.76122
  16482095.086   -31839528.047 8 -24710242.49823
  16341922.508   -30610159.546 7 -20731003.95521
  19760761.367   -18981944.326 5
  18071392.664   -22589424.558 6 -17313995.61721
 93  5 21 20 18 14.9840000  0  5G27G 2G13G15G26
  17548769.836   -19284123.248 6 -14939193.62822
  16478504.2274  -31858419.30148 -24724962.95964
  16329932.313   -30673161.697 7 -20780096.51321
  19760845.0704  -18981510.77545 -14594725.11361
  18067898.203   -22607759.360 6 -17328282.48721
 93  5 21 20 18 29.9840000  0  5G27G 2G13G15G26
  17552026.453   -19267003.003 6 -14925853.22122
  16474917.7424  -31877262.42748 -24739645.91664
  16317968.633   -30736032.509 7 -20829086.74021
  19760950.6334  -18980956.44845 -14594293.17661
  18064435.211   -22625966.370 6 -17342469.78521
 93  5 21 20 18 44.9840000  0  5G27G 2G13G15G26
  17555303.031   -19249789.027 6 -14912439.78122
  16471342.2814  -31896058.35848 -24754292.09464
  16306033.0004  -30798770.81147 -20877973.69861
  19761080.266   -18980280.350 5 -14593766.33721
  18060993.6024  -22644047.36846 -17356558.88761
 93  5 21 20 18 59.9840000  0  5G27G 2G13G15G26
  17558597.180   -19232478.960 6 -14898951.46022
  16467771.9534  -31914806.28348 -24768900.86264
  16294117.8054  -30861374.77247 -20926755.97262
  19761228.5084  -18979481.34445 -14593143.74561
  18057578.3134  -22662000.68246 -17370548.48261
 93  5 21 20 19 14.9840000  0  5G27G 2G13G15G26
  17561908.945   -19215075.706 6 -14885390.53522
  16464216.297   -31933507.671 8 -24783473.37924
  16282230.359   -30923845.410 7 -20975434.37221
  19761403.8204  -18978560.93145 -14592426.55261
  18054186.188   -22679828.897 6 -17384440.61621
 93  5 21 20 19 29.9840000  0  5G27G 2G13G15G26
  17565236.7974  -19197582.67946 -14871759.62762
  16460663.9614  -31952165.90148 -24798012.26564
  16270368.742   -30986185.381 7 -21024010.94621
  19761605.914   -18977522.120 5 -14591617.10921
  18050819.500   -22697534.927 6 -17398237.53621
 93  5 21 20 19 44.9840000  0  5G27G 2G13G15G26
  17568584.805   -19179995.744 6 -14858055.57021
  16457124.6094  -31970778.02948 -24812515.22663
  16258530.000   -31048390.356 7 -21072482.34121
  19761825.1804  -18976360.74745 -14590712.12561
  18047469.156   -22715116.320 6 -17411937.33521
 93  5 21 20 19 59.9840000  0  5G27G 2G13G15G26
  17571946.7894  -19162317.96246 -14844280.71861
  16453590.3594  -31989346.40748 -24826984.10664
  16246717.727   -31110461.873 7 -21120849.72821
  19762069.750   -18975078.710 5 -14589713.15421
  18044146.1564  -22732576.42546 -17425542.61861
 93  5 21 20 20 14.9840000  0  5G27G 2G13G15G26
  17575330.485   -19144552.766 6 -14830437.75521
  16450060.4694  -32007869.52148 -24841417.69364
  16234931.3204  -31172401.02347 -21169113.97462
  19762336.492   -18973677.548 5 -14588621.34621
  18040851.727   -22749915.205 6 -17439053.35821
 93  5 21 20 20 29.9840000  0  5G27G 2G13G15G26
  17578725.4854  -19126703.37246 -14816529.16961
  16446547.7504  -32026344.73148 -24855813.96264
  16223171.078   -31234207.518 7 -21217274.86021
  19762627.3284  -18972157.68345 -14587437.07261
  18037574.2504  -22767134.06446 -17452470.67961
 93  5 21 20 20 44.9840000  0  5G27G 2G13G15G26
  17582138.305   -19108771.066 6 -14802555.98522
  16443042.9064  -32044770.50248 -24870171.70964
  16211434.063   -31295879.025 7 -21265330.55421
  19762938.9854  -18970517.20245 -14586158.79461
  18034315.649   -22784235.491 6 -17465796.48921
 93  5 21 20 20 59.9840000  0  5G27G 2G13G15G26
  17585566.594   -19090759.798 6 -14788521.28321
  16439543.8364  -32063148.04048 -24884491.87063
  16199725.024   -31357415.859 7 -21313281.31421
  19763271.1804  -18968756.66145 -14584786.95461
  18031081.2744  -22801219.03046 -17479030.42161
 93  5 21 20 21 14.9840000  0  5G27G 2G13G15G26
  17589009.2814  -19072671.84846 -14774426.81761
  16436057.6884  -32081474.76248 -24898772.44363
  16188039.836   -31418819.285 7 -21361128.11422
  19763630.774   -18966877.669 5 -14583322.83821
  18027871.4774  -22818085.27846 -17492172.95761
 93  5 21 20 21 29.9840000  0  5G27G 2G13G15G26
  17592465.3834  -19054507.35646 -14760272.70061
  16432581.4384  -32099749.18648 -24913012.24763
  16176381.8524  -31480089.97247 -21408871.47361
  19764011.2034  -18964881.23745 -14581767.16861
  18024688.7814  -22834834.98246 -17505224.68361
 93  5 21 20 21 44.9840000  0  5G27G 2G13G15G26
  17595934.4064  -19036263.02346 -14746056.38061
  16429113.6954  -32117967.24748 -24927208.14764
  16164745.664   -31541225.911 7 -21456509.83821
  19764411.1174  -18962765.97645 -14580118.95361
  18021521.8134  -22851465.73046 -17518183.73161
 93  5 21 20 21 59.9840000  0  5G27G 2G13G15G26
  17599421.766   -19017943.520 6 -14731781.48621
  16425655.9694  -32136131.92148 -24941362.44563
  16153137.961   -31602230.410 7 -21504045.80322
  19764834.055   -18960535.482 5 -14578380.91721
  18018378.1804  -22867982.73746 -17531054.15661
 93  5 21 20 22 14.9840000  0  5G27G 2G13G15G26
  17602925.000   -18999545.893 6 -14717445.71921
  16422211.4454  -32154237.48548 -24955470.68663
  16141553.375   -31663098.755 7 -21551475.66022
  19765284.6954  -18958185.68845 -14576549.91561
  18015259.938   -22884379.258 6 -17543830.68521
 93  5 21 20 22 29.9840000  0  5G27G 2G13G15G26
  17606436.2584  -18981073.70446 -14703051.85061
  16418772.5864  -32172288.51948 -24969536.41963
  16129996.7194  -31723834.39147 -21598802.10962
  19765752.7034  -18955720.34145 -14574628.88961
  18012164.9304  -22900659.17946 -17556516.33961
 93  5 21 20 22 44.9840000  0  5G27G 2G13G15G26
  17609969.094   -18962524.255 6 -14688597.77821
  16415351.1494  -32190284.49548 -24983559.25963
  16118466.328   -31784435.115 7 -21646023.42922
  19766245.547   -18953137.415 4 -14572616.26521
  18009088.2584  -22916819.19246 -17569108.56661
 93  5 21 20 22 59.9840000  0  5G27G 2G13G15G26
  17613514.227   -18943894.129 6 -14674080.84321
  16411939.4694  -32208225.58548 -24997539.33264
  16106958.797   -31844899.171 7 -21693138.25622
  19766756.7194  -18950435.50843 -14570510.84461
  18006035.344   -22932853.089 6 -17581602.53321
 93  5 21 20 23 14.9840000  0  5G27G 2G13G15G26
  17617073.367   -18925182.978 6 -14659500.76121
  16408534.3594  -32226111.53348 -25011476.43764
  16095481.805   -31905228.729 7 -21740148.27422
  19767295.7584  -18947617.18143 -14568314.73761
  18003006.9614  -22948760.12946 -17593997.63361
 93  5 21 20 23 29.9840000  0  5G27G 2G13G15G26
  17620648.8204  -18906392.33646 -14644858.74461
  16405140.438   -32243945.523 8 -25025373.06423
  16084023.4304  -31965426.21647 -21787055.37662
  19767856.0864  -18944685.46843 -14566030.36761
  18000007.274   -22964543.025 6 -17606296.01521
 93  5 21 20 23 44.9840000  0  5G27G 2G13G15G26
  17624242.172   -18887518.530 6 -14630151.93521
  16401756.0474  -32261727.54848 -25039229.18763
  16072593.492   -32025487.326 7 -21833856.22222
  19768430.2744  -18941636.48642 -14563654.52161
  17997025.3524  -22980197.46746 -17618494.29961
 93  5 21 20 23 59.9840000  0  5G27G 2G13G15G26
  17627849.211   -18868564.041 6 -14615382.24721
  16398380.7424  -32279460.34048 -25053046.95164
  16061189.336   -32085411.871 7 -21880550.65721
  19769032.0784  -18938470.48942 -14561187.49161
  17994074.789   -22995724.548 6 -17630593.33221
 93  5 21 20 24 14.9840000  0  5G27G 2G13G15G26
  17631469.2814  -18849534.26846 -14600553.91161
  16395017.727   -32297149.200 8 -25066830.48624
  16049813.016   -32145202.949 7 -21927141.08121
  19769663.453   -18935190.920 3 -14558631.98721
  17991139.172   -23011127.179 6 -17642595.40621
 93  5 21 20 24 29.9840000  0  5G27G 2G13G15G26
  17635108.281   -18830426.150 6 -14585664.50821
  16391658.8054  -32314792.35148 -25080578.40364
  16038460.867   -32204858.255 7 -21973625.71922
  19770307.1254  -18931795.92542 -14555986.56761
  17988236.031   -23026402.142 6 -17654498.00321
 93  5 21 20 24 44.9840000  0  5G27G 2G13G15G26
  17638756.922   -18811242.342 6 -14570716.13121
  16388310.2584  -32332393.43548 -25094293.53363
  16027131.984   -32264381.135 7 -22020007.16021
  19770978.445   -18928289.235 2 -14553254.09521
  17985349.8284  -23041554.81146 -17666305.30561
 93  5 21 20 24 59.9840000  0  5G27G 2G13G15G26
  17642421.953   -18791981.223 6 -14555707.51421
  16384968.5164  -32349950.34448 -25107974.24164
  16015834.227   -32323769.526 7 -22066283.81022
  19771664.2194  -18924669.12442
  17982490.7814  -23056584.62046 -17678016.83561
 93  5 21 20 25 14.9830000  0  4G27G 2G13G26
  17646100.7924  -18772644.07046 -14540639.65061
  16381637.3314  -32367463.17348 -25121620.60663
  16004557.862   -32383019.523 7 -22112452.61722
  17979652.6444  -23071496.18746 -17689636.25461
 93  5 21 20 25 29.9830000  0  4G27G 2G13G26
  17649796.409   -18753230.338 6 -14525512.11521
  16378314.2764  -32384934.17748 -25135234.37663
  15993310.019   -32442139.025 7 -22158519.74321
  17976836.206   -23086296.432 6 -17701168.91821
 93  5 21 20 25 44.9830000  0  4G27G 2G13G26
  17653503.558   -18733744.129 6 -14510328.10721
  16374994.448   -32402365.917 8 -25148817.56724
  15982083.4014  -32501123.65247 -22204481.76362
  17974042.7304  -23100985.90046 -17712615.26561
 93  5 21 20 25 59.9830000  0  4G27G 2G13G26
  17657225.526   -18714184.528 6 -14495086.91121
  16371682.2844  -32419757.04248 -25162369.09963
  15970883.980   -32559971.707 7 -22250337.37022
  17971269.667   -23115563.929 6 -17723974.78421
 93  5 21 20 26 14.9830000  0  4G27G 2G13G26
  17660960.2224  -18694556.69846 -14479792.55461
  16368379.4564  -32437111.19348 -25175891.81364
  15959712.644   -32618687.144 7 -22296089.64521
  17968517.378   -23130033.344 6 -17735249.68521
 93  5 21 20 26 29.9830000  0  4G27G 2G13G26
  17664709.323   -18674859.680 6 -14464444.27821
  16365086.6514  -32454428.62248 -25189385.91864
  15948565.159   -32677269.936 7 -22341738.55322
  17965784.542   -23144393.166 6 -17746439.18221
 93  5 21 20 26 44.9830000  0  4G27G 2G13G26
  17668471.7764  -18655088.18846 -14449037.95561
  16361799.6204  -32471701.52748 -25202845.32364
  15937443.675   -32735713.836 7 -22387279.24222
  17963072.6674  -23158638.43746 -17757539.39961
 93  5 21 20 26 59.9830000  0  4G27G 2G13G26
  17672249.5344  -18635244.75646 -14433575.60361
  16358520.183   -32488931.183 8 -25216271.04324
  15926347.081   -32794020.524 7 -22432713.00622
  17960383.941   -23172770.978 6 -17768551.77921
 93  5 21 20 27 14.9830000  0  4G27G 2G13G26
  17676037.331   -18615330.957 6 -14418058.40421
  16355248.1754  -32506116.96648 -25229662.57264
  15915278.386   -32852190.456 7 -22478040.20522
  17957718.347   -23186790.085 6 -17779475.76921
 93  5 21 20 27 29.9830000  0  4G27G 2G13G26
  17679839.245   -18595348.221 6 -14402487.49421
  16351987.3554  -32523255.72648 -25243017.44964
  15904233.808   -32910223.145 7 -22523260.46322
  17955072.175   -23200693.459 6 -17790309.59221
 93  5 21 20 27 44.9830000  0  4G27G 2G13G26
  17683654.839   -18575301.160 6 -14386866.45321
  16348735.2224  -32540350.93048 -25256338.39264
  15893216.339   -32968122.880 7 -22568377.11722
  17952446.151   -23214482.302 6 -17801054.18721
 93  5 21 20 27 59.9830000  0  4G27G 2G13G26
  17687483.917   -18555182.306 6 -14371189.47321
  16345493.9174  -32557396.87048 -25269620.94063
  15882223.628   -33025884.447 7 -22613386.11122
  17949840.5264  -23228150.43446 -17811704.69361
 93  5 21 20 28 14.9830000  0  4G27G 2G13G26
  17691323.6054  -18534991.56746 -14355456.48261
  16342259.237   -32574390.552 8 -25282862.78023
  15871259.347   -33083509.473 7 -22658288.71522
  17947263.3314  -23241698.37046 -17822261.52961
 93  5 21 20 28 29.9830000  0  4G27G 2G13G26
  17695181.581   -18514726.816 6 -14339665.81421
  16339034.2454  -32591330.10448 -25296062.43863
  15860318.878   -33140998.722 7 -22703085.52022
  17944714.995   -23255126.843 6 -17832725.28321
 93  5 21 20 28 44.9830000  0  4G27G 2G13G26
  17699056.3624  -18494389.19746 -14323818.37561
  16335821.6674  -32608215.16448 -25309219.63363
  15849404.753   -33198355.910 7 -22747779.41222
  17942177.519   -23268442.689 6 -17843101.29421
 93  5 21 20 28 59.9830000  0  4G27G 2G13G26
  17702941.0974  -18473969.93946 -14307907.32561
  16332622.0814  -32625036.95248 -25322327.52163
  15838514.823   -33255573.046 7 -22792364.18222
  17939664.933   -23281640.786 6 -17853385.54821
 93  5 21 20 29 14.9830000  0  4G27G 2G13G26
  17706838.4094  -18453469.50746 -14291933.02661
  16329431.8084  -32641797.69648 -25335387.84664
  15827655.105   -33312651.227 7 -22836840.66622
  17937175.409   -23294722.620 6 -17863579.20621
 93  5 21 20 29 29.9830000  0  4G27G 2G13G26
  17710753.1914  -18432893.04546 -14275899.48561
  16326251.964   -32658503.003 8 -25348404.98124
  15816817.995   -33369594.180 7 -22881211.77522
  17934701.972   -23307695.433 6 -17873687.91021
 93  5 21 20 29 44.9830000  0  4G27G 2G13G26
  17714687.261   -18412234.653 6 -14259802.09121
  16323084.0034  -32675151.59648 -25361377.91864
  15806010.823   -33426397.005 7 -22925473.70222
  17932260.0264  -23320555.34846 -17883708.63361
 93  5 21 20 29 59.9830000  0  4G27G 2G13G26
  17718634.409   -18391497.334 6 -14243643.18521
  16319927.761   -32691748.494 8 -25374310.57724
  15795227.917   -33483063.059 7 -22969629.05122
  17929832.4334  -23333305.05946 -17893643.48861
 93  5 21 20 30 14.9830000  0  4G27G 2G13G26
  17722594.112   -18370683.697 6 -14227424.82521
  16316775.066   -32708293.474 8 -25387202.78024
  15784470.987   -33539591.519 7 -23013677.18122
  17927431.870   -23345944.536 6 -17903492.44721
 93  5 21 20 30 29.9830000  0  4G27G 2G13G26
  17726568.011   -18349798.899 6 -14211151.01321
  16313638.9174  -32724790.04348 -25400057.25564
  15773737.753   -33595985.824 7 -23057620.78122
  17925040.651   -23358479.546 6 -17913260.00421
 93  5 21 20 30 44.9830000  0  4G27G 2G13G26
  17730560.792   -18328838.084 6 -14194817.96321
  16310509.6914  -32741234.37748 -25412871.02364
  15763035.159   -33652238.760 7 -23101454.21322
  17922684.456   -23370907.271 6 -17922943.96121
 93  5 21 20 30 59.9830000  0  4G27G 2G13G26
  17734560.5974  -18307805.89846 -14178429.31561
  16307390.2454  -32757630.72248 -25425647.40163
  15752356.128   -33708351.852 7 -23145178.68422
  17920331.394   -23383229.426 6 -17932545.65921
 93  5 21 20 31 14.9830000  0  4G27G 2G13G26
  17738573.6284  -18286705.87446 -14161987.78861
  16304278.5974  -32773983.34048 -25438389.70664
  15741705.737   -33764326.129 7 -23188794.98822
  17918007.159   -23395445.751 6 -17942064.89221
 93  5 21 20 31 29.9830000  0  4G27G 2G13G26
  17742598.7304  -18265538.81746 -14145494.04761
  16301174.3234  -32790289.62548 -25451095.90264
  15731079.230   -33820160.235 7 -23232302.07222
  17915708.2304  -23407553.06146 -17951499.18461
 93  5 21 20 31 44.9830000  0  4G27G 2G13G26
  17746642.917   -18244303.566 6 -14128947.13921
  16298078.7064  -32806550.66648 -25463766.85664
  15720480.339   -33875854.520 7 -23275700.19722
  17913424.933   -23419550.155 6 -17960847.57921
 93  5 21 20 31 59.9830000  0  4G27G 2G13G26
  17750696.1834  -18223002.38046 -14112348.89561
  16294994.3624  -32822766.72648 -25476402.74764
  15709908.198   -33931411.435 7 -23318991.28122
  17911159.4254  -23431438.81646 -17970111.49761
 93  5 21 20 32 14.9830000  0  4G27G 2G13G26
  17754760.816   -18201634.956 6 -14095698.99421
  16291918.7694  -32838935.35048 -25489001.68664
  15699362.667   -33986829.177 7 -23362173.91822
  17908916.0664  -23443220.15946 -17979291.79961
 93  5 21 20 32 29.9830000  0  4G27G 2G13G26
  17758843.0344  -18180197.71446 -14078994.71061
  16288851.4484  -32855056.09448 -25501563.31164
  15688846.292   -34042106.999 7 -23405247.53022
  17906693.808   -23454895.835 6 -17988389.74321
 93  5 21 20 32 44.9830000  0  4G27G 2G13G26
  17762936.339   -18158689.184 6 -14062234.88621
  16285792.0734  -32871129.74248 -25514088.23564
  15678351.003   -34097245.865 7 -23448212.86022
  17904491.691   -23466466.995 6 -17997406.24421
 93  5 21 20 32 59.9830000  0  4G27G 2G13G26
  17767041.3704  -18137110.62846 -14045420.49361
  16282743.206   -32887158.188 8 -25526577.94124
  15667886.042   -34152246.015 7 -23491070.10022
  17902312.120   -23477929.979 6 -18006338.46121
 93  5 21 20 33 14.9830000  0  4G27G 2G13G26
  17771159.2614  -18115461.31446 -14028550.96161
  16279701.0664  -32903138.48748 -25539030.13063
  15657446.511   -34207105.063 7 -23533817.39622
  17900150.456   -23489280.523 6 -18015183.05421
 93  5 21 20 33 29.9830000  0  4G27G 2G13G26
  17775292.097   -18093746.518 6 -14011630.39821
  16276667.9954  -32919073.31948 -25551446.89163
  15647032.081   -34261826.358 7 -23576457.35222
  17898011.8474  -23500522.18146 -18023942.81961
 93  5 21 20 33 44.9830000  0  5G27G24G 2G13G26
  17779438.2694  -18071965.70046 -13994658.39761
  20136377.6754         -0.45353
  16273645.4484  -32934965.81248 -25563830.65664
  15636646.987   -34316410.634 7 -23618990.53522
  17895893.612   -23511656.900 6 -18032619.23521
 93  5 21 20 33 59.9830000  0  5G27G24G 2G13G26
  17783593.886   -18050114.031 6 -13977631.16921
  20120722.7614     -82226.98243
  16270629.8004  -32950810.56848 -25576177.21664
  15626286.800   -34370853.162 7 -23661413.26822
  17893794.956   -23522680.351 6 -18041208.95721
 93  5 21 20 34 14.9830000  0  5G27G24G 2G13G26
  17787770.253   -18028196.430 6 -13960552.59121
  20105072.2304    -164473.37242
  16267623.9254  -32966606.70048 -25588485.89964
  15615952.581   -34425156.933 7 -23703727.87722
  17891718.581   -23533597.028 6 -18049715.48221
 93  5 21 20 34 29.9830000  0  5G27G24G 2G13G26
  17791952.839   -18006210.792 6 -13943421.00021
  20089424.7374    -246740.68343
  16264623.5264  -32982352.75148 -25600755.55164
  15605643.526   -34479320.894 7 -23745933.54522
  17889664.659   -23544404.208 6 -18058136.67421
 93  5 21 20 34 44.9830000  0  5G27G24G 2G13G26
  17796148.7924  -17984156.45346 -13926235.86661
  20073756.441     -329030.540 3
  16261638.151   -32998044.715 7 -25612983.06524
  15595364.659   -34533343.790 7 -23788029.28922
  17887626.917   -23555099.010 6 -18066470.30821
 93  5 21 20 34 59.9830000  0  5G27G24G 2G13G26
  17800356.331   -17962035.329 6 -13908998.70121
  20058103.2924    -411337.85343        -0.48071
  16258662.3864  -33013682.96547 -25625168.72863
  15585112.831   -34587224.276 7 -23830014.06322
  17885614.0424  -23565679.48946 -18074714.86561
 93  5 21 20 35 14.9830000  0  5G27G24G 2G13G26
  17804574.1444  -17939852.23046 -13891713.23361
  20042436.0664    -493662.95943    -64149.73461
  16255698.1754  -33029268.77648 -25637313.51464
  15574885.862   -34640965.696 7 -23871890.47422
  17883623.784   -23576150.395 6 -18082874.04221
 93  5 21 20 35 29.9830000  0  5G27G24G 2G13G26
  17808811.3944  -17917603.62946 -13874376.71061
  20026759.925     -576006.050 3   -128312.98921
  16252743.8864  -33044797.37748 -25649413.73163
  15564685.417   -34694566.657 7 -23913657.44822
  17881648.628   -23586513.667 6 -18090949.33121
 93  5 21 20 35 44.9830000  0  5G27G24G 2G13G26
  17813061.5584  -17895286.24546 -13856986.60261
  20011097.144     -658368.317 3   -192491.19121
  16249798.433   -33060268.020 8 -25661468.79324
  15554511.823   -34748028.093 7 -23955315.69622
  17879697.370   -23596770.053 6 -18098941.33521
 93  5 21 20 35 59.9830000  0  5G27G24G 2G13G26
  17817324.472   -17872896.501 6 -13839540.12921
  19995401.8084    -740750.95443   -256685.28861
  16246866.4724  -33075676.35848 -25673475.29864
  15544364.956   -34801348.314 7 -23996863.90422
  17877771.5584  -23606915.98946 -18106847.28761
 93  5 21 20 36 14.9830000  0  5G27G24G 2G13G26
  17821591.8864  -17850438.49946 -13822040.45161
  19979730.6594    -823158.34643   -320898.64461
  16243946.6754  -33091021.57948 -25685432.61564
  15534244.1674  -34854529.69347 -24038303.92662
  17875853.5264  -23616953.25446 -18114668.56561
 93  5 21 20 36 29.9830000  0  5G27G24G 2G13G26
  17825881.487   -17827908.632 6 -13804484.76421
  19964036.698     -905587.015 3   -385128.60021
  16241039.5664  -33106306.14748 -25697342.67264
  15524150.214   -34907569.319 7 -24079633.49122
  17873971.9254  -23626877.91746 -18122402.05861
 93  5 21 20 36 44.9830000  0  5G27G24G 2G13G26
  17830180.4094  -17805311.82846 -13786876.93961
  19948347.105                          -0.89313
  16238141.269   -33121539.383 8 -25709212.74123
  15514084.855   -34960471.263 7 -24120855.76522
  17872098.925   -23636694.335 6 -18130051.22821
 93  5 21 20 36 59.9830000  0  5G27G24G 2G13G26
  17834494.8864  -17782645.25746 -13769214.74361
  19932650.683                      -82469.665 3
  16235251.417   -33136719.477 8 -25721041.39524
  15504044.722   -35013230.534 7 -24161966.87422
  17870254.956   -23646400.701 6 -18137614.65821
 93  5 21 20 37 14.9830000  0  5G27G24G 2G13G26
  17838824.0424  -17759913.16746 -13751501.48961
  19916964.722                     -164957.627 3
  16232373.3624  -33151850.06948 -25732831.47864
  15494032.691   -35065849.858 7 -24202968.93022
  17868424.4564  -23656000.73846 -18145095.23961
 93  5 21 20 37 29.9830000  0  5G27G24G 2G13G26
  17843159.2304  -17737112.54646 -13733734.85961
  19901261.644                     -247468.705 3
  16229504.4334  -33166926.15148 -25744579.08064
  15484045.144   -35118326.819 7 -24243860.05022
  17866619.448   -23665493.243 6 -18152492.01421
 93  5 21 20 37 44.9830000  0  5G27G24G 2G13G26
  17847512.6364  -17714244.09146 -13715915.35361
  19885554.9874                    -330006.29243
  16226643.581   -33181951.630 8 -25756287.25824
  15474087.581   -35170662.655 7 -24284641.20122
  17864834.917   -23674878.491 6 -18159805.20121
 93  5 21 20 37 59.9830000  0  5G27G24G 2G13G26
  17851877.011   -17691311.521 6 -13698045.89621
  19869839.659                     -412566.501 3
  16223793.237   -33196927.308 7 -25767956.62624
  15464153.816   -35222856.068 7 -24325311.38122
  17863069.886   -23684154.400 6 -18167033.20221
 93  5 21 20 38 14.9830000  0  5G27G24G 2G13G26
  17856250.2614  -17668319.17546 -13680129.84861
  19854128.847     -495147.546 3        -0.45231
  16220952.2304  -33211856.95647 -25779590.11964
  15454249.011   -35274907.932 7 -24365871.26022
  17861326.1364  -23693323.05646 -18174177.64161
 93  5 21 20 38 29.9820000  0  5G27G24G 2G13G26
  17860638.545   -17645267.487 6 -13662167.57021
  19838414.920     -577736.650 4    -64355.42721
  16218116.6704  -33226741.62947 -25791188.56764
  15444371.9284  -35326812.42847 -24406316.31262
  17859600.9754  -23702385.42646 -18181239.26161
 93  5 21 20 38 44.9820000  0  5G27G24G 2G13G26
  17865033.272   -17622157.974 6 -13644160.23621
  19822694.9044    -660347.66243   -128727.50661
  16215294.326   -33241586.522 8 -25802756.03023
  15434521.795   -35378579.858 7 -24446654.55222
  17857897.7174  -23711349.28946 -18188224.10161
 93  5 21 20 38 59.9820000  0  5G27G24G 2G13G26
  17869446.803   -17598991.514 6 -13626108.51421
  19806970.865     -742973.251 4   -193110.90721
  16212479.3974  -33256381.64748 -25814284.70763
  15424696.287   -35430204.829 7 -24486881.78222
  17856208.2254  -23720213.23146 -18195131.09461
 93  5 21 20 39 14.9820000  0  5G27G24G 2G13G26
  17873860.631   -17575769.074 5 -13608013.18221
  19791242.834     -825613.946 4   -257506.09221
  16209674.0614  -33271123.70047 -25825772.02863
  15414900.4124  -35481687.55047 -24526998.18262
  17854536.998   -23728978.580 6 -18201961.24821
 93  5 21 20 39 29.9820000  0  5G27G24G 2G13G26
  17878292.9984  -17552491.21545 -13589874.65661
  19775511.967     -908271.017 4   -321914.04921
  16206882.4904  -33285810.86348 -25837216.56763
  15405130.326   -35533028.781 7 -24567004.31922
  17852891.936   -23737643.618 6 -18208713.24721
 93  5 21 20 39 44.9820000  0  5G27G24G 2G13G26
  17882731.240   -17529157.878 6 -13571692.90821
  19759778.803     -990938.576 4
  16204096.256   -33300442.996 8 -25848618.24023
  15395388.264   -35584228.093 7 -24606899.87122
  17851260.420   -23746208.374 6 -18215387.09821
 93  5 21 20 39 59.9820000  0  5G27G24G 2G13G26
  17887178.8034  -17505769.15145 -13553467.99561
  19744050.2874   -1073609.82243
  16201323.803   -33315018.854 8 -25859976.06823
  15385671.443   -35635284.238 7 -24646683.87022
  17849651.8814  -23754670.45446 -18221980.96261
 93  5 21 20 40 14.9820000  0  5G27G24G 2G13G26
  17891644.342   -17482325.514 6 -13535200.29721
  19728318.381    -1156284.261 3
  16198558.9204  -33329540.55948 -25871291.68763
  15375983.943   -35686198.987 7 -24686357.67922
  17848058.936   -23763032.568 6 -18228496.93421
 93  5 21 20 40 29.9820000  0  5G27G24G 2G13G26
  17896116.326   -17458821.702 6 -13516885.71921
  19712581.8184   -1238961.66843        -0.49071
  16195806.1544  -33344007.44548 -25882564.59663
  15366323.6624  -35736970.90848 -24725920.20262
  17846483.467   -23771295.901 6 -18234935.91421
 93  5 21 20 40 44.9820000  0  5G27G24G 2G13G26
  17900599.9674  -17435259.56145 -13498525.67861
  19696845.7014   -1321646.88244    -64430.37861
  16193062.662   -33358418.014 7 -25893793.62023
  15356687.850   -35787601.846 8 -24765372.86522
  17844932.5924  -23779463.87546 -18241300.57461
 93  5 21 20 40 59.9820000  0  5G27G24G 2G13G26
  17905099.3264  -17411638.59946 -13480119.82161
  19681114.764    -1404343.073 3   -128868.84121
  16190333.6004  -33372770.63948 -25904977.48763
  15347077.193   -35838092.125 7 -24804715.92222
  17843396.2724  -23787534.99446 -18247589.78861
 93  5 21 20 41 14.9820000  0  5G27G24G 2G13G26
  17909604.3894  -17387959.38746 -13461668.55661
  19665374.506    -1487049.819 4   -193315.50621
  16187612.4514  -33387068.40748 -25916118.60763
  15337497.5614  -35888441.90447 -24843949.50462
  17841876.568   -23795508.479 6 -18253802.91121
 93  5 21 20 41 29.9820000  0  5G27G24G 2G13G26
  17914121.076   -17364219.230 6 -13443169.81321
  19649636.654    -1569768.423 4   -257771.41021
  16184899.389   -33401314.887 8 -25927219.77723
  15327943.3584  -35938650.79247 -24883073.31062
  17840382.600   -23803382.436 6 -18259938.48421
 93  5 21 20 41 44.9820000  0  5G27G24G 2G13G26
  17918649.0224  -17340417.97646 -13424623.44961
  19633892.6544   -1652502.49844   -322239.35761
  16182197.725   -33415515.123 8 -25938284.90223
  15318415.490   -35988721.594 7 -24922089.50422
  17838903.2954  -23811159.73346 -18265998.74161
 93  5 21 20 41 59.9820000  0  5G27G24G 2G13G26
  17923190.5614  -17316548.51745 -13406023.93561
  19618139.131    -1735246.727 4   -386715.24521
  16179506.904   -33429665.950 8 -25949311.53123
  15308916.068   -36038649.110 7 -24960994.04622
  17837440.654   -23818834.767 6 -18271979.30321
 93  5 21 20 42 14.9820000  0  5G27G24G 2G13G26
  17927747.084   -17292609.752 5 -13387370.41921
  19602393.4674   -1818005.26044   -451202.30261
  16176821.6394  -33443770.87048 -25960302.38463
  15299439.561   -36088433.988 7 -24999787.43922
  17836002.9594  -23826406.32046 -18277879.23961
 93  5 21 20 42 29.9820000  0  5G27G24G 2G13G26
  17932317.326   -17268602.020 6 -13368663.17521
  19586640.7874   -1900779.00444   -515701.17361
  16174143.4124  -33457830.65547 -25971258.06963
  15289994.170   -36138075.570 8 -25038469.17322
  17834580.3184  -23833873.84146 -18283698.11361
 93  5 21 20 42 44.9820000  0  5G27G24G 2G13G26
  17936900.764   -17244528.488 6 -13349904.66421
  19570895.318    -1983570.550 5   -580213.89521
  16171478.4204  -33471841.62547 -25982175.71663
  15280575.522   -36187573.502 8 -25077038.97622
  17833176.467   -23841237.512 6 -18289436.07221
 93  5 21 20 42 59.9820000  0  5G27G24G 2G13G26
  17941493.1234  -17220393.62046 -13331098.36561
  19555131.764    -2066382.437 5   -644742.53921
  16168825.2564  -33485805.96448 -25993057.02463
  15271181.553   -36236930.362 7 -25115498.85022
  17831793.686   -23848496.632 6 -18295092.54321
 93  5 21 20 43 14.9820000  0  5G27G24G 2G13G26
  17946094.8344  -17196197.13845 -13312244.05261
  19539373.779    -2149210.290 5   -709283.59221
  16166174.608   -33499722.929 8 -26003901.42923
  15261817.342   -36286144.022 7 -25153847.14622
  17830436.576   -23855647.514 6 -18300664.66621
 93  5 21 20 43 29.9820000  0  5G27G24G 2G13G26
  17950704.264   -17171938.448 5 -13293341.25421
  19523605.858    -2232050.762 5   -773834.44721
  16163534.2174  -33513590.88247 -26014707.63563
  15252479.1474  -36335213.79747 -25192083.32762
  17829095.7954  -23862689.26246 -18306151.77361
 93  5 21 20 43 44.9820000  0  5G27G24G 2G13G26
  17955334.100   -17147620.702 5 -13274392.44221
  19507838.8344   -2314905.29944   -838396.30761
  16160908.287   -33527409.454 8 -26025475.36623
  15243169.295   -36384142.888 8 -25230209.87222
  17827781.2724  -23869626.18346 -18311557.19361
 93  5 21 20 43 59.9820000  0  5G27G24G 2G13G26
  17959977.061   -17123244.051 5 -13255397.72021
  19492069.342    -2397768.103 4   -902964.61421
  16158289.420   -33541172.484 8 -26036199.82023
  15233884.615   -36432927.100 8 -25268223.52922
  17826479.045   -23876458.085 6 -18316880.78221
 93  5 21 20 44 14.9820000  0  5G27G24G 2G13G26
  17964622.0224  -17098814.23345 -13236361.58261
  19476299.4674   -2480640.75644   -967540.57561
  16155679.0534  -33554882.57748 -26046883.02663
  15224629.967   -36481569.160 8 -25306126.42222
  17825187.1864  -23883188.71746 -18322125.45361
 93  5 21 20 44 29.9820000  0  5G27G24G 2G13G26
  17969284.904   -17074331.441 6 -13217284.15521
  19460528.8264   -2563521.92345  -1032123.17361
  16153080.9594  -33568532.78747 -26057519.55563
  15215399.764   -36530066.022 8 -25343916.16122
  17823931.693   -23889820.807 6 -18327293.33721
 93  5 21 20 44 44.9820000  0  5G27G24G 2G13G26
  17973954.600   -17049801.144 6 -13198169.71121
  19444757.3184   -2646414.86145  -1096714.93361
  16150495.0064  -33582123.46847 -26068109.70063
  15206199.654   -36578421.283 8 -25381595.56522
  17822688.1234  -23896362.38946 -18332390.69361
 93  5 21 20 44 59.9820000  0  5G27G24G 2G13G26
  17978627.9984  -17025222.62445 -13179017.71661
  19428975.123    -2729319.576 5  -1161315.89421
  16147918.139   -33595657.859 7 -26078655.98923
  15197022.693   -36626636.623 7 -25419165.94522
  17821456.748   -23902815.043 6 -18337418.77221
 93  5 21 20 45 14.9820000  0  5G27G24G 2G13G26
  17983314.6704  -17000590.47145 -13159823.91261
  19413198.8184   -2812230.04345  -1225921.28961
  16145355.068   -33609134.774 8 -26089157.49123
  15187872.3184  -36674709.11447 -25456625.01862
  17820252.842   -23909175.801 6 -18342375.21621
 93  5 21 20 45 29.9820000  0  5G27G24G 2G13G26
  17988011.6544  -16975903.97145 -13140587.76461
  19397423.8974   -2895146.61545  -1290531.47761
  16142799.428   -33622556.679 7 -26099616.13823
  15178755.123   -36722641.070 8 -25493974.58322
  17819057.1234  -23915450.27446 -18347264.45661
 93  5 21 20 45 44.9820000  0  5G27G24G 2G13G26
  17992721.990   -16951154.192 5 -13121302.30121
  19381642.584    -2978064.734 5  -1355142.87121
  16140258.717   -33635917.951 8 -26110027.52923
  15169662.631   -36770426.725 8 -25531210.14422
  17817876.5614  -23921635.63846 -18352084.25461
 93  5 21 20 45 59.9820000  0  5G27G24G 2G13G26
  17997446.381   -16926348.827 5 -13101973.53021
  19365865.4834   -3060991.14745  -1419760.70861
  16137726.0924  -33649224.61548 -26120396.37063
  15160594.123   -36818071.535 7 -25568335.95522
  17816719.959   -23927738.240 6 -18356839.55621
 93  5 21 20 46 14.9820000  0  5G27G24G 2G13G26
  18002171.6154  -16901482.53845 -13082597.28261
  19350077.334    -3143924.494 5  -1484383.97521
  16135203.795   -33662476.313 8 -26130722.38523
  15151555.842   -36865572.955 8 -25605350.03022
  17815570.920   -23933753.377 6 -18361526.68321
 93  5 21 20 46 29.9820000  0  5G27G24G 2G13G26
  18006918.256   -16876554.531 5 -13063172.94221
  19334297.7724   -3226864.67345  -1549012.55561
  16132691.748   -33675673.495 7 -26141005.92023
  15142544.225   -36912931.176 8 -25642252.52522
  17814448.350   -23939677.240 6 -18366142.69821
 93  5 21 20 46 44.9820000  0  5G27G24G 2G13G26
  18011672.904   -16851562.500 5 -13043698.72121
  19318510.811    -3309809.419 5  -1613644.69121
  16130190.084   -33688814.700 7 -26151245.83423
  15133558.5144  -36960144.52047 -25679042.13462
  17813339.1934  -23945503.62946 -18370682.78061
 93  5 21 20 46 59.9820000  0  5G27G24G 2G13G26
  18016443.8114  -16826505.57645 -13024173.90961
  19302732.9594   -3392756.63545  -1678278.76361
  16127700.326   -33701903.617 8 -26161445.00223
  15124601.1934  -37007214.24547 -25715719.83162
  17812251.397   -23951230.333 6 -18375145.16921
 93  5 21 20 47 14.9820000  0  5G27G24G 2G13G26
  18021225.8184  -16801382.84145 -13004597.84261
  19286941.443    -3475707.439 5  -1742915.60121
  16125219.2794  -33714938.53248 -26171602.08863
  15115670.990   -37054139.705 8 -25752285.10522
  17811180.6084  -23956856.02346 -18379528.85561
 93  5 21 20 47 29.9820000  0  5G27G24G 2G13G26
  18026016.381   -16776197.200 5 -12984972.78421
  19271160.990    -3558662.031 5  -1807555.42021
  16122750.240   -33727917.317 7 -26181715.44623
  15106770.264   -37100921.279 8 -25788738.26022
  17810125.4044  -23962381.88846 -18383834.73661
 93  5 21 20 47 44.9820000  0  5G27G24G 2G13G26
  18030817.2484  -16750952.78345 -12965301.87961
  19255367.779    -3641624.195 5  -1872201.13121
  16120291.7874  -33740841.42748 -26191786.19063
  15097894.4904  -37147559.60048 -25825079.80262
  17809090.834   -23967809.111 6 -18388063.79621
 93  5 21 20 47 59.9820000  0  5G27G24G 2G13G26
  18035636.631   -16725655.163 5 -12945589.53421
  19239582.201    -3724596.433 5  -1936854.67621
  16117844.514   -33753712.617 8 -26201815.70023
  15089049.764   -37194055.928 8 -25861310.69322
  17808075.8734  -23973138.19846 -18392216.35761
 93  5 21 20 48 14.9820000  0  5G27G24G 2G13G26
  18040459.209   -16700305.850 5 -12925836.90121
  19223793.3264   -3807579.76745  -2001516.89561
  16115401.264   -33766532.451 7 -26211805.20223
  15080226.490   -37240411.156 8 -25897431.63222
  17807079.6784  -23978368.17846 -18396291.70261
 93  5 21 20 48 29.9820000  0  5G27G24G 2G13G26
  18045293.2254  -16674903.17445 -12906042.70461
  19207990.6154   -3890569.51045  -2066184.09261
  16112972.6474  -33779298.94647 -26221753.12863
  15071432.795   -37286622.237 8 -25933440.25322
  17806106.7484  -23983496.93046 -18400288.15561
 93  5 21 20 48 44.9820000  0  5G27G24G 2G13G26
  18050137.678   -16649449.012 5 -12886208.39121
  19192200.0924   -3973563.87545  -2130854.88461
  16110553.6314  -33792009.93847 -26231657.80263
  15062667.0534  -37332688.00348 -25969335.64662
  17805151.506   -23988527.122 6 -18404207.80821
 93  5 21 20 48 59.9820000  0  5G27G24G 2G13G26
  18054994.7404  -16623945.37745 -12866335.52461
  19176407.350    -4056563.932 5  -2195530.11921
  16108145.483   -33804668.332 7 -26241521.50823
  15053926.936   -37378610.060 8 -26005119.05222
  17804211.3344  -23993466.75246 -18408056.89361
 93  5 21 20 49 14.9820000  0  5G27G24G 2G13G26
  18059854.0614  -16598392.55145 -12846424.30861
  19160615.7254   -4139568.27345  -2260208.70061
  16105745.709   -33817273.057 7 -26251343.38723
  15045216.850   -37424388.646 8 -26040790.66922
  17803288.928   -23998318.535 6 -18411837.53421
 93  5 21 20 49 29.9820000  0  5G27G24G 2G13G26
  18064721.5924  -16572792.78745 -12826476.52461
  19144813.772    -4222575.820 5  -2324889.77821
  16103358.568   -33829824.922 7 -26261124.07623
  15036530.608   -37470024.472 8 -26076351.04022
  17802377.451   -24003083.819 6 -18415550.76121
 93  5 21 20 49 44.9820000  0  5G27G24G 2G13G26
  18069601.404   -16547145.294 5 -12806491.55621
  19129022.037    -4305583.064 5  -2389570.62721
  16100980.537   -33842325.017 8 -26270864.42223
  15027876.1394  -37515516.21148 -26111799.13562
  17801490.7484  -24007761.43946 -18419195.67961
